[[{"header":{"parameterUnit":"m.s-1","parameterCategory":1,"la1":31.0,"la2":29.5877,"lo1":-88.7671,"lo2":-86.6584,"dy":0.0162,"dx":0.0185,"nx":115,"ny":88,"refTime":"2025-07-11T12:00:00:Z","depth":0,"parameterNumber":2,"parameterNumberName":"U-component_of_WINDS"},"data":[0.0,0.0,0.0,0.0,0.0,0.0,0.0,0.0,0.0,0.0,0.0,0.0,0.0,0.0,0.0,0.0,0.0,0.0,0.0,0.0,0.0,0.0,0.0,0.0,0.0,0.0,0.0,0.0,0.0,0.0,0.0,0.0,0.0,0.0,0.0,0.0,0.0,0.0,0.0,0.0,0.0,0.0,0.0,0.0,0.0,0.0,0.0,0.0,0.0,0.0,0.0,0.0,0.0,0.0,0.0,0.0,0.0,0.0,0.0,0.0,0.0,0.0,0.0,0.0,0.0,0.0,0.0,0.0,0.0,0.0,0.0,0.0,0.0,0.0,0.0,0.0,0.0,0.0,0.0,0.0,0.0,0.0,0.0,0.0,0.0,0.0,0.0,0.0,0.0,0.0,0.0,0.0,0.0,0.0,0.0,0.0,0.0,0.0,0.0,0.0,0.0,0.0,0.0,0.0,0.0,0.0,0.0,0.0,0.0,0.0,0.0,0.0,0.0,0.0,0.0,0.0,0.0,0.0,0.0,0.0,0.0,0.0,0.0,0.0,0.0,0.0,0.0,0.0,0.0,0.0,0.0,0.0,0.0,0.0,0.0,0.0,0.0,0.0,0.0,0.0,0.0,0.0,0.0,0.0,0.0,0.0,0.0,0.0,0.0,0.0,0.0,0.0,0.0,0.0,0.0,0.0,0.0,0.0,0.0,0.0,0.0,0.0,0.0,0.0,0.0,0.0,0.0,0.0,0.0,0.0,0.0,0.0,0.0,0.0,0.0,0.0,0.0,0.0,0.0,0.0,0.0,0.0,0.0,0.0,0.0,0.0,0.0,0.0,0.0,0.0,0.0,0.0,0.0,0.0,0.0,0.0,0.0,0.0,0.0,0.0,0.0,0.0,0.0,0.0,0.0,0.0,0.0,0.0,0.0,0.0,0.0,0.0,0.0,0.0,0.0,0.0,0.0,0.0,0.0,0.0,0.0,0.0,0.0,0.0,0.0,0.0,0.0,0.0,0.0,0.0,0.0,0.0,0.0,0.0,0.0,0.0,0.0,0.0,0.0,0.0,0.0,0.0,0.0,0.0,0.0,0.0,0.0,0.0,0.0,0.0,0.0,0.0,0.0,0.0,0.0,0.0,0.0,0.0,0.0,0.0,0.0,0.0,0.0,0.0,0.0,0.0,0.0,0.0,0.0,0.0,0.0,0.0,0.0,0.0,0.0,0.0,0.0,0.0,0.0,0.0,0.0,0.0,0.0,0.0,0.0,0.0,0.0,0.0,0.0,0.0,0.0,0.0,0.0,0.0,0.0,0.0,0.0,0.0,0.0,0.0,0.0,0.0,0.0,0.0,0.0,0.0,0.0,0.0,0.0,0.0,0.0,0.0,0.0,0.0,0.0,0.0,0.0,0.0,0.0,0.0,0.0,0.0,0.0,0.0,0.0,0.0,0.0,0.0,0.0,0.0,0.0,0.0,0.0,0.0,0.0,0.0,0.0,0.0,0.0,0.0,0.0,0.0,0.0,0.0,0.0,0.0,0.0,0.0,0.0,0.0,0.0,0.0,0.0,0.0,0.0,0.0,0.0,0.0,0.0,0.0,0.0,0.0,0.0,0.0,0.0,0.0,0.0,0.0,0.0,0.0,0.0,0.0,0.0,0.0,0.0,0.0,0.0,0.0,0.0,0.0,0.0,0.0,0.0,0.0,0.0,0.0,0.0,0.0,0.0,0.0,0.0,0.0,0.0,0.0,0.0,0.0,0.0,0.0,0.0,0.0,0.0,0.0,0.0,0.0,0.0,0.0,0.0,0.0,0.0,0.0,0.0,0.0,0.0,0.0,0.0,0.0,0.0,0.0,0.0,0.0,0.0,0.0,0.0,0.0,0.0,0.0,0.0,0.0,0.0,0.0,0.0,0.0,0.0,0.0,0.0,0.0,0.0,0.0,0.0,0.0,0.0,0.0,0.0,0.0,0.0,0.0,0.0,0.0,0.0,0.0,0.0,0.0,0.0,0.0,0.0,0.0,0.0,0.0,0.0,0.0,0.0,0.0,0.0,0.0,0.0,0.0,0.0,0.0,0.0,0.0,0.0,0.0,0.0,0.0,0.0,0.0,0.0,0.0,0.0,0.0,0.0,0.0,0.0,0.0,0.0,0.0,0.0,0.0,0.0,0.0,0.0,0.0,0.0,0.0,0.0,0.0,0.0,0.0,0.0,0.0,0.0,0.0,0.0,0.0,0.0,0.0,0.0,0.0,0.0,0.0,0.0,0.0,0.0,0.0,0.0,0.0,0.0,0.0,0.0,0.0,0.0,0.0,0.0,0.0,0.0,0.0,0.0,0.0,0.0,0.0,0.0,0.0,0.0,0.0,0.0,0.0,0.0,0.0,0.0,0.0,0.0,0.0,0.0,0.0,0.0,0.0,0.0,0.0,0.0,0.0,0.0,0.0,0.0,0.0,0.0,0.0,0.0,0.0,0.0,0.0,0.0,0.0,0.0,0.0,0.0,0.0,0.0,0.0,0.0,0.0,0.0,0.0,0.0,0.0,0.0,0.0,0.0,0.0,0.0,0.0,0.0,0.0,0.0,0.0,0.0,0.0,0.0,0.0,0.0,0.0,0.0,0.0,0.0,0.0,0.0,0.0,0.0,0.0,0.0,0.0,0.0,0.0,0.0,0.0,0.0,0.0,0.0,0.0,0.0,0.0,0.0,0.0,0.0,0.0,0.0,0.0,0.0,0.0,0.0,0.0,0.0,0.0,0.0,0.0,0.0,0.0,0.0,0.0,0.0,0.0,0.0,0.0,0.0,0.0,0.0,0.0,0.0,0.0,0.0,0.0,0.0,0.0,0.0,0.0,0.0,0.0,0.0,0.0,0.0,0.0,0.0,0.0,0.0,0.0,0.0,0.0,0.0,0.0,0.0,0.0,0.0,0.0,0.0,0.0,0.0,0.0,0.0,0.0,0.0,0.0,0.0,0.0,0.0,0.0,0.0,0.0,0.0,0.0,0.0,0.0,0.0,0.0,0.0,0.0,0.0,0.0,0.0,0.0,0.0,0.0,0.0,0.0,0.0,0.0,0.0,0.0,0.0,0.0,0.0,0.0,0.0,0.0,0.0,0.0,0.0,0.0,0.0,0.0,0.0,0.0,0.0,0.0,0.0,0.0,0.0,0.0,0.0,0.0,0.0,0.0,0.0,0.0,0.0,0.0,0.0,0.0,0.0,0.0,0.0,0.0,0.0,0.0,0.0,0.0,0.0,0.0,0.0,0.0,0.0,0.0,0.0,0.0,0.0,0.0,0.0,0.0,0.0,0.0,0.0,0.0,0.0,0.0,0.0,0.0,0.0,0.0,0.0,0.0,0.0,0.0,0.0,0.0,0.0,0.0,0.0,0.0,0.0,0.0,0.0,0.0,0.0,0.0,0.0,0.0,0.0,0.0,0.0,0.0,0.0,0.0,0.0,0.0,0.0,0.0,0.0,0.0,0.0,0.0,0.0,0.0,0.0,0.0,0.0,0.0,0.0,0.0,0.0,0.0,0.0,0.0,0.0,0.0,0.0,0.0,0.0,0.0,0.0,0.0,0.0,0.0,0.0,0.0,0.0,0.0,0.0,0.0,0.0,0.0,0.0,0.0,0.0,0.0,0.0,0.0,0.0,0.0,0.0,0.0,0.0,0.0,0.0,0.0,0.0,0.0,0.0,0.0,0.0,0.0,0.0,0.0,0.0,0.0,0.0,0.0,0.0,0.0,0.0,0.0,0.0,0.0,0.0,0.0,0.0,0.0,0.0,0.0,0.0,0.0,0.0,0.0,0.0,0.0,0.0,0.0,0.0,0.0,0.0,0.0,0.0,0.0,0.0,0.0,0.0,0.0,0.0,0.0,0.0,0.0,0.0,0.0,0.0,0.0,0.0,0.0,0.0,0.0,0.0,0.0,0.0,0.0,0.0,0.0,0.0,0.0,0.0,0.0,0.0,0.0,0.0,0.0,0.0,0.0,0.0,0.0,0.0,0.0,0.0,0.0,0.0,0.0,0.0,0.0,0.0,0.0,0.0,0.0,0.0,0.0,0.0,0.0,0.0,0.0,0.0,0.0,0.0,0.0,0.0,0.0,0.0,0.0,0.0,0.0,0.0,0.0,0.0,0.0,0.0,0.0,0.0,0.0,0.0,0.0,0.0,0.0,0.0,0.0,0.0,0.0,0.0,0.0,0.0,0.0,0.0,0.0,0.0,0.0,0.0,0.0,0.0,0.0,0.0,0.0,0.0,0.0,0.0,0.0,-0.5056,0.0,0.0,0.0,0.0,0.0,0.0,0.0,0.0,0.0,0.0,0.0,0.0,0.0,0.0,0.0,0.0,0.0,0.0,0.0,0.0,0.0,0.0,0.0,0.0,0.0,0.0,0.0,0.0,0.0,0.0,0.0,0.0,0.0,0.0,0.0,0.0,0.0,0.0,0.0,0.0,0.0,0.0,0.0,0.0,0.0,0.0,0.0,0.0,0.0,0.0,0.0,0.0,0.0,0.0,0.0,0.0,0.0,0.0,0.0,0.0,0.0,0.0,0.0,0.0,0.0,0.0,0.0,0.0,0.0,0.0,0.0,0.0,0.0,0.0,0.0,0.0,0.0,0.0,0.0,0.0,0.0,0.0,0.0,0.0,0.0,0.0,0.0,0.0,0.0,0.0,0.0,0.0,0.0,0.0,0.0,0.0,0.0,0.0,0.0,0.0,0.0,0.0,0.0,0.0,0.0,0.0,0.0,0.0,0.0,0.0,-0.6097,-0.6643,-0.6149,-0.5966,-0.6008,0.0,0.0,0.0,0.0,0.0,0.0,0.0,0.0,0.0,0.0,0.0,0.0,0.0,0.0,0.0,0.0,0.0,0.0,0.0,0.0,0.0,0.0,0.0,0.0,0.0,0.0,0.0,0.0,0.0,0.0,0.0,0.0,0.0,0.0,0.0,0.0,0.0,0.0,0.0,0.0,0.0,0.0,0.0,0.0,0.0,0.0,0.0,0.0,0.0,0.0,0.0,0.0,0.0,0.0,0.0,0.0,0.0,0.0,0.0,0.0,0.0,0.0,0.0,0.0,0.0,0.0,0.0,0.0,0.0,0.0,0.0,0.0,0.0,0.0,0.0,0.0,0.0,0.0,0.0,0.0,0.0,0.0,0.0,0.0,0.0,0.0,0.0,0.0,0.0,0.0,0.0,0.0,0.0,0.0,0.0,0.0,0.0,0.0,0.0,0.0,0.0,0.0,0.0,0.0,0.0,0.0,0.0,0.0,0.0,0.0,0.0,0.0,-0.7279,-0.6888,-0.6787,0.0,0.0,0.0,0.0,0.0,0.0,0.0,0.0,0.0,0.0,0.0,0.0,0.0,0.0,0.0,0.0,0.0,0.0,0.0,0.0,0.0,0.0,0.0,0.0,0.0,0.0,0.0,0.0,0.0,0.0,0.0,0.0,0.0,0.0,0.0,0.0,0.0,0.0,0.0,0.0,0.0,0.0,0.0,0.0,0.0,0.0,0.0,0.0,0.0,0.0,0.0,0.0,0.0,0.0,0.0,0.0,0.0,0.0,0.0,0.0,0.0,0.0,0.0,0.0,0.0,0.0,0.0,0.0,0.0,0.0,0.0,0.0,0.0,0.0,0.0,0.0,0.0,0.0,0.0,0.0,0.0,0.0,0.0,0.0,0.0,0.0,0.0,0.0,0.0,0.0,0.0,0.0,0.0,0.0,0.0,0.0,0.0,0.0,0.0,0.0,0.0,0.0,0.0,0.0,0.0,0.0,0.0,0.0,0.0,0.0,-0.8441,-1.0053,-0.8988,0.0,-0.7257,0.0,0.0,0.0,0.0,0.0,0.0,0.0,0.0,0.0,0.0,0.0,0.0,0.0,0.0,0.0,0.0,0.0,0.0,0.0,0.0,0.0,0.0,0.0,0.0,0.0,0.0,0.0,0.0,0.0,0.0,0.0,0.0,0.0,0.0,0.0,0.0,0.0,0.0,0.0,0.0,0.0,0.0,0.0,0.0,0.0,0.0,0.0,0.0,0.0,0.0,0.0,0.0,0.0,0.0,0.0,0.0,0.0,0.0,0.0,0.0,0.0,0.0,0.0,0.0,0.0,0.0,0.0,0.0,0.0,0.0,0.0,0.0,0.0,0.0,0.0,0.0,0.0,0.0,0.0,0.0,0.0,0.0,0.0,0.0,0.0,0.0,0.0,0.0,0.0,0.0,0.0,0.0,0.0,0.0,0.0,0.0,0.0,0.0,0.0,0.0,0.0,0.0,0.0,0.0,0.0,0.0,0.0,0.0,0.0,0.0,-0.9864,-1.143,-1.0229,-0.9167,0.0,0.0,0.0,0.0,0.0,0.0,0.0,0.0,0.0,0.0,0.0,0.0,0.0,0.0,0.0,0.0,0.0,0.0,0.0,0.0,0.0,0.0,0.0,0.0,0.0,0.0,0.0,0.0,0.0,0.0,0.0,0.0,0.0,0.0,0.0,0.0,0.0,0.0,0.0,0.0,0.0,0.0,0.0,0.0,0.0,0.0,0.0,0.0,0.0,0.0,0.0,0.0,0.0,0.0,0.0,0.0,0.0,0.0,0.0,0.0,0.0,0.0,0.0,0.0,0.0,0.0,0.0,0.0,0.0,0.0,0.0,0.0,0.0,0.0,0.0,0.0,0.0,0.0,0.0,0.0,0.0,0.0,0.0,0.0,0.0,0.0,0.0,0.0,0.0,0.0,0.0,0.0,0.0,0.0,0.0,0.0,0.0,0.0,0.0,0.0,0.0,0.0,0.0,0.0,0.0,0.0,0.0,0.0,0.0,0.0,-1.0411,-1.112,-1.2425,-1.1427,-1.0417,-0.9478,0.0,0.0,0.0,0.0,0.0,0.0,0.0,0.0,0.0,0.0,0.0,0.0,0.0,0.0,0.0,0.0,0.0,0.0,0.0,0.0,0.0,0.0,0.0,0.0,0.0,0.0,0.0,0.0,0.0,0.0,0.0,0.0,0.0,0.0,0.0,0.0,0.0,0.0,0.0,0.0,0.0,0.0,0.0,0.0,0.0,0.0,0.0,0.0,0.0,0.0,0.0,0.0,0.0,0.0,0.0,0.0,0.0,0.0,0.0,0.0,0.0,0.0,0.0,0.0,0.0,0.0,0.0,0.0,0.0,0.0,0.0,0.0,0.0,0.0,0.0,0.0,0.0,0.0,0.0,0.0,0.0,0.0,0.0,0.0,0.0,0.0,0.0,0.0,0.0,0.0,0.0,0.0,0.0,0.0,0.0,0.0,0.0,0.0,0.0,0.0,0.0,0.0,0.0,0.0,0.0,0.0,0.0,0.0,-1.1384,-1.1573,-1.222,-1.3424,-1.2824,-1.193,0.0,0.0,0.0,0.0,0.0,0.0,0.0,0.0,0.0,0.0,0.0,0.0,0.0,0.0,0.0,0.0,0.0,0.0,0.0,0.0,0.0,0.0,0.0,0.0,0.0,0.0,0.0,0.0,0.0,0.0,0.0,0.0,0.0,0.0,0.0,0.0,0.0,0.0,0.0,0.0,0.0,0.0,0.0,0.0,0.0,0.0,0.0,0.0,0.0,0.0,0.0,0.0,0.0,0.0,0.0,0.0,0.0,0.0,0.0,0.0,0.0,0.0,0.0,0.0,0.0,0.0,0.0,0.0,0.0,0.0,0.0,0.0,0.0,0.0,0.0,0.0,0.0,0.0,0.0,0.0,0.0,0.0,0.0,0.0,0.0,0.0,0.0,0.0,0.0,0.0,0.0,0.0,0.0,0.0,0.0,0.0,0.0,0.0,0.0,0.0,0.0,0.0,0.0,0.0,0.0,0.0,0.0,0.0,0.0,-1.2945,-1.36,-1.4333,-1.5266,-1.3478,-1.2195,0.0,0.0,0.0,0.0,0.0,0.0,0.0,0.0,0.0,0.0,0.0,0.0,0.0,0.0,0.0,0.0,0.0,0.0,0.0,0.0,0.0,0.0,0.0,0.0,0.0,0.0,0.0,0.0,0.0,0.0,0.0,0.0,0.0,0.0,0.0,0.0,0.0,0.0,0.0,0.0,0.0,0.0,0.0,0.0,0.0,0.0,0.0,0.0,0.0,0.0,0.0,0.0,0.0,0.0,0.0,0.0,0.0,0.0,0.0,0.0,0.0,0.0,0.0,0.0,0.0,0.0,0.0,0.0,0.0,0.0,0.0,0.0,0.0,0.0,0.0,0.0,0.0,0.0,0.0,0.0,0.0,0.0,0.0,0.0,0.0,0.0,0.0,0.0,0.0,0.0,0.0,0.0,0.0,0.0,0.0,0.0,0.0,0.0,0.0,0.0,0.0,0.0,0.0,0.0,0.0,0.0,0.0,0.0,0.0,-1.4505,0.0,-1.6149,-1.6436,-1.4241,-1.2699,0.0,0.0,0.0,0.0,0.0,0.0,0.0,0.0,0.0,0.0,0.0,0.0,0.0,0.0,0.0,0.0,0.0,0.0,0.0,0.0,0.0,0.0,0.0,0.0,0.0,0.0,0.0,0.0,0.0,0.0,0.0,0.0,0.0,0.0,0.0,0.0,0.0,0.0,0.0,0.0,0.0,0.0,0.0,0.0,0.0,0.0,0.0,0.0,0.0,0.0,0.0,0.0,0.0,0.0,0.0,0.0,0.0,0.0,0.0,0.0,0.0,0.0,0.0,0.0,0.0,0.0,0.0,0.0,0.0,0.0,0.0,0.0,0.0,0.0,0.0,0.0,0.0,0.0,0.0,0.0,0.0,0.0,0.0,0.0,0.0,0.0,0.0,0.0,0.0,0.0,0.0,0.0,0.0,0.0,0.0,0.0,0.0,0.0,0.0,0.0,0.0,0.0,0.0,0.0,0.0,0.0,0.0,0.0,-1.3828,-1.5927,-1.7108,-1.744,-1.6822,-1.5186,-1.3558,0.0,0.0,0.0,0.0,0.0,0.0,0.0,0.0,0.0,0.0,0.0,0.0,0.0,0.0,0.0,0.0,0.0,0.0,0.0,0.0,0.0,0.0,0.0,0.0,0.0,0.0,0.0,0.0,0.0,0.0,0.0,0.0,0.0,0.0,0.0,0.0,0.0,0.0,0.0,0.0,0.0,0.0,0.0,0.0,0.0,0.0,0.0,0.0,0.0,0.0,0.0,0.0,0.0,0.0,0.0,0.0,0.0,0.0,0.0,0.0,0.0,0.0,0.0,0.0,0.0,0.0,0.0,0.0,0.0,0.0,0.0,0.0,0.0,0.0,0.0,0.0,0.0,0.0,0.0,0.0,0.0,0.0,0.0,0.0,0.0,0.0,0.0,0.0,0.0,0.0,0.0,0.0,0.0,0.0,0.0,0.0,0.0,0.0,0.0,0.0,0.0,0.0,0.0,0.0,0.0,0.0,0.0,0.0,0.0,-1.663,-1.734,-1.7885,-1.808,-1.5959,-1.4257,0.0,0.0,0.0,0.0,0.0,0.0,0.0,0.0,0.0,0.0,0.0,0.0,0.0,0.0,0.0,0.0,0.0,0.0,0.0,0.0,0.0,0.0,0.0,0.0,0.0,0.0,0.0,0.0,0.0,0.0,0.0,0.0,0.0,0.0,0.0,0.0,0.0,0.0,0.0,0.0,0.0,0.0,0.0,0.0,0.0,0.0,0.0,0.0,0.0,0.0,0.0,0.0,0.0,0.0,0.0,0.0,0.0,0.0,0.0,0.0,0.0,0.0,0.0,0.0,0.0,0.0,0.0,0.0,0.0,0.0,0.0,0.0,0.0,0.0,0.0,0.0,0.0,0.0,0.0,0.0,0.0,0.0,0.0,0.0,0.0,0.0,0.0,0.0,0.0,0.0,0.0,0.0,0.0,0.0,0.0,0.0,0.0,0.0,0.0,0.0,0.0,0.0,0.0,0.0,0.0,0.0,0.0,0.0,0.0,-1.7714,-1.8344,-1.8634,-1.8535,-1.6503,-1.4914,-1.3762,0.0,0.0,0.0,0.0,0.0,0.0,0.0,0.0,0.0,0.0,0.0,0.0,0.0,0.0,0.0,0.0,0.0,0.0,0.0,0.0,0.0,0.0,0.0,0.0,0.0,0.0,0.0,0.0,0.0,0.0,0.0,0.0,0.0,0.0,0.0,0.0,0.0,0.0,0.0,0.0,0.0,0.0,0.0,0.0,0.0,0.0,0.0,0.0,0.0,0.0,0.0,0.0,0.0,0.0,0.0,0.0,0.0,0.0,0.0,0.0,0.0,0.0,0.0,0.0,0.0,0.0,0.0,0.0,0.0,0.0,0.0,0.0,0.0,0.0,0.0,0.0,0.0,0.0,0.0,0.0,0.0,0.0,0.0,0.0,0.0,0.0,0.0,0.0,0.0,0.0,0.0,0.0,0.0,0.0,0.0,0.0,0.0,0.0,0.0,0.0,0.0,0.0,0.0,0.0,0.0,0.0,0.0,0.0,-1.8989,-1.9921,-1.968,-1.8304,-1.6977,-1.551,0.0,0.0,0.0,0.0,0.0,0.0,0.0,0.0,0.0,0.0,0.0,0.0,0.0,0.0,0.0,0.0,0.0,0.0,0.0,0.0,0.0,0.0,0.0,0.0,0.0,0.0,0.0,0.0,0.0,0.0,0.0,0.0,0.0,0.0,0.0,0.0,0.0,0.0,0.0,0.0,0.0,0.0,0.0,0.0,0.0,0.0,0.0,0.0,0.0,0.0,0.0,0.0,0.0,0.0,0.0,0.0,0.0,0.0,0.0,0.0,0.0,0.0,0.0,0.0,0.0,0.0,0.0,0.0,0.0,0.0,0.0,0.0,0.0,0.0,0.0,0.0,0.0,0.0,0.0,0.0,0.0,0.0,0.0,0.0,0.0,0.0,0.0,0.0,0.0,0.0,0.0,0.0,0.0,0.0,0.0,0.0,0.0,0.0,0.0,0.0,0.0,0.0,0.0,0.0,0.0,0.0,0.0,0.0,0.0,-1.8936,-1.9593,-1.9947,-1.9891,-1.7721,-1.6183,0.0,0.0,0.0,0.0,0.0,0.0,0.0,0.0,0.0,0.0,0.0,0.0,0.0,0.0,0.0,0.0,0.0,0.0,0.0,0.0,0.0,0.0,0.0,0.0,0.0,0.0,0.0,0.0,0.0,0.0,0.0,0.0,0.0,0.0,0.0,0.0,0.0,0.0,0.0,0.0,0.0,0.0,0.0,0.0,0.0,0.0,0.0,0.0,0.0,0.0,0.0,0.0,0.0,0.0,0.0,0.0,0.0,0.0,0.0,0.0,0.0,0.0,0.0,0.0,0.0,0.0,0.0,0.0,0.0,0.0,0.0,0.0,0.0,0.0,0.0,0.0,0.0,0.0,0.0,0.0,0.0,0.0,0.0,0.0,0.0,0.0,0.0,0.0,0.0,0.0,0.0,0.0,0.0,0.0,0.0,0.0,0.0,0.0,0.0,0.0,0.0,0.0,0.0,0.0,0.0,0.0,0.0,0.0,-1.8365,-1.8891,-1.9218,-1.958,-2.0022,-1.7937,-1.6471,0.0,0.0,0.0,0.0,0.0,0.0,0.0,0.0,0.0,0.0,0.0,0.0,0.0,0.0,0.0,0.0,0.0,0.0,0.0,0.0,0.0,0.0,0.0,0.0,0.0,0.0,0.0,0.0,0.0,0.0,0.0,0.0,0.0,0.0,0.0,0.0,0.0,0.0,0.0,0.0,0.0,0.0,0.0,0.0,0.0,0.0,0.0,0.0,0.0,0.0,0.0,0.0,0.0,0.0,0.0,0.0,0.0,0.0,0.0,0.0,0.0,0.0,0.0,0.0,0.0,0.0,0.0,0.0,0.0,0.0,0.0,0.0,0.0,0.0,0.0,0.0,0.0,0.0,0.0,0.0,0.0,0.0,0.0,0.0,0.0,0.0,0.0,0.0,0.0,0.0,0.0,0.0,0.0,0.0,0.0,0.0,0.0,0.0,0.0,0.0,0.0,0.0,0.0,0.0,0.0,0.0,0.0,0.0,-1.8515,-1.8865,-1.8795,-1.8884,-1.9106,-1.7785,-1.6459,0.0,0.0,0.0,0.0,0.0,0.0,0.0,0.0,0.0,0.0,0.0,0.0,0.0,0.0,0.0,0.0,0.0,0.0,0.0,0.0,0.0,0.0,0.0,0.0,0.0,0.0,0.0,0.0,0.0,0.0,0.0,0.0,0.0,0.0,0.0,0.0,0.0,0.0,0.0,0.0,0.0,0.0,0.0,0.0,0.0,0.0,0.0,0.0,0.0,0.0,0.0,0.0,0.0,0.0,0.0,0.0,0.0,0.0,0.0,0.0,0.0,0.0,0.0,0.0,0.0,0.0,0.0,0.0,0.0,0.0,0.0,0.0,0.0,0.0,0.0,0.0,0.0,0.0,0.0,0.0,0.0,0.0,0.0,0.0,0.0,0.0,0.0,0.0,0.0,0.0,0.0,0.0,0.0,0.0,0.0,0.0,0.0,0.0,0.0,0.0,0.0,0.0,0.0,0.0,0.0,0.0,0.0,0.0,-1.8341,-1.8789,-1.8502,-1.8316,-1.8249,-1.7213,-1.6389,0.0,0.0,0.0,0.0,0.0,0.0,0.0,0.0,0.0,0.0,0.0,0.0,0.0,0.0,0.0,0.0,0.0,0.0,0.0,0.0,0.0,0.0,0.0,0.0,0.0,0.0,0.0,0.0,0.0,0.0,0.0,0.0,0.0,0.0,0.0,0.0,0.0,0.0,0.0,0.0,0.0,0.0,0.0,0.0,0.0,0.0,0.0,0.0,-0.3258,0.0,0.0,0.0,0.0,0.0,0.0,0.0,0.0,0.0,0.0,0.0,0.0,0.0,0.0,0.0,0.0,0.0,0.0,0.0,0.0,0.0,0.0,0.0,0.0,0.0,0.0,0.0,0.0,0.0,0.0,0.0,0.0,0.0,0.0,0.0,0.0,0.0,0.0,0.0,0.0,0.0,0.0,0.0,0.0,0.0,0.0,0.0,0.0,0.0,0.0,0.0,0.0,0.0,0.0,0.0,0.0,0.0,0.0,0.0,-1.8397,-1.8784,-1.8293,-1.7922,-1.772,-1.6866,-1.6198,0.0,0.0,0.0,0.0,0.0,0.0,0.0,0.0,0.0,0.0,0.0,0.0,0.0,0.0,0.0,0.0,0.0,0.0,0.0,0.0,0.0,0.0,0.0,0.0,0.0,0.0,0.0,0.0,0.0,0.0,0.0,0.0,0.0,0.0,0.0,0.0,0.0,0.0,0.0,0.0,0.0,0.0,0.0,0.0,0.0,0.0,0.0,0.0,0.0,0.0,0.0,0.0,0.0,0.0,0.0,0.0,0.0,0.0,0.0,0.0,0.0,0.0,0.0,0.0,0.0,0.0,0.0,0.0,0.0,0.0,0.0,0.0,0.0,0.0,0.0,0.0,0.0,0.0,0.0,0.0,0.0,0.0,0.0,0.0,0.0,0.0,0.0,0.0,0.0,0.0,0.0,0.0,0.0,0.0,0.0,0.0,0.0,0.0,0.0,0.0,0.0,0.0,0.0,0.0,0.0,0.0,0.0,-1.8542,-1.8606,-1.8707,-1.8108,-1.7652,-1.7381,-1.6509,-1.5881,-1.5501,0.0,0.0,0.0,0.0,0.0,0.0,0.0,0.0,0.0,0.0,0.0,0.0,0.0,0.0,0.0,0.0,0.0,0.0,0.0,0.0,0.0,0.0,0.0,0.0,0.0,0.0,0.0,0.0,0.0,0.0,0.0,0.0,0.0,0.0,0.0,0.0,0.0,0.0,-0.3913,-0.4549,0.0,0.0,0.0,0.0,0.0,0.0,0.0,0.0,-0.6766,0.0,0.0,0.0,0.0,0.0,0.0,0.0,0.0,0.0,0.0,0.0,0.0,0.0,0.0,0.0,0.0,0.0,0.0,0.0,0.0,0.0,0.0,0.0,0.0,0.0,0.0,0.0,0.0,0.0,0.0,0.0,0.0,0.0,0.0,0.0,0.0,0.0,0.0,0.0,0.0,0.0,0.0,0.0,0.0,0.0,0.0,0.0,0.0,0.0,0.0,0.0,0.0,0.0,0.0,0.0,0.0,-1.8745,-1.876,-1.8669,-1.8553,-1.7961,-1.7394,-1.6909,-1.5944,-1.5345,-1.5153,0.0,0.0,0.0,0.0,0.0,0.0,0.0,0.0,0.0,0.0,0.0,0.0,0.0,0.0,0.0,0.0,0.0,0.0,0.0,0.0,0.0,0.0,0.0,0.0,0.0,0.0,0.0,0.0,0.0,0.0,0.0,0.0,0.0,0.0,0.0,0.0,0.0,0.0,0.0,-0.5332,-0.6018,0.0,0.0,0.0,0.0,0.0,0.0,0.0,0.0,-0.7963,0.0,0.0,0.0,0.0,0.0,0.0,0.0,0.0,0.0,0.0,0.0,0.0,0.0,0.0,0.0,0.0,0.0,0.0,0.0,0.0,0.0,0.0,0.0,0.0,0.0,0.0,0.0,0.0,0.0,0.0,0.0,0.0,0.0,0.0,0.0,0.0,0.0,0.0,0.0,0.0,0.0,0.0,0.0,0.0,0.0,0.0,0.0,0.0,0.0,0.0,0.0,0.0,0.0,0.0,0.0,-1.895,-1.8745,-1.8553,-1.8397,-1.768,-1.7105,-1.6765,-1.5824,-1.521,0.0,0.0,0.0,0.0,0.0,0.0,0.0,0.0,0.0,0.0,0.0,0.0,0.0,0.0,0.0,0.0,0.0,0.0,0.0,0.0,0.0,0.0,0.0,0.0,0.0,0.0,0.0,0.0,0.0,0.0,0.0,0.0,0.0,0.0,0.0,0.0,0.0,0.0,0.0,0.0,-0.5845,-0.6559,-0.6997,0.0,0.0,0.0,0.0,0.0,0.0,-0.8392,-0.8592,0.0,0.0,0.0,0.0,0.0,0.0,0.0,0.0,0.0,0.0,0.0,0.0,0.0,0.0,0.0,0.0,0.0,0.0,0.0,0.0,0.0,0.0,0.0,0.0,0.0,0.0,0.0,0.0,0.0,0.0,0.0,0.0,0.0,0.0,0.0,0.0,0.0,0.0,0.0,0.0,0.0,0.0,0.0,0.0,0.0,0.0,0.0,0.0,0.0,0.0,0.0,0.0,0.0,0.0,0.0,-1.895,-1.8539,-1.8266,-1.8068,-1.738,-1.6837,-1.6595,-1.5748,-1.521,0.0,0.0,0.0,0.0,0.0,0.0,0.0,0.0,0.0,0.0,0.0,0.0,0.0,0.0,0.0,0.0,0.0,0.0,0.0,0.0,0.0,0.0,0.0,0.0,0.0,0.0,0.0,0.0,0.0,0.0,0.0,0.0,0.0,0.0,0.0,0.0,0.0,0.0,0.0,0.0,0.0,-0.7343,-0.7869,-0.8074,0.0,0.0,0.0,0.0,-0.8902,-0.9007,0.0,0.0,0.0,0.0,0.0,0.0,0.0,0.0,0.0,0.0,0.0,0.0,0.0,0.0,0.0,0.0,0.0,0.0,0.0,0.0,0.0,0.0,0.0,0.0,0.0,0.0,0.0,0.0,0.0,0.0,0.0,0.0,0.0,0.0,0.0,0.0,0.0,0.0,0.0,0.0,0.0,0.0,0.0,0.0,0.0,0.0,0.0,0.0,0.0,0.0,0.0,0.0,0.0,0.0,0.0,0.0,-1.8553,-1.8001,-1.7558,-1.7323,-1.7005,-1.6637,-1.6275,-1.5513,-1.5108,0.0,0.0,0.0,0.0,0.0,0.0,0.0,0.0,0.0,0.0,0.0,0.0,0.0,0.0,0.0,0.0,0.0,0.0,0.0,0.0,0.0,0.0,0.0,0.0,0.0,0.0,0.0,0.0,0.0,0.0,0.0,0.0,0.0,0.0,0.0,0.0,0.0,0.0,0.0,0.0,0.0,-0.892,-0.8832,-0.9047,-0.9363,0.0,0.0,-0.9754,-1.0444,-1.0282,0.0,0.0,0.0,0.0,0.0,0.0,0.0,0.0,0.0,0.0,0.0,0.0,0.0,0.0,0.0,0.0,0.0,0.0,0.0,0.0,0.0,0.0,0.0,0.0,0.0,0.0,0.0,0.0,0.0,0.0,0.0,0.0,0.0,0.0,0.0,0.0,0.0,0.0,0.0,0.0,0.0,0.0,0.0,0.0,0.0,0.0,0.0,0.0,0.0,0.0,0.0,0.0,0.0,0.0,0.0,-1.824,-1.8068,-1.7612,-1.7256,-1.6976,-1.6637,-1.6318,-1.5969,-1.5424,-1.5119,0.0,0.0,0.0,0.0,0.0,0.0,0.0,0.0,0.0,0.0,0.0,0.0,0.0,0.0,0.0,0.0,0.0,0.0,0.0,0.0,0.0,0.0,0.0,0.0,0.0,0.0,0.0,0.0,0.0,0.0,0.0,0.0,0.0,0.0,0.0,0.0,0.0,0.0,0.0,0.0,0.0,0.0,-1.0144,-1.0623,0.0,0.0,0.0,-1.0827,-1.069,0.0,0.0,0.0,0.0,0.0,0.0,0.0,0.0,0.0,0.0,0.0,0.0,0.0,0.0,0.0,0.0,0.0,0.0,0.0,0.0,0.0,0.0,0.0,0.0,0.0,0.0,0.0,0.0,0.0,0.0,0.0,0.0,0.0,0.0,0.0,0.0,0.0,0.0,0.0,0.0,0.0,0.0,0.0,0.0,0.0,0.0,0.0,0.0,0.0,0.0,0.0,0.0,0.0,0.0,0.0,0.0,0.0,-1.7571,-1.7186,-1.6863,-1.668,-1.6306,-1.6057,-1.5836,-1.5379,0.0,0.0,0.0,0.0,0.0,0.0,0.0,0.0,0.0,0.0,0.0,0.0,0.0,0.0,0.0,0.0,0.0,0.0,0.0,0.0,0.0,0.0,0.0,0.0,0.0,0.0,0.0,-0.4899,0.0,0.0,0.0,0.0,0.0,0.0,0.0,0.0,0.0,0.0,0.0,0.0,0.0,0.0,-1.0467,-1.1115,-1.1598,-1.1747,0.0,0.0,-1.1554,-1.1059,-1.1152,-1.1373,0.0,0.0,0.0,0.0,0.0,0.0,0.0,0.0,0.0,0.0,0.0,0.0,0.0,0.0,0.0,0.0,0.0,0.0,0.0,0.0,0.0,0.0,0.0,0.0,0.0,0.0,0.0,0.0,0.0,0.0,0.0,0.0,0.0,0.0,0.0,0.0,0.0,0.0,0.0,0.0,0.0,0.0,0.0,0.0,0.0,0.0,0.0,0.0,0.0,0.0,0.0,0.0,0.0,0.0,-1.7476,-1.7047,-1.6522,-1.6275,-1.6244,-1.6088,-1.6001,-1.5988,-1.5412,-1.5119,0.0,0.0,0.0,0.0,0.0,0.0,0.0,0.0,0.0,0.0,0.0,0.0,0.0,0.0,0.0,0.0,0.0,0.0,0.0,0.0,0.0,0.0,0.0,0.0,0.0,0.0,0.0,0.0,0.0,0.0,0.0,0.0,0.0,0.0,0.0,0.0,0.0,0.0,0.0,0.0,0.0,-1.1752,-1.1413,-1.1368,-1.1533,0.0,-1.176,-1.1721,-1.1974,-1.1981,-1.1996,-1.2058,0.0,0.0,0.0,0.0,0.0,0.0,0.0,0.0,0.0,0.0,0.0,0.0,0.0,0.0,0.0,0.0,0.0,0.0,0.0,0.0,0.0,0.0,0.0,0.0,0.0,0.0,0.0,0.0,0.0,0.0,0.0,0.0,0.0,0.0,0.0,0.0,0.0,0.0,0.0,0.0,0.0,0.0,0.0,0.0,0.0,0.0,0.0,0.0,0.0,0.0,0.0,0.0,0.0,-1.7034,-1.6637,-1.6362,-1.6144,-1.6088,-1.6032,-1.5901,-1.568,-1.5334,-1.5017,0.0,0.0,0.0,0.0,0.0,0.0,0.0,0.0,0.0,0.0,0.0,0.0,0.0,0.0,0.0,0.0,0.0,0.0,0.0,0.0,0.0,0.0,0.0,0.0,0.0,0.0,0.0,0.0,-0.8518,-0.9085,-0.9776,0.0,0.0,0.0,0.0,0.0,0.0,0.0,0.0,0.0,0.0,-1.2533,-1.2682,-1.305,0.0,0.0,-1.2728,-1.2687,-1.2166,-1.1882,-1.1806,-1.2089,-1.1821,0.0,0.0,0.0,0.0,0.0,0.0,0.0,0.0,0.0,0.0,0.0,0.0,0.0,0.0,0.0,0.0,0.0,0.0,0.0,0.0,0.0,0.0,0.0,0.0,0.0,0.0,0.0,0.0,0.0,0.0,0.0,0.0,0.0,0.0,0.0,0.0,0.0,0.0,0.0,0.0,0.0,0.0,0.0,0.0,0.0,0.0,0.0,0.0,0.0,0.0,0.0,0.0,-1.6918,-1.6374,-1.6188,-1.6015,-1.5683,-1.5556,-1.5428,-1.5277,-1.5012,-1.4812,0.0,0.0,0.0,0.0,0.0,0.0,0.0,0.0,0.0,0.0,0.0,0.0,0.0,0.0,0.0,0.0,0.0,0.0,0.0,0.0,0.0,0.0,0.0,0.0,0.0,0.0,0.0,0.0,-1.0303,-1.0763,-1.1133,0.0,0.0,0.0,0.0,0.0,0.0,0.0,0.0,0.0,0.0,-1.327,-1.3468,-1.3872,-1.3932,-1.3094,-1.3398,-1.3381,-1.2666,-1.2216,-1.2025,-1.2328,0.0,0.0,0.0,0.0,0.0,0.0,0.0,0.0,0.0,0.0,0.0,0.0,0.0,0.0,0.0,0.0,0.0,0.0,0.0,0.0,0.0,0.0,0.0,0.0,0.0,0.0,0.0,-1.7599,0.0,0.0,-1.6105,0.0,0.0,0.0,0.0,0.0,0.0,0.0,0.0,0.0,0.0,0.0,0.0,0.0,0.0,0.0,0.0,0.0,0.0,0.0,0.0,0.0,0.0,-1.7244,-1.62,-1.6076,-1.5659,-1.5037,-1.4562,-1.448,-1.4693,-1.4459,-1.4383,-1.4547,0.0,0.0,0.0,0.0,0.0,0.0,0.0,0.0,0.0,0.0,0.0,0.0,0.0,0.0,0.0,0.0,0.0,0.0,0.0,0.0,0.0,0.0,0.0,0.0,0.0,0.0,-1.1191,-1.1701,-1.2058,0.0,0.0,0.0,0.0,0.0,0.0,0.0,0.0,0.0,-1.3645,-1.3812,-1.3863,-1.3571,-1.3502,-1.3571,-1.3502,-1.3519,-1.3511,-1.345,-1.3139,-1.2972,0.0,0.0,0.0,0.0,0.0,0.0,0.0,0.0,0.0,0.0,0.0,0.0,0.0,0.0,0.0,0.0,0.0,0.0,0.0,0.0,0.0,0.0,0.0,0.0,0.0,0.0,0.0,-2.0795,-1.9211,0.0,0.0,0.0,0.0,0.0,0.0,0.0,0.0,0.0,0.0,0.0,-1.9795,-2.0018,0.0,0.0,0.0,0.0,0.0,0.0,0.0,0.0,0.0,0.0,0.0,0.0,-1.6536,-1.6188,-1.5617,-1.5223,-1.5001,-1.4708,-1.4352,-1.3981,-1.405,-1.4038,-1.3869,0.0,0.0,0.0,0.0,0.0,0.0,0.0,0.0,0.0,0.0,0.0,0.0,0.0,0.0,0.0,0.0,0.0,0.0,0.0,0.0,0.0,0.0,0.0,0.0,0.0,-1.1669,0.0,0.0,0.0,0.0,0.0,0.0,0.0,0.0,0.0,0.0,0.0,-1.4439,-1.4846,-1.468,-1.4419,-1.4198,-1.4198,-1.407,0.0,0.0,0.0,0.0,0.0,0.0,0.0,0.0,0.0,0.0,0.0,0.0,0.0,0.0,-1.3371,-1.3177,-1.3292,-1.3427,-1.3701,0.0,0.0,0.0,0.0,0.0,0.0,0.0,0.0,0.0,0.0,0.0,0.0,0.0,0.0,-2.1332,0.0,-1.9455,0.0,0.0,0.0,0.0,0.0,0.0,0.0,0.0,-2.1524,-2.1566,-2.096,-2.0909,-2.0776,0.0,-2.032,-1.9744,0.0,0.0,0.0,0.0,0.0,0.0,0.0,0.0,-1.647,-1.6357,-1.5671,-1.5066,-1.4666,-1.4328,-1.3877,-1.3231,-1.3571,-1.3619,-1.3363,-1.3419,-1.3467,0.0,0.0,0.0,0.0,0.0,0.0,0.0,0.0,0.0,0.0,0.0,0.0,0.0,0.0,0.0,0.0,0.0,0.0,0.0,0.0,0.0,0.0,0.0,-1.2377,0.0,0.0,0.0,0.0,0.0,0.0,0.0,0.0,0.0,-1.5644,-1.5216,-1.5214,-1.5842,-1.5251,-1.4771,-1.481,0.0,0.0,0.0,0.0,0.0,0.0,0.0,-1.358,-1.3172,-1.2955,-1.2862,-1.2927,-1.3314,-1.365,-1.3862,0.0,0.0,-1.3939,-1.3993,-1.4132,-1.4421,-1.4605,-1.4607,-1.4395,-1.4379,-1.4429,0.0,0.0,0.0,0.0,0.0,0.0,0.0,0.0,-2.0527,-2.0325,0.0,-2.0039,0.0,0.0,0.0,0.0,0.0,-2.0347,0.0,0.0,-2.1315,-2.1623,-2.196,-2.1135,-2.089,-2.1121,-2.1019,-2.0483,-1.9534,-1.8746,0.0,0.0,0.0,0.0,0.0,0.0,-1.6858,-1.6718,-1.6086,-1.5191,-1.404,-1.3497,-1.2985,-1.2519,-1.2989,-1.3155,-1.3062,-1.2842,-1.2764,-1.2783,-1.1669,0.0,0.0,0.0,0.0,0.0,0.0,0.0,0.0,0.0,0.0,0.0,0.0,0.0,0.0,0.0,0.0,0.0,0.0,0.0,0.0,-1.2229,0.0,0.0,0.0,0.0,0.0,0.0,0.0,0.0,0.0,0.0,-1.589,-1.5969,-1.6189,-1.65,0.0,0.0,0.0,0.0,-1.4684,-1.4533,-1.4533,-1.4543,-1.4455,-1.4207,-1.4028,-1.395,0.0,0.0,-1.3592,-1.384,-1.4093,-1.4132,-1.4418,-1.4569,-1.4425,-1.4587,-1.4879,-1.5133,-1.5397,-1.5651,-1.57,-1.5585,-1.5737,-2.5854,0.0,0.0,0.0,0.0,-2.2148,-2.1936,-2.1784,-2.2016,-2.1522,-2.0629,-2.042,0.0,0.0,0.0,0.0,0.0,0.0,-2.1704,-2.1666,-2.0906,-2.0478,-2.0355,-1.9978,-1.9677,-1.9321,-1.905,-1.8783,-1.844,-1.7955,-1.7644,-1.7594,0.0,0.0,0.0,0.0,-1.5799,-1.5891,-1.5306,-1.4599,-1.3738,-1.3385,-1.2883,-1.2221,-1.1902,-1.1812,-1.2047,-1.1918,-1.2117,-1.2586,-1.18,0.0,0.0,0.0,0.0,0.0,0.0,0.0,0.0,0.0,0.0,0.0,0.0,0.0,0.0,0.0,0.0,0.0,0.0,0.0,-1.3562,-1.3747,-1.4101,0.0,0.0,0.0,0.0,0.0,0.0,0.0,0.0,0.0,-1.709,-1.6776,-1.6636,0.0,0.0,-1.6023,-1.5993,-1.5538,-1.5153,-1.5163,-1.498,0.0,-1.4234,-1.4502,-1.4522,-1.3735,-1.3398,-1.324,-1.3534,-1.3667,-1.3902,-1.4387,-1.4577,-1.4569,-1.4577,-1.4648,-1.4727,-1.4792,-1.5081,-1.5353,-1.5345,-1.5547,-1.591,-2.6658,-2.5515,-2.4117,-2.3138,-2.2639,-2.2512,-2.2278,-2.2072,-2.2208,-2.1815,-2.1096,-2.0928,-2.083,-2.0716,-2.0716,0.0,0.0,0.0,-2.2005,-2.1664,-2.0202,-1.9448,-1.9261,-1.8955,-1.8754,-1.8516,-1.8295,-1.8024,-1.775,-1.7786,-1.755,-1.7099,0.0,0.0,-1.6349,-1.5695,-1.5632,-1.6071,-1.5292,-1.4627,-1.4101,-1.3421,-1.2676,-1.1933,-1.155,-1.142,-1.1528,-1.1269,-1.1518,-1.2253,-1.1665,-1.1366,0.0,0.0,0.0,0.0,0.0,0.0,0.0,0.0,0.0,0.0,0.0,-1.105,-1.097,0.0,0.0,0.0,-1.2814,-1.3515,-1.4535,-1.4632,0.0,0.0,0.0,0.0,0.0,0.0,0.0,-1.7066,-1.7581,-1.7823,-1.7579,-1.736,-1.7268,-1.7445,-1.697,-1.6465,-1.6256,0.0,-1.5397,-1.5065,-1.4924,-1.472,-1.4303,-1.4578,-1.459,-1.3795,-1.3464,-1.3383,-1.3737,-1.3822,-1.3989,-1.4411,-1.4569,-1.4569,-1.4569,-1.4569,-1.4569,-1.4569,-1.4919,-1.5196,-1.5409,-1.5692,-1.6166,-2.6811,-2.6665,-2.4838,-2.3378,-2.2233,-2.2161,-2.203,-2.1807,-2.152,-2.141,-2.141,-2.141,-2.141,-2.141,-2.1664,0.0,-2.1423,-2.1945,-2.1849,-2.1299,-1.9551,-1.8665,-1.8567,-1.8131,-1.8022,-1.819,-1.819,-1.7875,-1.7328,-1.7875,-1.752,-1.6279,-1.65,-1.6592,-1.6441,-1.5837,-1.5897,-1.6691,-1.5625,-1.4992,-1.4769,-1.3452,-1.2425,-1.165,-1.1693,-1.158,-1.1302,-1.0885,-1.0954,-1.1665,-1.125,-1.1138,-1.1495,0.0,0.0,0.0,0.0,0.0,0.0,0.0,0.0,0.0,0.0,0.0,0.0,0.0,0.0,0.0,-1.3184,0.0,-1.4796,-1.5123,0.0,0.0,0.0,-1.6821,-1.707,-1.7288,-1.7301,-1.7129,0.0,0.0,-1.748,-1.7773,-1.8008,-1.8008,-1.7229,-1.6641,-1.6313,-1.586,-1.5322,-1.4713,-1.4543,-1.4524,-1.4455,-1.4474,-1.4294,-1.3899,-1.3774,-1.3686,-1.3925,-1.4074,-1.4228,-1.4577,-1.4569,-1.4569,-1.4569,-1.4569,-1.4569,-1.4569,-1.4919,-1.5346,-1.5692,-1.6061,-1.6475,-2.6454,-2.664,-2.4812,-2.3315,-2.2186,-2.1971,-2.1841,-2.1793,-2.1506,-2.141,-2.141,-2.141,-2.141,-2.141,-2.1471,-2.1471,-2.1423,-2.1537,-2.1542,-2.1354,-2.032,-1.866,-1.6587,-1.7219,-1.7121,-1.6459,-1.6422,-1.6345,-1.6176,-1.6197,-1.6047,-1.5702,-1.5554,-1.5463,-1.5451,-1.4875,-1.4798,-1.5245,-1.4959,-1.4496,-1.3828,-1.2947,-1.2201,-1.1596,-1.1246,-1.0895,-1.0637,-1.0165,-1.0375,-1.1201,-1.0977,-1.1081,-1.1526,-1.1184,0.0,0.0,0.0,0.0,0.0,0.0,0.0,0.0,0.0,-1.2197,-1.1982,0.0,-1.3332,0.0,-1.4231,-1.5194,-1.6389,-1.6194,0.0,0.0,-1.7184,-1.7175,-1.7693,-1.7632,-1.7583,-1.7742,-1.7881,-1.7969,-1.7871,-1.7949,-1.793,-1.7774,-1.734,-1.7002,-1.6852,-1.6031,-1.5364,-1.5172,-1.475,-1.4524,-1.4455,-1.4267,-1.395,-1.3346,-1.3464,-1.363,-1.3727,-1.3938,-1.422,-1.4561,-1.4569,-1.4569,-1.4569,-1.4569,-1.4569,-1.4641,-1.4919,-1.5346,-1.5692,-1.6061,-1.6404,-2.5357,-2.5601,-2.4103,-2.281,-2.1835,-2.1828,-2.1759,-2.1602,-2.1471,-2.141,-2.141,-2.141,-2.141,-2.141,-2.141,-2.141,-2.1388,-2.1403,-2.1193,-2.0809,-1.9571,-1.8081,-1.6551,-1.661,-1.6356,-1.5804,-1.5691,-1.5647,-1.5647,-1.5424,-1.5244,-1.5153,-1.4971,-1.488,-1.4777,-1.4564,-1.4575,-1.4776,-1.4558,-1.4185,-1.3627,-1.2989,-1.2474,-1.2119,-1.1196,-1.072,-1.0881,-1.0248,-1.0339,-1.1318,-1.1322,-1.1475,-1.1873,-1.158,-1.1261,0.0,0.0,0.0,0.0,0.0,0.0,0.0,0.0,0.0,0.0,0.0,-1.4088,-1.4851,-1.5445,-1.6141,-1.7042,-1.6967,-1.713,-1.7804,-1.7578,-1.7612,-1.7959,-1.786,-1.7811,-1.7978,-1.8008,-1.8008,-1.8008,-1.793,-1.7862,-1.7696,-1.7216,-1.6826,-1.6607,-1.5867,-1.5336,-1.5028,-1.4703,-1.4515,-1.4515,-1.4207,-1.3882,-1.3566,-1.3509,-1.3679,-1.3787,-1.3974,-1.4228,-1.4482,-1.4569,-1.4569,-1.4569,-1.4418,-1.4266,-1.4201,-1.4201,-1.441,-1.4982,-1.5168,-1.5308,-2.4053,-2.4127,-2.3167,-2.2237,-2.1448,-2.1636,-2.1602,-2.141,-2.141,-2.141,-2.141,-2.141,-2.141,-2.141,-2.141,-2.1375,-2.134,-2.1368,-2.099,-2.0101,-1.8411,-1.7448,-1.7135,-1.6344,-1.5879,-1.576,-1.5558,-1.5468,-1.5424,-1.5153,-1.4926,-1.4708,-1.4651,-1.4558,-1.4373,-1.4512,-1.4684,-1.4764,-1.4326,-1.3978,-1.381,-1.3256,-1.2861,-1.2657,-1.135,-1.0839,-1.1305,-1.0567,-1.06,-1.1654,-1.1724,-1.1879,-1.2205,-1.191,-1.1665,0.0,-1.1364,0.0,0.0,0.0,0.0,0.0,0.0,0.0,0.0,-1.3672,-1.4834,-1.6102,-1.6412,-1.6722,-1.7101,-1.7427,-1.7706,-1.7706,-1.7862,-1.794,-1.794,-1.794,-1.794,-1.794,-1.794,-1.793,-1.794,-1.7784,-1.7647,-1.7531,-1.6949,-1.6412,-1.602,-1.561,-1.5148,-1.457,-1.4524,-1.4465,-1.4276,-1.4096,-1.3883,-1.3805,-1.3658,-1.3664,-1.397,-1.4117,-1.4291,-1.449,-1.4569,-1.4569,-1.4569,-1.4201,-1.3833,-1.3833,-1.3375,-1.3264,-1.4003,-1.4096,-1.4026,-2.3463,-2.3381,-2.2674,-2.2028,-2.1419,-2.1434,-2.1458,-2.141,-2.141,-2.141,-2.141,-2.141,-2.141,-2.141,-2.141,-2.1202,-2.0921,-2.1266,-2.0989,-2.0168,-1.916,-1.776,-1.6164,-1.6631,-1.6397,-1.5593,-1.5289,-1.5198,-1.5153,-1.488,-1.4754,-1.4708,-1.4419,-1.4269,-1.4222,0.0,0.0,0.0,-1.402,-1.3879,-1.3763,-1.316,-1.256,-1.2021,-1.1575,0.0,-1.0554,-1.0579,-1.0838,-1.1219,-1.1249,0.0,0.0,0.0,0.0,0.0,0.0,0.0,0.0,0.0,0.0,0.0,-1.3124,-1.3495,-1.3717,-1.4738,-1.5624,-1.6223,-1.6333,-1.6575,-1.7086,-1.7404,-1.7588,-1.7716,-1.7706,-1.7716,-1.7784,-1.7784,-1.7716,-1.7608,-1.7657,-1.7716,-1.7608,-1.7539,-1.7461,-1.7267,-1.6609,-1.6076,-1.5781,-1.5403,-1.5007,-1.4598,-1.4483,-1.4192,-1.3415,-1.3596,-1.357,-1.3099,-1.334,-1.3571,-1.3711,-1.4196,-1.453,-1.4569,-1.4569,-1.4569,-1.4569,-1.4194,-1.3688,-1.376,-1.3075,-1.2797,-1.3686,-1.3804,-1.3863,-2.2568,-2.2482,-2.2065,-2.1691,0.0,-2.1345,-2.1326,-2.1277,-2.1326,-2.1277,-2.1229,-2.118,-2.1229,-2.118,-2.0908,-2.0696,-2.051,-2.0682,-2.0615,-2.0135,-1.9073,-1.7761,-1.6261,-1.64,-1.6056,-1.53,-1.5006,-1.4891,-1.488,-1.4605,-1.4466,-1.4455,-1.4244,-1.4104,-1.4093,-1.4031,-1.3984,-1.3915,-1.3879,-1.3736,-1.3314,-1.2667,-1.2212,-1.2052,-1.1284,0.0,0.0,0.0,0.0,0.0,0.0,0.0,0.0,0.0,0.0,-1.1548,-1.1526,-1.163,-1.1904,-1.2221,-1.249,-1.2621,-1.3418,-1.4118,-1.4615,-1.5438,-1.6232,-1.6686,-1.6742,-1.6884,-1.7285,-1.7461,-1.7529,-1.7588,-1.7588,-1.7588,-1.7588,-1.7588,-1.7598,-1.7529,-1.752,-1.7588,-1.7529,-1.7392,-1.7314,-1.7207,-1.6596,-1.5983,-1.5486,-1.506,-1.4656,-1.4294,-1.4174,-1.3942,-1.3415,-1.3363,-1.3464,-1.3198,-1.3502,-1.3824,-1.3823,-1.4275,-1.4497,-1.4274,-1.4201,-1.4129,-1.3768,-1.3324,-1.2886,-1.2813,-1.2256,-1.2024,-1.2705,-1.2975,-1.3074,-2.1793,-2.1712,-2.1458,-2.1375,-2.1375,-2.1215,-2.1144,-2.1144,0.0,0.0,0.0,-2.0997,-2.0997,-2.0947,-2.0446,-2.0144,-2.0105,-2.0097,-1.997,-1.976,-1.856,-1.7444,-1.655,-1.609,-1.5599,-1.5028,-1.4743,-1.4605,-1.4605,-1.4316,-1.4186,-1.4129,-1.4057,-1.3926,-1.3915,-1.3794,-1.3689,-1.3563,-1.3563,-1.3304,-1.2754,-1.2021,-1.1766,-1.1982,-1.0941,-1.0834,-1.1768,-1.145,-1.1343,-1.1725,-1.1802,-1.1747,-1.1747,-1.1747,-1.1747,-1.1622,-1.174,-1.1864,-1.2058,-1.2182,-1.2422,-1.2797,-1.3664,-1.4563,-1.5333,-1.5972,-1.6551,-1.707,-1.7176,-1.7254,-1.7392,-1.7392,-1.7461,-1.7461,-1.7461,-1.747,-1.7461,-1.7461,-1.7401,-1.7401,-1.7401,-1.7401,-1.7401,-1.7185,-1.7028,-1.6964,-1.6373,-1.5755,-1.5021,-1.455,-1.4165,-1.3838,-1.3735,-1.3614,-1.3398,-1.3191,-1.3186,-1.3317,-1.3623,-1.3949,-1.4034,-1.4175,-1.4181,-1.3905,-1.376,-1.347,-1.2973,-1.2526,-1.2003,-1.2009,-1.1608,-1.1317,-1.1745,-1.2095,-1.2383,-2.1855,-2.1423,-2.1277,-2.1229,-2.1229,-2.1082,-2.101,-2.0938,-2.101,-2.1046,-2.0997,-2.0997,-2.0997,-2.0983,-2.0446,-1.9991,-1.9668,-1.958,-1.9114,-1.836,-1.7727,-1.6905,-1.597,-1.6126,-1.5736,-1.4799,-1.4419,-1.4269,-1.428,-1.4104,-1.401,-1.401,-1.3915,-1.3773,-1.361,-1.3092,-1.2793,-1.2764,-1.2416,-1.2368,-1.2609,-1.1633,-1.1006,-1.0861,-1.0771,-1.0721,-1.0825,-1.1247,-1.1578,-1.1622,-1.1622,-1.1622,-1.1622,-1.1615,-1.1622,-1.1622,-1.1747,-1.1809,-1.1864,-1.2112,-1.2617,-1.3378,-1.3942,-1.4621,-1.5578,-1.6067,-1.6498,-1.6899,-1.6899,-1.6978,-1.6978,-1.7107,-1.7235,-1.7245,-1.7235,-1.7245,-1.7245,-1.7245,-1.7176,-1.7047,-1.7107,-1.7176,-1.7047,-1.67,-1.6464,-1.6296,-1.5475,-1.4534,-1.3967,-1.3649,-1.3519,-1.3224,-1.3241,-1.3136,-1.2867,-1.2736,-1.2776,-1.2747,-1.3076,-1.3298,-1.3526,-1.3493,-1.3446,-1.37,-1.3237,-1.2959,-1.2746,-1.2378,-1.1929,-1.1868,-1.1558,-1.139,-1.1528,-1.1894,-1.2284,-2.152,-2.1277,-2.1131,-2.1095,-2.1082,-2.0961,-2.0861,-2.0825,-2.0812,-2.0848,-2.0848,-2.0835,-2.0848,-2.0749,-1.9952,-1.9448,-1.9251,-1.8565,-1.8032,-1.7656,-1.7413,-1.6677,-1.5687,-1.5811,-1.5362,-1.4323,-1.4197,-1.4093,-1.4104,-1.3962,-1.3879,-1.3868,-1.3668,-1.3573,-1.3467,-1.2793,-1.2444,-1.2463,-1.1871,-1.1576,-1.1625,-1.1082,-1.068,-1.0461,-1.0624,-1.0725,-1.085,-1.1372,-1.1622,-1.1622,-1.1622,-1.1622,-1.1622,-1.1622,-1.1622,-1.1622,-1.1685,-1.1685,-1.1802,-1.212,-1.2578,-1.3209,-1.3629,-1.4205,-1.5027,-1.5687,-1.6193,-1.6551,-1.656,-1.6691,-1.6908,-1.6978,-1.7038,-1.7038,-1.7038,-1.7038,-1.7047,-1.7038,-1.6968,-1.6908,-1.6968,-1.6987,-1.6894,-1.6517,-1.6018,-1.5498,-1.4446,-1.3492,-1.2923,-1.2466,-1.2405,-1.2858,-1.2928,-1.2813,-1.2621,-1.2621,-1.2621,-1.2621,-1.2601,-1.2657,-1.2659,-1.2546,-1.2346,-1.2096,-1.1806,-1.162,-1.1409,-1.1037,-1.0962,-1.1123,-1.1115,-1.103,-1.1134,-1.1376,-1.1784,-2.1131,-2.1131,-2.1046,-2.0947,-2.0934,-2.0825,-2.0775,-2.0662,-2.0599,-2.0612,-2.0599,-2.0498,-2.0435,-2.0334,-1.9226,-1.8709,-1.856,-1.7723,-1.73,-1.73,-1.7025,-1.6332,-1.5465,-1.5389,-1.4917,-1.4095,-1.3973,-1.3973,-1.3926,-1.3821,-1.3716,-1.3716,-1.3515,-1.3324,-1.317,-1.2502,-1.211,-1.1963,-1.1256,-1.0872,-1.0736,-1.0533,-1.0345,-1.0282,-1.0482,-1.0741,-1.1063,-1.1392,-1.1622,-1.1622,-1.1622,-1.1622,-1.1622,-1.1622,-1.1622,-1.1622,-1.1622,-1.1685,-1.1802,-1.205,-1.2398,-1.2811,-1.327,-1.3803,-1.4413,-1.5121,-1.57,-1.6123,-1.6202,-1.6342,-1.6551,-1.6621,-1.6691,-1.6621,-1.6621,-1.6551,-1.6473,-1.6473,-1.6403,-1.6324,-1.6254,-1.6202,-1.6167,-1.5869,-1.5083,-1.4026,-1.3092,-1.236,-1.1932,-1.1226,-1.1288,-1.1911,-1.2236,-1.205,-1.205,-1.1988,-1.1926,-1.1988,-1.1806,-1.1654,-1.1535,-1.1499,-1.1275,-1.0748,-1.0578,-1.0502,-1.0045,-0.9922,-1.0067,-1.0368,-1.0385,-1.0453,-1.07,-1.0906,-1.1238,-2.1033,-2.0997,-2.0911,-2.0825,-2.0699,-2.0612,-2.0511,-2.0511,-2.0347,-2.0233,-2.0233,-1.9825,-1.9722,-1.9515,-1.8405,-1.7875,-1.782,-1.7456,-1.7275,-1.7121,-1.6111,-1.5499,-1.5309,-1.4956,-1.4499,-1.4015,-1.3868,-1.3821,-1.3821,-1.3668,-1.3563,-1.3457,-1.342,-1.3054,-1.2511,-1.194,-1.1384,-1.0771,-1.0182,-1.0182,-1.0568,-1.0138,-0.9948,-1.0089,-1.0419,-1.0741,-1.107,-1.1446,-1.1622,-1.1622,-1.1553,-1.1615,-1.156,-1.1622,-1.1622,-1.1622,-1.1622,-1.1622,-1.1809,-1.1809,-1.207,-1.2611,-1.3088,-1.3549,-1.3939,-1.4434,-1.5062,-1.5621,-1.5833,-1.5842,-1.5903,-1.5974,-1.5974,-1.5912,-1.5903,-1.5692,-1.5251,-1.5117,-1.4887,-1.4291,-1.4514,-1.4299,-1.4363,-1.3838,-1.3072,-1.2211,-1.1615,-1.1152,-1.0778,-1.0338,-1.0021,-1.0332,-1.0458,-1.0584,-1.0465,-1.0275,-1.0465,-1.0408,-1.0295,-1.0354,-1.0477,-1.0213,-0.9917,-1.0064,-1.0002,-0.9685,-0.9777,-0.9922,-0.9841,-0.9916,-1.0008,-1.0062,-1.0301,-1.0476,-1.0794,-2.1019,-2.0636,-2.0549,-2.0461,-2.0398,-2.0347,-2.0347,-2.0296,-2.0233,-2.0029,-1.9695,-1.9085,-1.9085,-1.9411,-1.8255,-1.7564,-1.7295,-1.7115,-1.7027,-1.6907,-1.5754,-1.4851,-1.4388,-1.4539,-1.431,-1.3805,-1.3621,-1.3573,-1.3525,-1.342,-1.3324,-1.3218,-1.288,-1.254,-1.2236,-1.1351,-1.0736,-1.0372,-0.9821,-0.9716,-1.0007,-0.9821,-0.9828,-1.0097,-1.0299,-1.0559,-1.0854,-1.0966,-1.111,-1.1281,-1.1131,-1.1117,-1.1303,-1.131,-1.131,-1.1435,-1.156,-1.1622,-1.1685,-1.174,-1.1862,-1.1989,-1.2767,-1.3284,-1.3499,-1.3964,-1.4489,-1.4768,-1.5204,-1.5551,-1.5762,-1.5833,-1.5692,-1.533,-1.5267,-1.5037,-1.445,-1.4386,-1.4235,-1.4004,-1.4004,-1.3787,-1.3331,-1.2305,-1.1458,-1.0877,-1.0444,-0.9955,-0.9786,-0.939,-0.9075,-0.8877,-0.8935,-0.932,-0.9767,-1.0021,-0.9958,-0.9958,-0.9773,-0.9649,-0.9379,-0.9158,-0.8964,-0.9085,-0.9011,-0.9033,-0.912,-0.9231,-0.9236,-0.9392,-0.9559,-0.9611,-0.9834,-0.9795,-0.9837,-2.0452,-2.0152,-2.0156,-2.022,-2.0169,-2.0182,-2.0131,-2.0118,-1.9901,-1.9579,-1.9162,-1.8286,-1.8167,-1.8501,-1.771,-1.7137,-1.684,-1.6439,-1.631,-1.6235,-1.5321,-1.442,-1.3635,-1.3951,-1.3893,-1.3556,-1.3409,-1.3314,-1.3314,-1.3266,-1.317,-1.3084,-1.2482,-1.2049,-1.1742,-1.0787,-1.0229,-1.0053,-0.9647,-0.9592,-0.977,-0.9707,-0.9836,-1.0171,-1.0308,-1.0477,-1.0689,-1.0657,-1.0702,-1.0905,-1.0716,-1.0737,-1.1038,-1.1129,-1.1122,-1.1247,-1.1373,-1.1498,-1.1498,-1.1615,-1.1589,-1.1509,-1.2211,-1.263,-1.2647,-1.3077,-1.344,-1.3462,-1.3954,-1.4458,-1.5259,-1.5108,-1.4824,-1.4545,-1.4394,-1.3947,-1.3361,-1.3288,-1.3142,-1.2917,-1.2625,-1.268,-1.1971,-1.0849,-1.0037,-0.9873,-0.9379,-0.8952,-0.8888,-0.8571,-0.8117,-0.7922,-0.7852,-0.8236,-0.9122,-0.9186,-0.9314,-0.9256,-0.8941,-0.8619,-0.842,-0.8195,-0.8215,-0.8468,-0.8356,-0.8484,-0.8788,-0.8851,-0.878,-0.9013,-0.9175,-0.9209,-0.9334,-0.9115,-0.9123,-1.8973,-1.949,-1.9952,-2.0169,-2.0182,-2.0029,-1.999,-1.9875,-1.915,-1.8768,-1.8501,-1.7468,-1.6877,-1.6989,-1.6637,-1.6467,-1.6306,-1.5608,-1.5209,-1.5097,-1.4728,-1.4114,-1.3271,-1.3233,-1.3296,-1.3266,-1.3228,-1.3208,-1.317,-1.317,-1.318,-1.3027,-1.2276,-1.1665,-1.1074,-1.0372,-0.9926,-0.9717,-0.9665,-0.9778,-0.9959,-0.9792,-0.9989,-1.0422,-1.0541,-1.052,-1.0576,-1.0583,-1.0597,-1.0618,-1.0597,-1.0723,-1.108,-1.1059,-1.1066,-1.1122,-1.1129,-1.1192,-1.1317,-1.1324,-1.1192,-1.1014,-1.1397,-1.1461,-1.1262,-1.1642,-1.1964,-1.1896,-1.2044,-1.2638,-1.3745,-1.3593,-1.3302,-1.3404,-1.2879,-1.2278,-1.162,-1.162,-1.1105,-1.0507,-1.0409,-1.0296,-0.9602,-0.9165,-0.8936,-0.8685,-0.8327,-0.8112,-0.8117,-0.7787,-0.7657,-0.7591,-0.7526,-0.7591,-0.7652,-0.8037,-0.7907,-0.7907,-0.8107,-0.7722,-0.7591,-0.7579,-0.773,-0.7929,-0.8,-0.821,-0.8576,-0.8703,-0.8627,-0.8708,-0.8703,-0.8746,-0.8789,-0.8911,-0.8885,-1.8862,-1.8958,-1.9444,-1.9668,-1.9681,-1.9629,-1.9408,-1.9016,-1.8738,-1.8135,-1.7468,-1.6989,-1.656,-1.6228,-1.6144,-1.5924,-1.566,-1.579,-1.5263,-1.4204,-1.3807,-1.347,-1.3072,-1.3154,-1.3218,-1.3218,-1.3152,-1.3055,-1.2852,-1.253,-1.2227,-1.1999,-1.1183,-1.0618,-1.032,-0.9769,-0.9425,-0.9286,-0.9405,-0.9508,-0.9525,-0.9642,-0.9812,-0.9982,-0.9877,-0.9928,-1.012,-0.9884,-0.9894,-1.0275,-1.0125,-1.0241,-1.0676,-1.087,-1.0933,-1.0933,-1.1059,-1.1206,-1.1318,-1.0951,-1.0686,-1.0763,-1.0754,-1.0722,-1.0635,-1.101,-1.1323,-1.1316,-1.1323,-1.1694,-1.199,-1.2131,-1.2057,-1.1774,-1.1552,-1.1105,-1.0588,-1.0443,-1.0293,-0.9976,-0.9787,-0.9478,-0.8993,-0.8732,-0.8369,-0.7972,-0.7722,-0.7722,-0.7657,-0.7521,-0.7461,-0.733,-0.733,-0.7265,-0.7143,-0.7396,-0.7526,-0.7526,-0.7526,-0.7461,-0.7396,-0.7335,-0.743,-0.7687,-0.7792,-0.7956,-0.8271,-0.8403,-0.8403,-0.8403,-0.8403,-0.8403,-0.8331,-0.8513,-0.8499,-1.8371,-1.845,-1.8941,-1.9273,-1.9408,-1.942,-1.9198,-1.875,-1.8309,-1.771,-1.6989,-1.6539,-1.6104,-1.573,-1.5682,-1.5476,-1.5256,-1.5894,-1.5533,-1.4317,-1.3523,-1.2991,-1.2828,-1.2959,-1.3035,-1.2987,-1.292,-1.2725,-1.2372,-1.194,-1.1584,-1.1292,-1.0372,-0.9909,-0.9865,-0.9361,-0.9083,-0.9228,-0.9247,-0.9319,-0.9378,-0.9411,-0.9542,-0.9575,-0.9399,-0.9428,-0.9833,-0.9543,-0.9606,-1.0007,-0.9927,-1.0047,-1.0557,-1.0688,-1.0744,-1.0751,-1.0712,-1.0775,-1.089,-1.039,-1.0015,-1.0055,-0.9939,-0.9774,-0.9642,-0.9958,-1.0121,-1.0137,-1.0137,-1.0137,-1.0282,-1.0496,-1.0645,-1.0588,-1.0438,-1.0148,-0.9771,-0.9695,-0.962,-0.9508,-0.9268,-0.8974,-0.8609,-0.8319,-0.7966,-0.7489,-0.7391,-0.7391,-0.733,-0.7269,-0.7269,-0.7138,-0.7073,-0.7077,-0.7012,-0.7138,-0.7199,-0.7265,-0.7265,-0.7199,-0.7209,-0.7143,-0.7216,-0.739,-0.761,-0.7763,-0.7913,-0.8058,-0.8102,-0.8102,-0.8178,-0.8178,-0.8178,-0.8102,-0.8034,-1.7331,-1.7811,-1.8388,-1.8839,-1.9218,-1.9226,-1.9316,-1.8922,-1.7875,-1.7268,-1.6866,-1.5979,-1.542,-1.5264,-1.5274,-1.5128,-1.5177,-1.5618,-1.579,-1.5447,-1.3733,-1.2764,-1.255,-1.2666,-1.2676,-1.2569,-1.2529,-1.2224,-1.1701,-1.1551,-1.1283,-1.072,-1.0064,-0.9658,-0.9755,-0.9127,-0.9072,-0.9323,-0.9151,-0.9258,-0.9721,-0.9323,-0.9206,-0.9433,-0.9186,-0.9256,-0.9693,-0.9673,-0.9728,-1.0006,-0.9979,-1.0247,-1.0305,-1.0364,-1.0491,-1.034,-1.0027,-0.9904,-0.9959,-0.9548,-0.915,-0.9067,-0.8831,-0.8709,-0.841,-0.8394,-0.8403,-0.8479,-0.8403,-0.8408,-0.8551,-0.8703,-0.9155,-1.0137,-0.9771,-0.9397,-0.9322,-0.9322,-0.9165,-0.8827,-0.8599,-0.8389,-0.8108,-0.7905,-0.763,-0.7325,-0.7199,-0.7134,-0.7007,-0.7012,-0.6946,-0.6881,-0.6876,-0.6876,-0.6876,-0.6881,-0.6876,-0.6876,-0.6942,-0.7012,-0.6964,-0.6911,-0.7094,-0.7298,-0.7454,-0.7607,-0.7748,-0.7949,-0.7944,-0.7944,-0.8025,-0.7949,-0.7949,-0.7868,-0.7714,-1.69,-1.7073,-1.7733,-1.8136,-1.8275,-1.8116,-1.782,-1.7368,-1.6652,-1.6161,-1.57,-1.5313,-1.5088,-1.5088,-1.5039,-1.5029,-1.501,-1.5231,-1.5361,-1.5147,-1.3546,-1.2586,-1.2527,-1.252,-1.2539,-1.2529,-1.2529,-1.2126,-1.1569,-1.1091,-1.0626,-0.9961,-0.9413,-0.9106,-0.8988,-0.8745,-0.8757,-0.878,-0.8854,-0.8863,-0.8925,-0.9029,-0.9087,-0.9054,-0.9087,-0.9279,-0.9601,-0.9446,-0.9479,-0.9749,-0.9309,-0.8986,-0.8879,-0.8801,-0.8801,-0.8835,-0.8904,-0.8994,-0.9157,-0.8882,-0.867,-0.8622,-0.8378,-0.8112,-0.7944,-0.803,-0.8102,-0.8102,-0.8102,-0.8178,-0.8178,-0.8178,-0.8556,-0.9155,-0.9008,-0.8861,-0.8937,-0.8856,-0.8784,-0.8533,-0.8305,-0.8107,-0.7753,-0.7485,-0.7297,-0.7047,-0.7007,-0.6942,-0.6876,-0.6881,-0.6876,-0.6806,-0.6741,-0.6675,-0.6679,-0.6613,-0.6613,-0.6679,-0.6745,-0.6749,-0.6766,-0.6864,-0.6979,-0.7203,-0.7354,-0.7518,-0.766,-0.7714,-0.7791,-0.7714,-0.7714,-0.7638,-0.7638,-0.7484,-0.7249,-1.6253,-1.6409,-1.6889,-1.7124,-1.7145,-1.7006,-1.6634,-1.6079,-1.5628,-1.5213,-1.4875,-1.4611,-1.4516,-1.4459,-1.4459,-1.4335,-1.4268,-1.4619,-1.472,-1.4463,-1.3134,-1.2362,-1.2311,-1.2116,-1.2076,-1.2017,-1.181,-1.1401,-1.0795,-1.0379,-0.9858,-0.9249,-0.8844,-0.8639,-0.8521,-0.8527,-0.8506,-0.8514,-0.8543,-0.8543,-0.8536,-0.8713,-0.8802,-0.8764,-0.8909,-0.902,-0.9065,-0.8824,-0.8908,-0.9198,-0.8697,-0.827,-0.8011,-0.8027,-0.8027,-0.8017,-0.8038,-0.8137,-0.8282,-0.8047,-0.7961,-0.8075,-0.7872,-0.7718,-0.7718,-0.7795,-0.7868,-0.7868,-0.7872,-0.7949,-0.7953,-0.7953,-0.8102,-0.8475,-0.8475,-0.8475,-0.8475,-0.8475,-0.8429,-0.8218,-0.8026,-0.7838,-0.7531,-0.7324,-0.7153,-0.6928,-0.6811,-0.6745,-0.6749,-0.6683,-0.6613,-0.6613,-0.6548,-0.6482,-0.635,-0.635,-0.635,-0.6416,-0.6548,-0.6552,-0.656,-0.6709,-0.6879,-0.7169,-0.7335,-0.7509,-0.7638,-0.7561,-0.7557,-0.748,-0.7246,-0.7326,-0.7173,-0.6784,-0.6475,-1.5395,-1.5867,-1.5866,-1.5969,-1.5981,-1.599,-1.5737,-1.5289,-1.4724,-1.4403,-1.4277,-1.3879,-1.3642,-1.3505,-1.3488,-1.3314,-1.3122,-1.381,-1.3905,-1.3249,-1.24,-1.1906,-1.1868,-1.1628,-1.1436,-1.1158,-1.0728,-1.0159,-0.9769,-0.9562,-0.9099,-0.8679,-0.8527,-0.8374,-0.8368,-0.8368,-0.8483,-0.8568,-0.834,-0.8298,-0.8472,-0.8354,-0.8287,-0.8509,-0.8514,-0.8414,-0.8122,-0.7855,-0.8044,-0.8631,-0.8104,-0.7742,-0.7762,-0.7832,-0.7637,-0.7587,-0.7482,-0.7364,-0.7279,-0.7298,-0.7214,-0.7326,-0.7407,-0.748,-0.7484,-0.7403,-0.7484,-0.748,-0.7484,-0.7561,-0.7642,-0.7723,-0.7795,-0.803,-0.8102,-0.8178,-0.8102,-0.8089,-0.7992,-0.786,-0.7785,-0.7654,-0.7311,-0.7177,-0.7005,-0.68,-0.6675,-0.6544,-0.6482,-0.642,-0.6354,-0.6354,-0.635,-0.6284,-0.6152,-0.6152,-0.6152,-0.6156,-0.6288,-0.6354,-0.6378,-0.6523,-0.6736,-0.7021,-0.7053,-0.7239,-0.7246,-0.7092,-0.6857,-0.6623,-0.6549,-0.6707,-0.6395,-0.5851,-0.5386,-1.528,-1.5533,-1.5491,-1.5143,-1.4697,-1.4769,-1.4578,-1.4058,-1.3565,-1.3258,-1.3086,-1.2894,-1.2804,-1.2738,-1.2776,-1.2692,-1.2668,-1.2914,-1.2975,-1.2554,-1.1464,-1.1023,-1.1158,-1.1319,-1.1057,-1.0431,-0.9997,-0.9629,-0.9309,-0.9204,-0.8949,-0.8474,-0.8421,-0.8321,-0.8275,-0.8215,-0.8193,-0.8147,-0.8063,-0.7979,-0.8063,-0.819,-0.8102,-0.7824,-0.7983,-0.7799,-0.7289,-0.6763,-0.6637,-0.6885,-0.6919,-0.6597,-0.6272,-0.6207,-0.6272,-0.6246,-0.6275,-0.6324,-0.6456,-0.664,-0.681,-0.693,-0.7,-0.7019,-0.7092,-0.7096,-0.7019,-0.7019,-0.7015,-0.7096,-0.7099,-0.7176,-0.7253,-0.7411,-0.7795,-0.8025,-0.8003,-0.797,-0.7781,-0.7582,-0.7466,-0.7195,-0.6961,-0.6805,-0.6742,-0.6531,-0.6412,-0.6342,-0.6214,-0.6152,-0.609,-0.6024,-0.6024,-0.602,-0.602,-0.5954,-0.5954,-0.5958,-0.6024,-0.609,-0.6144,-0.6244,-0.6495,-0.6699,-0.643,-0.651,-0.6249,-0.6002,-0.577,-0.5674,-0.5461,-0.5461,-0.4919,-0.4375,-0.3988,-1.454,-1.4797,-1.4748,-1.4253,-1.353,-1.3599,-1.3265,-1.2659,-1.2352,-1.214,-1.2033,-1.198,-1.198,-1.1989,-1.198,-1.1927,-1.1848,-1.1922,-1.1852,-1.1488,-1.0466,-1.0305,-1.0685,-1.0887,-1.047,-0.9917,-0.9325,-0.9026,-0.8896,-0.8791,-0.858,-0.8374,-0.8215,-0.8168,-0.8062,-0.8062,-0.7955,-0.7794,-0.7741,-0.7681,-0.7591,-0.7816,-0.7593,-0.7239,-0.7306,-0.7079,-0.6218,-0.5537,-0.5514,-0.5974,-0.5981,-0.5741,-0.5488,-0.5428,-0.5428,-0.5435,-0.5637,-0.5839,-0.593,-0.6216,-0.6412,-0.6581,-0.664,-0.676,-0.6775,-0.6816,-0.6865,-0.6942,-0.6865,-0.6865,-0.6865,-0.6865,-0.6945,-0.7099,-0.7407,-0.7638,-0.7791,-0.763,-0.7413,-0.7167,-0.6952,-0.6704,-0.6403,-0.6384,-0.6329,-0.6184,-0.6152,-0.6086,-0.6083,-0.5954,-0.5892,-0.5826,-0.5822,-0.5888,-0.5822,-0.5752,-0.5686,-0.569,-0.5488,-0.562,-0.5758,-0.5837,-0.587,-0.5909,-0.5742,-0.5516,-0.524,-0.501,-0.5027,-0.4794,-0.4433,-0.4139,-0.375,-0.3441,-0.2976,-1.3531,-1.3882,-1.3878,-1.3318,-1.2445,-1.2387,-1.2015,-1.1275,-1.12,-1.1175,-1.1184,-1.1201,-1.1183,-1.1167,-1.1208,-1.1057,-1.0861,-1.1165,-1.0713,-1.0164,-0.9399,-0.9356,-1.0003,-1.0043,-0.9732,-0.9354,-0.8685,-0.8368,-0.8262,-0.8162,-0.8109,-0.7949,-0.7842,-0.7788,-0.7735,-0.7788,-0.7681,-0.7521,-0.7354,-0.7187,-0.7079,-0.7106,-0.6846,-0.6356,-0.6251,-0.5885,-0.5083,-0.4549,-0.4726,-0.5942,-0.5427,-0.5284,-0.5335,-0.5359,-0.5428,-0.5442,-0.5542,-0.5624,-0.5676,-0.5937,-0.6093,-0.6143,-0.6397,-0.6526,-0.6552,-0.6572,-0.6732,-0.6656,-0.685,-0.6788,-0.6791,-0.6791,-0.6865,-0.6861,-0.693,-0.7065,-0.7271,-0.7147,-0.6903,-0.667,-0.6359,-0.6124,-0.5952,-0.5892,-0.5892,-0.6039,-0.5954,-0.5885,-0.5818,-0.5756,-0.5756,-0.5756,-0.5756,-0.5752,-0.5686,-0.5554,-0.5418,-0.5352,-0.4948,-0.4894,-0.509,-0.5099,-0.5117,-0.4992,-0.4748,-0.4455,-0.4098,-0.3997,-0.4022,-0.3681,-0.3235,-0.3107,-0.3049,-0.274,-0.2352,-1.3201,-1.3183,-1.3149,-1.2197,-1.0922,-1.1203,-1.098,-1.0303,-1.0311,-1.034,-1.0364,-1.0462,-1.0462,-1.03,-1.0462,-1.0411,-1.0265,-1.0438,-0.9918,-0.8469,-0.7846,-0.7664,-0.8254,-0.8935,-0.9095,-0.8487,-0.7883,-0.7676,-0.7622,-0.7515,-0.7354,-0.7354,-0.7408,-0.73,-0.73,-0.7354,-0.7252,-0.7139,-0.6858,-0.6637,-0.647,-0.6312,-0.5937,-0.5332,-0.4952,-0.4567,-0.4298,-0.4107,-0.426,-0.4552,-0.4813,-0.4977,-0.5104,-0.5286,-0.5362,-0.5369,-0.5389,-0.5467,-0.5566,-0.562,-0.5758,-0.584,-0.5885,-0.5999,-0.6006,-0.6138,-0.6214,-0.6249,-0.6332,-0.6447,-0.6451,-0.6553,-0.6612,-0.6659,-0.6598,-0.6607,-0.6723,-0.6672,-0.644,-0.629,-0.6135,-0.5933,-0.5896,-0.5892,-0.5888,-0.5892,-0.5756,-0.5686,-0.5554,-0.5488,-0.5289,-0.5153,-0.5153,-0.502,-0.502,-0.4885,-0.4818,-0.4752,-0.4483,-0.4084,-0.4271,-0.4295,-0.4209,-0.404,-0.3722,-0.3363,-0.2987,-0.2862,-0.2803,-0.2401,-0.206,-0.2078,-0.2093,-0.1871,-0.1884,-1.2466,-1.2733,-1.2555,-1.1694,-1.0606,-1.0831,-1.0599,-0.9954,-0.9972,-1.0035,-1.002,-1.011,-1.0102,-1.0007,-1.0102,-1.0102,-0.9903,-0.9561,-0.862,-0.7376,-0.6823,-0.6716,-0.6839,-0.7759,-0.8127,-0.7729,-0.7461,-0.73,-0.7246,-0.7192,-0.7139,-0.7133,-0.7085,-0.7139,-0.7133,-0.7079,-0.6923,-0.6598,-0.6376,-0.6095,-0.571,-0.5605,-0.5336,-0.4787,-0.4187,-0.3802,-0.3805,-0.3805,-0.3874,-0.4051,-0.4306,-0.4597,-0.4841,-0.4989,-0.509,-0.5096,-0.5096,-0.5122,-0.5196,-0.5216,-0.5238,-0.5319,-0.5374,-0.5476,-0.559,-0.5696,-0.5842,-0.5862,-0.5986,-0.6044,-0.6051,-0.6201,-0.627,-0.6204,-0.5962,-0.5821,-0.5699,-0.5887,-0.6172,-0.5989,-0.5801,-0.5663,-0.5627,-0.5488,-0.5557,-0.5491,-0.502,-0.4885,-0.4683,-0.455,-0.4284,-0.4151,-0.422,-0.4287,-0.422,-0.4151,-0.4018,-0.4018,-0.3951,-0.3551,-0.3299,-0.3305,-0.3242,-0.3003,-0.2759,-0.2298,-0.1912,-0.1781,-0.1804,-0.1693,-0.1499,-0.1291,-0.1307,-0.1551,-0.1563,-1.1644,-1.2224,-1.1905,-1.1272,-1.0641,-1.0532,-1.0059,-0.9473,-0.971,-0.9736,-0.9894,-0.9909,-0.9947,-0.9947,-0.9947,-0.9947,-0.948,-0.8784,-0.7694,-0.6528,-0.6328,-0.6279,-0.6455,-0.6799,-0.7198,-0.7402,-0.7187,-0.7025,-0.7031,-0.6977,-0.6874,-0.6923,-0.6923,-0.6869,-0.6923,-0.6815,-0.6544,-0.6055,-0.5723,-0.5391,-0.4952,-0.4952,-0.4732,-0.4405,-0.3965,-0.3641,-0.3641,-0.3646,-0.3682,-0.3776,-0.392,-0.4165,-0.44,-0.4646,-0.4818,-0.4821,-0.4831,-0.484,-0.4916,-0.4846,-0.4846,-0.4837,-0.4993,-0.5127,-0.5234,-0.5323,-0.5467,-0.5639,-0.5669,-0.5699,-0.5669,-0.5622,-0.5632,-0.5504,-0.5108,-0.4664,-0.4456,-0.5011,-0.5261,-0.531,-0.4956,-0.4697,-0.4821,-0.4755,-0.4957,-0.5024,-0.4489,-0.4154,-0.4018,-0.3818,-0.3618,-0.3416,-0.3549,-0.3887,-0.3954,-0.3623,-0.3487,-0.3286,-0.3286,-0.2751,-0.235,-0.2151,-0.202,-0.2018,-0.1697,-0.1372,-0.1313,-0.139,-0.1342,-0.1156,-0.1172,-0.1185,-0.1207,-0.1309,-0.1322,-1.1055,-1.0992,-1.0765,-1.0312,-0.9721,-0.9173,-0.8806,-0.8528,-0.8852,-0.9111,-0.9377,-0.9673,-0.971,-0.9732,-0.9792,-0.9442,-0.8765,-0.8133,-0.7371,-0.6367,-0.6159,-0.6159,-0.6213,-0.6218,-0.6332,-0.644,-0.6598,-0.6701,-0.6647,-0.6495,-0.6445,-0.6391,-0.6337,-0.6337,-0.6223,-0.6059,-0.5782,-0.5395,-0.4893,-0.445,-0.4236,-0.4076,-0.3913,-0.3802,-0.3583,-0.3527,-0.3585,-0.3585,-0.3593,-0.3674,-0.376,-0.3826,-0.3982,-0.4344,-0.4552,-0.4707,-0.4737,-0.4737,-0.474,-0.4761,-0.4761,-0.4834,-0.4794,-0.4803,-0.4904,-0.5046,-0.5117,-0.5294,-0.5358,-0.5281,-0.4928,-0.4873,-0.474,-0.4565,-0.4153,-0.3606,-0.3413,-0.343,-0.3727,-0.3729,-0.3634,-0.3751,-0.3954,-0.402,-0.4087,-0.4154,-0.3887,-0.3756,-0.3823,-0.3553,-0.3353,-0.3082,-0.288,-0.3351,-0.3758,-0.3357,-0.3023,-0.2621,-0.242,-0.1749,-0.128,-0.0943,-0.0808,-0.1212,-0.1347,-0.1221,-0.1089,-0.1022,-0.1033,-0.0985,-0.1069,-0.1154,-0.1107,-0.1058,-0.1233,-1.0528,-1.043,-1.0037,-0.9299,-0.8537,-0.8532,-0.8336,-0.8098,-0.8354,-0.8669,-0.8983,-0.9177,-0.9328,-0.9325,-0.9106,-0.8586,-0.7907,-0.7901,-0.7242,-0.6401,-0.6069,-0.6014,-0.6014,-0.595,-0.5955,-0.6009,-0.6168,-0.6273,-0.6327,-0.6168,-0.6059,-0.6059,-0.5896,-0.5727,-0.5563,-0.5234,-0.4846,-0.4453,-0.4009,-0.3624,-0.3463,-0.3249,-0.3137,-0.314,-0.3137,-0.3193,-0.3302,-0.3193,-0.3193,-0.3256,-0.3239,-0.329,-0.3416,-0.3675,-0.4047,-0.4281,-0.4426,-0.4466,-0.4483,-0.4515,-0.4564,-0.4498,-0.4567,-0.457,-0.4582,-0.4628,-0.473,-0.495,-0.5176,-0.5171,-0.4807,-0.4237,-0.3888,-0.3786,-0.3418,-0.3126,-0.2883,-0.2438,-0.229,-0.2418,-0.3086,-0.342,-0.3351,-0.3351,-0.3284,-0.3218,-0.3153,-0.3222,-0.3424,-0.3021,-0.2552,-0.2216,-0.1879,-0.2216,-0.2552,-0.2353,-0.2153,-0.1884,-0.1683,-0.1011,-0.0742,-0.0607,-0.0742,-0.1079,-0.108,-0.108,-0.0878,-0.0746,-0.075,-0.0824,-0.0768,-0.0782,-0.087,-0.0962,-0.1059,-1.0097,-1.0184,-0.9466,-0.8464,-0.7539,-0.8002,-0.807,-0.7893,-0.8109,-0.8405,-0.87,-0.8643,-0.8779,-0.8776,-0.8309,-0.7616,-0.6918,-0.7404,-0.6911,-0.6232,-0.5786,-0.5677,-0.5732,-0.5736,-0.5791,-0.5845,-0.5786,-0.5841,-0.595,-0.5782,-0.5778,-0.5559,-0.5281,-0.4999,-0.4783,-0.4453,-0.3843,-0.3511,-0.3181,-0.3016,-0.28,-0.2691,-0.2691,-0.2691,-0.2691,-0.2802,-0.2968,-0.2856,-0.2858,-0.2856,-0.2755,-0.2606,-0.2719,-0.2849,-0.3119,-0.3503,-0.381,-0.4011,-0.414,-0.4194,-0.4326,-0.4361,-0.43,-0.4169,-0.3835,-0.3706,-0.3842,-0.4236,-0.4384,-0.4462,-0.4076,-0.3498,-0.3016,-0.2725,-0.2606,-0.2484,-0.2108,-0.1684,-0.1349,-0.1817,-0.2755,-0.282,-0.2417,-0.2216,-0.2014,-0.2014,-0.1949,-0.2218,-0.2287,-0.1749,-0.1346,-0.0943,-0.0808,-0.0944,-0.1078,-0.1078,-0.0943,-0.0876,-0.0876,-0.0607,-0.054,-0.0472,-0.0,-0.0,-0.108,-0.1012,-0.0742,-0.0472,-0.0406,-0.0409,-0.0414,-0.0,-0.0,-0.0,-0.0748,-0.9988,-0.9935,-0.9114,-0.8082,-0.721,-0.7377,-0.7518,-0.7489,-0.779,-0.8109,-0.8263,-0.8138,-0.8191,-0.8094,-0.7283,-0.6804,-0.6598,-0.646,-0.6306,-0.585,-0.5563,-0.5395,-0.5391,-0.5559,-0.5567,-0.5567,-0.5513,-0.5677,-0.5567,-0.523,-0.5062,-0.5007,-0.456,-0.4116,-0.4064,-0.3677,-0.3398,-0.3234,-0.2907,-0.2747,-0.2635,-0.2635,-0.2635,-0.2635,-0.2635,-0.2635,-0.2689,-0.2633,-0.2633,-0.2633,-0.2296,-0.2132,-0.2026,-0.1686,-0.1857,-0.2472,-0.3221,-0.3942,-0.4011,-0.4137,-0.4197,-0.4265,-0.4295,-0.3625,-0.2753,-0.2351,-0.2417,-0.2415,-0.2551,-0.2684,-0.2753,-0.2496,-0.1956,-0.1553,-0.1287,-0.0951,-0.0607,-0.1145,-0.0742,-0.108,-0.1952,-0.1549,-0.1078,-0.0943,-0.0808,-0.0808,-0.0,-0.0,-0.1204,-0.0865,-0.0596,-0.0396,-0.0263,-0.0395,-0.0461,-0.033,-0.0,-0.0,-0.0,-0.0,-0.0,-0.0,-0.0,-0.0,-0.0,-0.0,-0.0674,-0.0405,-0.0202,-0.0,-0.0,-0.0,-0.0,-0.0,-0.0,-0.9194,-0.9148,-0.8496,-0.7687,-0.6851,-0.6923,-0.6999,-0.7065,-0.7311,-0.7413,-0.7446,-0.7517,-0.7419,-0.709,-0.6534,-0.6268,-0.6055,-0.5795,-0.5745,-0.574,-0.5458,-0.5289,-0.5234,-0.5066,-0.5014,-0.4959,-0.468,-0.4398,-0.4567,-0.4787,-0.4787,-0.4618,-0.3956,-0.3458,-0.3347,-0.2903,-0.2627,-0.2406,-0.2244,-0.2189,-0.2189,-0.2189,-0.2189,-0.2189,-0.2188,-0.2298,-0.2354,-0.2242,-0.213,-0.2073,-0.168,-0.1344,-0.1176,-0.1064,-0.123,-0.1402,-0.2004,-0.2838,-0.3663,-0.3982,-0.4076,-0.4213,-0.4069,-0.3299,-0.1614,-0.0,-0.0,-0.0942,-0.0942,-0.0,-0.0,-0.1009,-0.0808,-0.0,-0.0,-0.0,-0.0,-0.0,-0.0405,-0.0742,-0.1011,-0.0671,-0.0,-0.0,-0.0,-0.0,-0.0,-0.0,-0.0,-0.0385,-0.0192,-0.0127,-0.0064,-0.0127,-0.0191,-0.0,-0.0,-0.0,-0.0,-0.0,-0.0,-0.0,-0.0,-0.0,-0.0,-0.0,-0.0,-0.0337,-0.0,-0.0,-0.0,-0.0,-0.0,-0.0,-0.0,-0.8324,-0.8283,-0.7919,-0.7301,-0.6639,-0.6689,-0.6715,-0.6747,-0.7001,-0.6997,-0.679,-0.6822,-0.6501,-0.6013,-0.5823,-0.5664,-0.5399,-0.5352,-0.5462,-0.5517,-0.5407,-0.5128,-0.4846,-0.4512,-0.446,-0.4242,-0.4015,-0.379,-0.3846,-0.3901,-0.4064,-0.4171,-0.3183,-0.274,-0.2573,-0.2352,-0.2074,-0.1964,-0.1909,-0.1853,-0.1853,-0.1853,-0.1853,-0.1797,-0.174,-0.1738,-0.185,-0.157,-0.1401,-0.1288,-0.0952,-0.0616,-0.0392,-0.0336,-0.0336,-0.0448,-0.0734,-0.1146,-0.2074,-0.2698,-0.3421,-0.3439,-0.3179,-0.0,-0.0,-0.0,-0.0,-0.0,-0.0,-0.0,-0.0,-0.0,-0.0,-0.0,-0.0,-0.0,-0.0,-0.0,-0.0,-0.0336,-0.0536,-0.0464,-0.0,-0.0,-0.0,-0.0,-0.0,-0.0,-0.0,-0.0,-0.0,-0.0,-0.0,-0.0,-0.0,-0.0,-0.0,-0.0,-0.0,-0.0,-0.0,-0.0,-0.0,-0.0,-0.0,-0.0,-0.0,-0.0,-0.0,-0.0,-0.0,-0.0,-0.0,0.083,0.0637,-0.7787,-0.7454,-0.7454,-0.7118,-0.6568,-0.6666,-0.6715,-0.6698,-0.6925,-0.6894,-0.6526,-0.6134,-0.5629,-0.5171,-0.5117,-0.5117,-0.5011,-0.5187,-0.5297,-0.5301,-0.5242,-0.4567,-0.4174,-0.4067,-0.4073,-0.3683,-0.3292,-0.3292,-0.3403,-0.2903,-0.2956,-0.2736,-0.2408,-0.2076,-0.1965,-0.1964,-0.1908,-0.1797,-0.1797,-0.1741,-0.1741,-0.1741,-0.1685,-0.1628,-0.1347,-0.1178,-0.1122,-0.0841,-0.0617,-0.056,-0.028,-0.0,0.0168,0.0336,0.0448,0.0448,0.0448,0.0171,-0.0294,-0.1073,-0.1468,-0.1212,-0.0859,-0.0607,-0.0,-0.0,-0.0,-0.0,-0.0,-0.0,-0.0,-0.0,-0.0,-0.0,-0.0,-0.0,-0.0,-0.0,-0.0,-0.0,-0.0,-0.0,-0.0,-0.0,-0.0,-0.0,-0.0,-0.0,-0.0,-0.0,-0.0,-0.0,-0.0,-0.0,-0.0,-0.0,-0.0,-0.0,-0.0,-0.0,-0.0,-0.0,-0.0,-0.0,-0.0,-0.0,-0.0,-0.0,0.1481,0.3244,0.3722,0.2696,0.2501,0.2397,0.2105,-0.7503,-0.7377,-0.6956,-0.6666,-0.6453,-0.6502,-0.6496,-0.6532,-0.6579,-0.6411,-0.6025,-0.5387,-0.5066,-0.4901,-0.4901,-0.4901,-0.4901,-0.5022,-0.5022,-0.4684,-0.4181,-0.3616,-0.3284,-0.3123,-0.2905,-0.2738,-0.246,-0.2183,-0.2071,-0.2015,-0.1903,-0.1793,-0.1796,-0.1853,-0.1797,-0.1797,-0.1797,-0.1797,-0.1741,-0.1685,-0.1403,-0.1347,-0.1234,-0.0898,-0.0841,-0.0673,-0.0617,-0.0505,-0.028,-0.0056,0.0112,0.0336,0.0561,0.0785,0.0897,0.0897,0.0897,0.0913,0.0937,0.0295,0.0121,0.0255,0.0463,0.054,0.0337,0.0337,0.0135,-0.0,-0.0,-0.0,-0.0,-0.0,-0.0,-0.0,-0.0,-0.0,-0.0,-0.0,-0.0,-0.0,-0.0,-0.0,-0.0,-0.0,-0.0,-0.0,-0.0,-0.0,-0.0,-0.0,-0.0,-0.0,-0.0,-0.0,-0.0,0.053,0.047,-0.0,-0.0,-0.0,-0.0,-0.0,-0.0,-0.0,0.2332,-0.0,-0.0,-0.0,0.2487,0.3849,0.3849,0.303,0.3181,0.3675,0.3464,-0.7328,-0.7202,-0.6666,-0.641,-0.641,-0.641,-0.6331,-0.6235,-0.6299,-0.5974,-0.5504,-0.4908,-0.4688,-0.4736,-0.4791,-0.4791,-0.4739,-0.4746,-0.4522,-0.3846,-0.295,-0.2393,-0.2341,-0.2347,-0.2294,-0.1905,-0.1626,-0.1402,-0.1458,-0.1346,-0.1402,-0.1458,-0.1515,-0.1628,-0.1628,-0.1685,-0.1685,-0.1628,-0.1515,-0.1346,-0.0954,-0.0785,-0.0616,-0.0224,-0.0,0.0056,0.0056,0.0168,0.028,0.0393,0.0449,0.0617,0.0785,0.0897,0.0897,0.0897,0.09,0.0912,0.0877,0.0906,0.0987,0.0901,0.0995,0.0874,0.0742,0.0674,0.0607,-0.0,-0.0,-0.0,-0.0,-0.0,-0.0,-0.0,-0.0,-0.0,-0.0,-0.0,-0.0,-0.0,-0.0,-0.0,-0.0,-0.0,-0.0,-0.0,-0.0,-0.0,-0.0,-0.0,-0.0,-0.0,-0.0,-0.0,0.124,0.1766,0.2072,-0.0,-0.0,-0.0,-0.0,0.3944,0.5236,0.4511,0.3893,0.3606,0.342,0.3355,0.3696,0.4247,0.3974,0.3699,0.3832,0.4193,0.4279,-0.7118,-0.6979,-0.6538,-0.6373,-0.6373,-0.641,-0.6142,-0.5853,-0.6013,-0.5807,-0.5183,-0.4725,-0.4519,-0.4515,-0.4515,-0.4405,-0.4463,-0.4473,-0.4079,-0.2954,-0.1895,-0.1227,-0.134,-0.1621,-0.1736,-0.1402,-0.1234,-0.1234,-0.129,-0.1234,-0.1234,-0.1234,-0.1234,-0.1234,-0.129,-0.1459,-0.1459,-0.129,-0.1009,-0.0617,-0.0336,-0.0112,0.0168,0.0503,0.0783,0.084,0.0784,0.0841,0.0897,0.0897,0.0841,0.0953,0.1009,0.0953,0.0954,0.0954,0.0898,0.0912,0.0882,0.0934,0.1019,0.1028,0.1051,0.1004,0.1077,0.1079,0.1012,0.0809,0.0674,0.0405,-0.0,-0.0,-0.0,-0.0,-0.0,-0.0,-0.0,-0.0,-0.0,-0.0,-0.0,-0.0,-0.0,-0.0,-0.0,-0.0,-0.0,0.0734,0.0732,0.0677,0.0511,0.0909,0.0907,0.1356,0.2191,0.3373,0.3666,0.2919,0.2313,0.207,0.217,0.3445,0.4426,0.5128,0.5003,0.4372,0.4641,0.5043,0.4913,0.4709,0.4779,0.464,0.47,0.4634,0.459,-0.6787,-0.6435,-0.6105,-0.6024,-0.6153,-0.6325,-0.6147,-0.569,-0.5391,-0.4989,-0.463,-0.4467,-0.4463,-0.4405,-0.4073,-0.3959,-0.3965,-0.4383,-0.3872,-0.2629,-0.1453,-0.1063,-0.1064,-0.1176,-0.1289,-0.1065,-0.101,-0.1066,-0.101,-0.101,-0.101,-0.101,-0.0617,-0.0561,-0.0785,-0.1009,-0.1065,-0.028,0.0112,0.0392,0.0559,0.0727,0.0895,0.1286,0.151,0.1511,0.1399,0.1401,0.1346,0.1401,0.1289,0.1289,0.1344,0.1289,0.1178,0.1122,0.1067,0.0911,0.0883,0.098,0.1001,0.1013,0.1033,0.1059,0.1072,0.1076,0.1078,0.1078,0.0944,0.0742,-0.0,-0.0,-0.0,-0.0,-0.0,-0.0,-0.0,-0.0,-0.0,-0.0,-0.0,0.0602,0.0987,0.1371,0.131,0.1137,0.1296,0.1125,0.1067,0.1067,0.1014,0.1746,0.2138,0.2419,0.3035,0.3819,0.4098,0.3416,0.3193,0.3215,0.34,0.365,0.4127,0.4979,0.5075,0.5101,0.5165,0.5203,0.5156,0.5096,0.5036,0.4973,0.4831,0.4761,0.47,-0.652,-0.6056,-0.5804,-0.5723,-0.5804,-0.611,-0.5967,-0.5435,-0.477,-0.4354,-0.4256,-0.4399,-0.4463,-0.4294,-0.3904,-0.3624,-0.3627,-0.3702,-0.3713,-0.2523,-0.1458,-0.1009,-0.0897,-0.0897,-0.0953,-0.0897,-0.0897,-0.0897,-0.0897,-0.0673,-0.0448,-0.0168,0.0112,0.0336,0.0224,0.0168,-0.0,0.0614,0.0894,0.1286,0.1342,0.1454,0.1679,0.1959,0.2127,0.2071,0.1903,0.1792,0.1626,0.1737,0.1681,0.1569,0.168,0.1624,0.1458,0.129,0.1068,0.0909,0.0928,0.1232,0.1315,0.1337,0.1134,0.1045,0.1068,0.1075,0.1076,0.1077,0.1145,0.1347,0.1414,0.0807,0.1009,0.1279,0.1413,0.1481,0.148,0.1478,0.1398,0.1294,0.1264,0.1448,0.1556,0.1815,0.2079,0.1964,0.1903,0.168,0.1512,0.1512,0.1624,0.224,0.2858,0.3026,0.3251,0.3752,0.3916,0.3744,0.3802,0.3863,0.4079,0.4228,0.4551,0.4793,0.4925,0.5094,0.5209,0.5287,0.5262,0.5219,0.5163,0.5096,0.4891,0.4894,0.496,-0.6301,-0.5787,-0.5717,-0.555,-0.542,-0.5712,-0.5611,-0.5088,-0.4338,-0.405,-0.4187,-0.4331,-0.4349,-0.4294,-0.3793,-0.3403,-0.3236,-0.2856,-0.2635,-0.2298,-0.1345,-0.1009,-0.0897,-0.0897,-0.0897,-0.0897,-0.0785,-0.0673,-0.0729,-0.0224,0.028,0.0727,0.0895,0.1174,0.1343,0.1399,0.1229,0.1398,0.1679,0.1903,0.1903,0.2071,0.224,0.2465,0.2521,0.241,0.2296,0.2128,0.2017,0.1959,0.1847,0.1847,0.1847,0.1846,0.1624,0.1401,0.1233,0.1181,0.1128,0.1589,0.1846,0.1901,0.1487,0.1229,0.1326,0.1532,0.1601,0.1608,0.168,0.2014,0.2149,0.2348,0.2482,0.2683,0.2885,0.295,0.2883,0.2871,0.2843,0.2796,0.2688,0.2776,0.2761,0.2923,0.2637,0.2683,0.2681,0.285,0.2683,0.2291,0.2402,0.2625,0.313,0.3411,0.3688,0.4024,0.4132,0.4073,0.4184,0.4304,0.4524,0.4555,0.4589,0.4697,0.4925,0.5074,0.5128,0.522,0.5321,0.5342,0.5292,0.5226,0.5093,0.5226,0.5233,-0.5959,-0.5246,-0.5203,-0.5246,-0.5241,-0.4961,-0.4692,-0.4382,-0.399,-0.3896,-0.3945,-0.3863,-0.3904,-0.3633,-0.2738,-0.246,-0.2125,-0.1792,-0.1514,-0.1234,-0.1121,-0.0953,-0.0897,-0.0897,-0.0897,-0.0729,-0.0561,-0.0,-0.0112,0.0336,0.0952,0.1454,0.151,0.1903,0.2184,0.2354,0.2184,0.2128,0.2354,0.2354,0.241,0.2465,0.2635,0.2635,0.2691,0.2579,0.2521,0.2296,0.224,0.241,0.2184,0.2238,0.291,0.274,0.2516,0.246,0.2348,0.2237,0.1955,0.2179,0.2548,0.2673,0.246,0.2418,0.2431,0.2419,0.2435,0.2264,0.228,0.2614,0.295,0.3218,0.3351,0.3551,0.3687,0.3754,0.3682,0.3588,0.3556,0.3524,0.3469,0.3413,0.3497,0.3275,0.3042,0.3246,0.3458,0.3683,0.3685,0.3292,0.3125,0.3292,0.3458,0.3741,0.4018,0.4353,0.4408,0.4463,0.4463,0.4463,0.4484,0.4507,0.4524,0.4636,0.4833,0.4935,0.4992,0.5121,0.537,0.5408,0.5362,0.5359,0.5359,0.5359,0.5428,-0.575,-0.5072,-0.4985,-0.4941,-0.467,-0.4224,-0.3873,-0.3705,-0.3691,-0.372,-0.3701,-0.3791,-0.363,-0.3355,-0.2573,-0.2071,-0.179,-0.1344,-0.101,-0.101,-0.0897,-0.0897,-0.0897,-0.0897,-0.0897,-0.0673,-0.0,-0.0,-0.0,0.0895,0.1566,0.2071,0.2184,0.2354,0.2579,0.2635,0.2635,0.2635,0.2635,0.2691,0.2691,0.2691,0.2691,0.2691,0.2691,0.2691,0.2691,0.2465,0.2521,0.2691,0.2465,0.2687,0.3302,0.3241,0.3183,0.3128,0.2956,0.2788,0.2619,0.2952,0.3276,0.3444,0.35,0.368,0.3427,0.3264,0.3136,0.2994,0.3072,0.3282,0.3618,0.3885,0.3954,0.4087,0.4223,0.4359,0.4265,0.4035,0.4009,0.3981,0.3953,0.3886,0.3757,0.353,0.3503,0.3808,0.3959,0.407,0.4128,0.3959,0.3849,0.3959,0.3959,0.4128,0.4349,0.4463,0.4463,0.4463,0.4463,0.4463,0.4463,0.448,0.4514,0.4602,0.4721,0.484,0.4982,0.5138,0.536,0.5394,0.5428,0.5362,0.5359,0.5362,0.5428,-0.5712,-0.4985,-0.4985,-0.4543,-0.3924,-0.3575,-0.3303,-0.3063,-0.339,-0.3565,-0.3622,-0.3782,-0.3616,-0.3132,-0.2408,-0.1905,-0.1568,-0.1065,-0.0897,-0.0897,-0.0897,-0.0897,-0.0841,-0.0785,-0.0617,-0.0505,-0.0,-0.0,-0.0,0.1287,0.2127,0.2691,0.2635,0.2635,0.2691,0.2691,0.2691,0.2691,0.2691,0.2691,0.2691,0.2691,0.2691,0.2691,0.2691,0.2747,0.2802,0.2747,0.2747,0.2802,0.2856,0.3077,0.3466,0.3796,0.3793,0.3735,0.3622,0.3564,0.3506,0.3785,0.3901,0.4129,0.4492,0.4588,0.425,0.3998,0.3838,0.3855,0.4015,0.4084,0.4353,0.4489,0.4622,0.4755,0.4891,0.496,0.4878,0.4686,0.461,0.4556,0.4429,0.436,0.4302,0.4113,0.3949,0.4307,0.4405,0.446,0.4415,0.4359,0.4366,0.4366,0.4349,0.4294,0.4405,0.4463,0.4463,0.4463,0.4463,0.4463,0.4463,0.4484,0.457,0.4589,0.4667,0.4867,0.503,0.5155,0.5257,0.5404,0.5428,0.5428,0.5428,0.5428,0.5428,-0.5663,-0.4845,-0.4626,-0.428,-0.3884,-0.3527,-0.322,-0.2921,-0.3067,-0.324,-0.3299,-0.3166,-0.3011,-0.2792,-0.1898,-0.1397,-0.1177,-0.1065,-0.0897,-0.0897,-0.0897,-0.0729,-0.0673,-0.0336,-0.0168,0.0168,0.0728,0.1455,0.1793,0.2242,0.2521,0.2691,0.2691,0.2691,0.2691,0.2691,0.2691,0.2691,0.2691,0.2747,0.2747,0.2691,0.2691,0.2691,0.2691,0.2914,0.3079,0.319,0.3413,0.3635,0.3691,0.3965,0.4353,0.4688,0.4794,0.4736,0.4512,0.4457,0.4463,0.4522,0.4595,0.4584,0.4798,0.4883,0.4786,0.4672,0.4666,0.4701,0.4821,0.4888,0.5024,0.509,0.516,0.5292,0.5425,0.5425,0.5422,0.525,0.5078,0.5013,0.4877,0.4806,0.4748,0.4657,0.4535,0.448,0.4467,0.4467,0.4487,0.4442,0.4462,0.4455,0.447,0.446,0.4463,0.4463,0.4463,0.4463,0.4463,0.4463,0.4519,0.4477,0.4549,0.4535,0.4626,0.4833,0.4996,0.5087,0.5189,0.5311,0.5428,0.5428,0.5491,0.5557,0.5491,-0.5369,-0.4669,-0.4331,-0.3968,-0.3663,-0.3309,-0.3087,-0.2923,-0.2941,-0.3042,-0.3112,-0.2973,-0.2814,-0.2573,-0.1645,-0.1054,-0.0948,-0.0897,-0.0897,-0.0897,-0.0785,-0.0449,-0.0168,0.0224,0.028,0.0615,0.1343,0.2015,0.2579,0.2691,0.2635,0.2691,0.2691,0.2691,0.2691,0.2691,0.2691,0.2691,0.2691,0.2802,0.2912,0.2858,0.2691,0.2691,0.2914,0.3135,0.3357,0.3522,0.3799,0.4024,0.4135,0.4356,0.4688,0.4967,0.5187,0.5187,0.5128,0.5187,0.5199,0.5183,0.5106,0.5114,0.5199,0.5283,0.5154,0.5037,0.5058,0.5156,0.516,0.5226,0.5226,0.5292,0.5292,0.5362,0.5345,0.5338,0.5281,0.5186,0.5021,0.4979,0.4874,0.4819,0.4762,0.4694,0.4582,0.456,0.4487,0.4565,0.4572,0.4585,0.4589,0.4628,0.4661,0.4543,0.4463,0.4463,0.4463,0.4463,0.4463,0.4522,0.4525,0.4522,0.4477,0.4703,0.4812,0.4813,0.4955,0.5203,0.5264,0.5404,0.5425,0.5491,0.5624,0.5885,0.6017,-0.5031,-0.4509,-0.4042,-0.3734,-0.3442,-0.3046,-0.2909,-0.2912,-0.2915,-0.2885,-0.2939,-0.3137,-0.2849,-0.2144,-0.1759,-0.1303,-0.0992,-0.0892,-0.0895,-0.0891,-0.0896,-0.028,0.0336,0.0785,0.1064,0.1342,0.179,0.224,0.2691,0.2691,0.2691,0.2691,0.2691,0.2691,0.2691,0.2802,0.2858,0.2914,0.3023,0.3135,0.3135,0.3023,0.2968,0.3023,0.3246,0.3469,0.3633,0.3855,0.4076,0.4301,0.4577,0.4743,0.4853,0.5132,0.5246,0.5301,0.5301,0.5301,0.5325,0.5434,0.5441,0.5448,0.5547,0.5572,0.5421,0.5431,0.5456,0.5425,0.5428,0.5428,0.5428,0.5428,0.5428,0.5425,0.5342,0.5328,0.5243,0.5088,0.5053,0.4955,0.488,0.4823,0.4765,0.4701,0.4657,0.4572,0.4592,0.4667,0.4724,0.4745,0.4755,0.4893,0.5024,0.4834,0.4608,0.4581,0.4639,0.4463,0.4519,0.4584,0.4727,0.514,0.528,0.5072,0.5147,0.5359,0.5443,0.5639,0.5643,0.562,0.6017,0.6276,0.6342,0.6601,0.6798,-0.5059,-0.4623,-0.3916,-0.3712,-0.3649,-0.3132,-0.2909,-0.2909,-0.2909,-0.2887,-0.2826,-0.2761,-0.2144,-0.051,-0.0421,-0.0374,-0.0797,-0.0821,-0.0876,-0.0864,-0.05,0.0112,0.0841,0.1625,0.2184,0.2296,0.2354,0.2579,0.2691,0.2691,0.2691,0.2745,0.2747,0.2747,0.2802,0.2968,0.3246,0.3302,0.3524,0.3744,0.3691,0.3635,0.3577,0.3633,0.3855,0.4132,0.4356,0.4525,0.4743,0.4963,0.5077,0.5132,0.5132,0.5242,0.5301,0.5301,0.5301,0.5325,0.5378,0.5563,0.5529,0.5522,0.5647,0.5717,0.5585,0.5528,0.5529,0.5491,0.5428,0.5428,0.5428,0.5428,0.5428,0.5428,0.5418,0.5415,0.5308,0.5203,0.5098,0.4975,0.4857,0.4806,0.4752,0.4738,0.4772,0.4738,0.4802,0.487,0.5058,0.5022,0.4989,0.5231,0.5474,0.5002,0.4692,0.4834,0.4827,0.4643,0.4712,0.5106,0.5604,0.6227,0.6299,0.5912,0.6108,0.6415,0.6433,0.6197,0.6306,0.647,0.6863,0.7125,0.719,0.7321,0.7517]},{"header":{"parameterUnit":"m.s-1","parameterCategory":1,"la1":31.0,"la2":29.5877,"lo1":-88.7671,"lo2":-86.6584,"dy":0.0162,"dx":0.0185,"nx":115,"ny":88,"refTime":"2025-07-11T12:00:00:Z","depth":0,"parameterNumber":3,"parameterNumberName":"V-component_of_WINDS"},"data":[0.0,0.0,0.0,0.0,0.0,0.0,0.0,0.0,0.0,0.0,0.0,0.0,0.0,0.0,0.0,0.0,0.0,0.0,0.0,0.0,0.0,0.0,0.0,0.0,0.0,0.0,0.0,0.0,0.0,0.0,0.0,0.0,0.0,0.0,0.0,0.0,0.0,0.0,0.0,0.0,0.0,0.0,0.0,0.0,0.0,0.0,0.0,0.0,0.0,0.0,0.0,0.0,0.0,0.0,0.0,0.0,0.0,0.0,0.0,0.0,0.0,0.0,0.0,0.0,0.0,0.0,0.0,0.0,0.0,0.0,0.0,0.0,0.0,0.0,0.0,0.0,0.0,0.0,0.0,0.0,0.0,0.0,0.0,0.0,0.0,0.0,0.0,0.0,0.0,0.0,0.0,0.0,0.0,0.0,0.0,0.0,0.0,0.0,0.0,0.0,0.0,0.0,0.0,0.0,0.0,0.0,0.0,0.0,0.0,0.0,0.0,0.0,0.0,0.0,0.0,0.0,0.0,0.0,0.0,0.0,0.0,0.0,0.0,0.0,0.0,0.0,0.0,0.0,0.0,0.0,0.0,0.0,0.0,0.0,0.0,0.0,0.0,0.0,0.0,0.0,0.0,0.0,0.0,0.0,0.0,0.0,0.0,0.0,0.0,0.0,0.0,0.0,0.0,0.0,0.0,0.0,0.0,0.0,0.0,0.0,0.0,0.0,0.0,0.0,0.0,0.0,0.0,0.0,0.0,0.0,0.0,0.0,0.0,0.0,0.0,0.0,0.0,0.0,0.0,0.0,0.0,0.0,0.0,0.0,0.0,0.0,0.0,0.0,0.0,0.0,0.0,0.0,0.0,0.0,0.0,0.0,0.0,0.0,0.0,0.0,0.0,0.0,0.0,0.0,0.0,0.0,0.0,0.0,0.0,0.0,0.0,0.0,0.0,0.0,0.0,0.0,0.0,0.0,0.0,0.0,0.0,0.0,0.0,0.0,0.0,0.0,0.0,0.0,0.0,0.0,0.0,0.0,0.0,0.0,0.0,0.0,0.0,0.0,0.0,0.0,0.0,0.0,0.0,0.0,0.0,0.0,0.0,0.0,0.0,0.0,0.0,0.0,0.0,0.0,0.0,0.0,0.0,0.0,0.0,0.0,0.0,0.0,0.0,0.0,0.0,0.0,0.0,0.0,0.0,0.0,0.0,0.0,0.0,0.0,0.0,0.0,0.0,0.0,0.0,0.0,0.0,0.0,0.0,0.0,0.0,0.0,0.0,0.0,0.0,0.0,0.0,0.0,0.0,0.0,0.0,0.0,0.0,0.0,0.0,0.0,0.0,0.0,0.0,0.0,0.0,0.0,0.0,0.0,0.0,0.0,0.0,0.0,0.0,0.0,0.0,0.0,0.0,0.0,0.0,0.0,0.0,0.0,0.0,0.0,0.0,0.0,0.0,0.0,0.0,0.0,0.0,0.0,0.0,0.0,0.0,0.0,0.0,0.0,0.0,0.0,0.0,0.0,0.0,0.0,0.0,0.0,0.0,0.0,0.0,0.0,0.0,0.0,0.0,0.0,0.0,0.0,0.0,0.0,0.0,0.0,0.0,0.0,0.0,0.0,0.0,0.0,0.0,0.0,0.0,0.0,0.0,0.0,0.0,0.0,0.0,0.0,0.0,0.0,0.0,0.0,0.0,0.0,0.0,0.0,0.0,0.0,0.0,0.0,0.0,0.0,0.0,0.0,0.0,0.0,0.0,0.0,0.0,0.0,0.0,0.0,0.0,0.0,0.0,0.0,0.0,0.0,0.0,0.0,0.0,0.0,0.0,0.0,0.0,0.0,0.0,0.0,0.0,0.0,0.0,0.0,0.0,0.0,0.0,0.0,0.0,0.0,0.0,0.0,0.0,0.0,0.0,0.0,0.0,0.0,0.0,0.0,0.0,0.0,0.0,0.0,0.0,0.0,0.0,0.0,0.0,0.0,0.0,0.0,0.0,0.0,0.0,0.0,0.0,0.0,0.0,0.0,0.0,0.0,0.0,0.0,0.0,0.0,0.0,0.0,0.0,0.0,0.0,0.0,0.0,0.0,0.0,0.0,0.0,0.0,0.0,0.0,0.0,0.0,0.0,0.0,0.0,0.0,0.0,0.0,0.0,0.0,0.0,0.0,0.0,0.0,0.0,0.0,0.0,0.0,0.0,0.0,0.0,0.0,0.0,0.0,0.0,0.0,0.0,0.0,0.0,0.0,0.0,0.0,0.0,0.0,0.0,0.0,0.0,0.0,0.0,0.0,0.0,0.0,0.0,0.0,0.0,0.0,0.0,0.0,0.0,0.0,0.0,0.0,0.0,0.0,0.0,0.0,0.0,0.0,0.0,0.0,0.0,0.0,0.0,0.0,0.0,0.0,0.0,0.0,0.0,0.0,0.0,0.0,0.0,0.0,0.0,0.0,0.0,0.0,0.0,0.0,0.0,0.0,0.0,0.0,0.0,0.0,0.0,0.0,0.0,0.0,0.0,0.0,0.0,0.0,0.0,0.0,0.0,0.0,0.0,0.0,0.0,0.0,0.0,0.0,0.0,0.0,0.0,0.0,0.0,0.0,0.0,0.0,0.0,0.0,0.0,0.0,0.0,0.0,0.0,0.0,0.0,0.0,0.0,0.0,0.0,0.0,0.0,0.0,0.0,0.0,0.0,0.0,0.0,0.0,0.0,0.0,0.0,0.0,0.0,0.0,0.0,0.0,0.0,0.0,0.0,0.0,0.0,0.0,0.0,0.0,0.0,0.0,0.0,0.0,0.0,0.0,0.0,0.0,0.0,0.0,0.0,0.0,0.0,0.0,0.0,0.0,0.0,0.0,0.0,0.0,0.0,0.0,0.0,0.0,0.0,0.0,0.0,0.0,0.0,0.0,0.0,0.0,0.0,0.0,0.0,0.0,0.0,0.0,0.0,0.0,0.0,0.0,0.0,0.0,0.0,0.0,0.0,0.0,0.0,0.0,0.0,0.0,0.0,0.0,0.0,0.0,0.0,0.0,0.0,0.0,0.0,0.0,0.0,0.0,0.0,0.0,0.0,0.0,0.0,0.0,0.0,0.0,0.0,0.0,0.0,0.0,0.0,0.0,0.0,0.0,0.0,0.0,0.0,0.0,0.0,0.0,0.0,0.0,0.0,0.0,0.0,0.0,0.0,0.0,0.0,0.0,0.0,0.0,0.0,0.0,0.0,0.0,0.0,0.0,0.0,0.0,0.0,0.0,0.0,0.0,0.0,0.0,0.0,0.0,0.0,0.0,0.0,0.0,0.0,0.0,0.0,0.0,0.0,0.0,0.0,0.0,0.0,0.0,0.0,0.0,0.0,0.0,0.0,0.0,0.0,0.0,0.0,0.0,0.0,0.0,0.0,0.0,0.0,0.0,0.0,0.0,0.0,0.0,0.0,0.0,0.0,0.0,0.0,0.0,0.0,0.0,0.0,0.0,0.0,0.0,0.0,0.0,0.0,0.0,0.0,0.0,0.0,0.0,0.0,0.0,0.0,0.0,0.0,0.0,0.0,0.0,0.0,0.0,0.0,0.0,0.0,0.0,0.0,0.0,0.0,0.0,0.0,0.0,0.0,0.0,0.0,0.0,0.0,0.0,0.0,0.0,0.0,0.0,0.0,0.0,0.0,0.0,0.0,0.0,0.0,0.0,0.0,0.0,0.0,0.0,0.0,0.0,0.0,0.0,0.0,0.0,0.0,0.0,0.0,0.0,0.0,0.0,0.0,0.0,0.0,0.0,0.0,0.0,0.0,0.0,0.0,0.0,0.0,0.0,0.0,0.0,0.0,0.0,0.0,0.0,0.0,0.0,0.0,0.0,0.0,0.0,0.0,0.0,0.0,0.0,0.0,0.0,0.0,0.0,0.0,0.0,0.0,0.0,0.0,0.0,0.0,0.0,0.0,0.0,0.0,0.0,0.0,0.0,0.0,0.0,0.0,0.0,0.0,0.0,0.0,0.0,0.0,0.0,0.0,0.0,0.0,0.0,0.0,0.0,0.0,0.0,0.0,0.0,0.0,0.0,0.0,0.0,0.0,0.0,0.0,0.0,0.0,0.0,0.0,0.0,0.0,0.0,0.0,0.0,0.0,0.0,0.0,0.0,0.0,0.0,0.0,0.0,0.0,0.0,0.0,0.0,0.0,0.0,0.0,0.0,0.0,0.0,0.0,0.0,0.0,0.0,0.0,0.0,0.0,0.0,0.0,0.0,0.0,0.0,0.0,0.0,0.0,0.0,0.0,0.0,-2.0861,0.0,0.0,0.0,0.0,0.0,0.0,0.0,0.0,0.0,0.0,0.0,0.0,0.0,0.0,0.0,0.0,0.0,0.0,0.0,0.0,0.0,0.0,0.0,0.0,0.0,0.0,0.0,0.0,0.0,0.0,0.0,0.0,0.0,0.0,0.0,0.0,0.0,0.0,0.0,0.0,0.0,0.0,0.0,0.0,0.0,0.0,0.0,0.0,0.0,0.0,0.0,0.0,0.0,0.0,0.0,0.0,0.0,0.0,0.0,0.0,0.0,0.0,0.0,0.0,0.0,0.0,0.0,0.0,0.0,0.0,0.0,0.0,0.0,0.0,0.0,0.0,0.0,0.0,0.0,0.0,0.0,0.0,0.0,0.0,0.0,0.0,0.0,0.0,0.0,0.0,0.0,0.0,0.0,0.0,0.0,0.0,0.0,0.0,0.0,0.0,0.0,0.0,0.0,0.0,0.0,0.0,0.0,0.0,0.0,0.0,-2.1618,-2.1395,-2.1623,-2.1512,-2.0952,0.0,0.0,0.0,0.0,0.0,0.0,0.0,0.0,0.0,0.0,0.0,0.0,0.0,0.0,0.0,0.0,0.0,0.0,0.0,0.0,0.0,0.0,0.0,0.0,0.0,0.0,0.0,0.0,0.0,0.0,0.0,0.0,0.0,0.0,0.0,0.0,0.0,0.0,0.0,0.0,0.0,0.0,0.0,0.0,0.0,0.0,0.0,0.0,0.0,0.0,0.0,0.0,0.0,0.0,0.0,0.0,0.0,0.0,0.0,0.0,0.0,0.0,0.0,0.0,0.0,0.0,0.0,0.0,0.0,0.0,0.0,0.0,0.0,0.0,0.0,0.0,0.0,0.0,0.0,0.0,0.0,0.0,0.0,0.0,0.0,0.0,0.0,0.0,0.0,0.0,0.0,0.0,0.0,0.0,0.0,0.0,0.0,0.0,0.0,0.0,0.0,0.0,0.0,0.0,0.0,0.0,0.0,0.0,0.0,0.0,0.0,0.0,-2.2237,-2.2014,-2.0734,0.0,0.0,0.0,0.0,0.0,0.0,0.0,0.0,0.0,0.0,0.0,0.0,0.0,0.0,0.0,0.0,0.0,0.0,0.0,0.0,0.0,0.0,0.0,0.0,0.0,0.0,0.0,0.0,0.0,0.0,0.0,0.0,0.0,0.0,0.0,0.0,0.0,0.0,0.0,0.0,0.0,0.0,0.0,0.0,0.0,0.0,0.0,0.0,0.0,0.0,0.0,0.0,0.0,0.0,0.0,0.0,0.0,0.0,0.0,0.0,0.0,0.0,0.0,0.0,0.0,0.0,0.0,0.0,0.0,0.0,0.0,0.0,0.0,0.0,0.0,0.0,0.0,0.0,0.0,0.0,0.0,0.0,0.0,0.0,0.0,0.0,0.0,0.0,0.0,0.0,0.0,0.0,0.0,0.0,0.0,0.0,0.0,0.0,0.0,0.0,0.0,0.0,0.0,0.0,0.0,0.0,0.0,0.0,0.0,0.0,-2.2575,-2.427,-2.4039,0.0,-2.0636,0.0,0.0,0.0,0.0,0.0,0.0,0.0,0.0,0.0,0.0,0.0,0.0,0.0,0.0,0.0,0.0,0.0,0.0,0.0,0.0,0.0,0.0,0.0,0.0,0.0,0.0,0.0,0.0,0.0,0.0,0.0,0.0,0.0,0.0,0.0,0.0,0.0,0.0,0.0,0.0,0.0,0.0,0.0,0.0,0.0,0.0,0.0,0.0,0.0,0.0,0.0,0.0,0.0,0.0,0.0,0.0,0.0,0.0,0.0,0.0,0.0,0.0,0.0,0.0,0.0,0.0,0.0,0.0,0.0,0.0,0.0,0.0,0.0,0.0,0.0,0.0,0.0,0.0,0.0,0.0,0.0,0.0,0.0,0.0,0.0,0.0,0.0,0.0,0.0,0.0,0.0,0.0,0.0,0.0,0.0,0.0,0.0,0.0,0.0,0.0,0.0,0.0,0.0,0.0,0.0,0.0,0.0,0.0,0.0,0.0,-2.2418,-2.3435,-2.3111,-2.2269,0.0,0.0,0.0,0.0,0.0,0.0,0.0,0.0,0.0,0.0,0.0,0.0,0.0,0.0,0.0,0.0,0.0,0.0,0.0,0.0,0.0,0.0,0.0,0.0,0.0,0.0,0.0,0.0,0.0,0.0,0.0,0.0,0.0,0.0,0.0,0.0,0.0,0.0,0.0,0.0,0.0,0.0,0.0,0.0,0.0,0.0,0.0,0.0,0.0,0.0,0.0,0.0,0.0,0.0,0.0,0.0,0.0,0.0,0.0,0.0,0.0,0.0,0.0,0.0,0.0,0.0,0.0,0.0,0.0,0.0,0.0,0.0,0.0,0.0,0.0,0.0,0.0,0.0,0.0,0.0,0.0,0.0,0.0,0.0,0.0,0.0,0.0,0.0,0.0,0.0,0.0,0.0,0.0,0.0,0.0,0.0,0.0,0.0,0.0,0.0,0.0,0.0,0.0,0.0,0.0,0.0,0.0,0.0,0.0,0.0,-2.1346,-2.2303,-2.3123,-2.3045,-2.2468,-2.1414,0.0,0.0,0.0,0.0,0.0,0.0,0.0,0.0,0.0,0.0,0.0,0.0,0.0,0.0,0.0,0.0,0.0,0.0,0.0,0.0,0.0,0.0,0.0,0.0,0.0,0.0,0.0,0.0,0.0,0.0,0.0,0.0,0.0,0.0,0.0,0.0,0.0,0.0,0.0,0.0,0.0,0.0,0.0,0.0,0.0,0.0,0.0,0.0,0.0,0.0,0.0,0.0,0.0,0.0,0.0,0.0,0.0,0.0,0.0,0.0,0.0,0.0,0.0,0.0,0.0,0.0,0.0,0.0,0.0,0.0,0.0,0.0,0.0,0.0,0.0,0.0,0.0,0.0,0.0,0.0,0.0,0.0,0.0,0.0,0.0,0.0,0.0,0.0,0.0,0.0,0.0,0.0,0.0,0.0,0.0,0.0,0.0,0.0,0.0,0.0,0.0,0.0,0.0,0.0,0.0,0.0,0.0,0.0,-2.2104,-2.1652,-2.239,-2.447,-2.4899,-2.406,0.0,0.0,0.0,0.0,0.0,0.0,0.0,0.0,0.0,0.0,0.0,0.0,0.0,0.0,0.0,0.0,0.0,0.0,0.0,0.0,0.0,0.0,0.0,0.0,0.0,0.0,0.0,0.0,0.0,0.0,0.0,0.0,0.0,0.0,0.0,0.0,0.0,0.0,0.0,0.0,0.0,0.0,0.0,0.0,0.0,0.0,0.0,0.0,0.0,0.0,0.0,0.0,0.0,0.0,0.0,0.0,0.0,0.0,0.0,0.0,0.0,0.0,0.0,0.0,0.0,0.0,0.0,0.0,0.0,0.0,0.0,0.0,0.0,0.0,0.0,0.0,0.0,0.0,0.0,0.0,0.0,0.0,0.0,0.0,0.0,0.0,0.0,0.0,0.0,0.0,0.0,0.0,0.0,0.0,0.0,0.0,0.0,0.0,0.0,0.0,0.0,0.0,0.0,0.0,0.0,0.0,0.0,0.0,0.0,-2.1228,-2.1764,-2.2826,-2.4431,-2.3228,-2.2114,0.0,0.0,0.0,0.0,0.0,0.0,0.0,0.0,0.0,0.0,0.0,0.0,0.0,0.0,0.0,0.0,0.0,0.0,0.0,0.0,0.0,0.0,0.0,0.0,0.0,0.0,0.0,0.0,0.0,0.0,0.0,0.0,0.0,0.0,0.0,0.0,0.0,0.0,0.0,0.0,0.0,0.0,0.0,0.0,0.0,0.0,0.0,0.0,0.0,0.0,0.0,0.0,0.0,0.0,0.0,0.0,0.0,0.0,0.0,0.0,0.0,0.0,0.0,0.0,0.0,0.0,0.0,0.0,0.0,0.0,0.0,0.0,0.0,0.0,0.0,0.0,0.0,0.0,0.0,0.0,0.0,0.0,0.0,0.0,0.0,0.0,0.0,0.0,0.0,0.0,0.0,0.0,0.0,0.0,0.0,0.0,0.0,0.0,0.0,0.0,0.0,0.0,0.0,0.0,0.0,0.0,0.0,0.0,0.0,-2.1006,0.0,-2.317,-2.3803,-2.2353,-2.1239,0.0,0.0,0.0,0.0,0.0,0.0,0.0,0.0,0.0,0.0,0.0,0.0,0.0,0.0,0.0,0.0,0.0,0.0,0.0,0.0,0.0,0.0,0.0,0.0,0.0,0.0,0.0,0.0,0.0,0.0,0.0,0.0,0.0,0.0,0.0,0.0,0.0,0.0,0.0,0.0,0.0,0.0,0.0,0.0,0.0,0.0,0.0,0.0,0.0,0.0,0.0,0.0,0.0,0.0,0.0,0.0,0.0,0.0,0.0,0.0,0.0,0.0,0.0,0.0,0.0,0.0,0.0,0.0,0.0,0.0,0.0,0.0,0.0,0.0,0.0,0.0,0.0,0.0,0.0,0.0,0.0,0.0,0.0,0.0,0.0,0.0,0.0,0.0,0.0,0.0,0.0,0.0,0.0,0.0,0.0,0.0,0.0,0.0,0.0,0.0,0.0,0.0,0.0,0.0,0.0,0.0,0.0,0.0,-2.012,-2.1623,-2.2911,-2.3248,-2.2734,-2.2621,-2.1698,0.0,0.0,0.0,0.0,0.0,0.0,0.0,0.0,0.0,0.0,0.0,0.0,0.0,0.0,0.0,0.0,0.0,0.0,0.0,0.0,0.0,0.0,0.0,0.0,0.0,0.0,0.0,0.0,0.0,0.0,0.0,0.0,0.0,0.0,0.0,0.0,0.0,0.0,0.0,0.0,0.0,0.0,0.0,0.0,0.0,0.0,0.0,0.0,0.0,0.0,0.0,0.0,0.0,0.0,0.0,0.0,0.0,0.0,0.0,0.0,0.0,0.0,0.0,0.0,0.0,0.0,0.0,0.0,0.0,0.0,0.0,0.0,0.0,0.0,0.0,0.0,0.0,0.0,0.0,0.0,0.0,0.0,0.0,0.0,0.0,0.0,0.0,0.0,0.0,0.0,0.0,0.0,0.0,0.0,0.0,0.0,0.0,0.0,0.0,0.0,0.0,0.0,0.0,0.0,0.0,0.0,0.0,0.0,0.0,-2.1285,-2.2094,-2.2585,-2.2729,-2.1866,-2.0939,0.0,0.0,0.0,0.0,0.0,0.0,0.0,0.0,0.0,0.0,0.0,0.0,0.0,0.0,0.0,0.0,0.0,0.0,0.0,0.0,0.0,0.0,0.0,0.0,0.0,0.0,0.0,0.0,0.0,0.0,0.0,0.0,0.0,0.0,0.0,0.0,0.0,0.0,0.0,0.0,0.0,0.0,0.0,0.0,0.0,0.0,0.0,0.0,0.0,0.0,0.0,0.0,0.0,0.0,0.0,0.0,0.0,0.0,0.0,0.0,0.0,0.0,0.0,0.0,0.0,0.0,0.0,0.0,0.0,0.0,0.0,0.0,0.0,0.0,0.0,0.0,0.0,0.0,0.0,0.0,0.0,0.0,0.0,0.0,0.0,0.0,0.0,0.0,0.0,0.0,0.0,0.0,0.0,0.0,0.0,0.0,0.0,0.0,0.0,0.0,0.0,0.0,0.0,0.0,0.0,0.0,0.0,0.0,0.0,-2.1111,-2.1959,-2.2404,-2.2385,-2.1507,-2.0717,-2.0118,0.0,0.0,0.0,0.0,0.0,0.0,0.0,0.0,0.0,0.0,0.0,0.0,0.0,0.0,0.0,0.0,0.0,0.0,0.0,0.0,0.0,0.0,0.0,0.0,0.0,0.0,0.0,0.0,0.0,0.0,0.0,0.0,0.0,0.0,0.0,0.0,0.0,0.0,0.0,0.0,0.0,0.0,0.0,0.0,0.0,0.0,0.0,0.0,0.0,0.0,0.0,0.0,0.0,0.0,0.0,0.0,0.0,0.0,0.0,0.0,0.0,0.0,0.0,0.0,0.0,0.0,0.0,0.0,0.0,0.0,0.0,0.0,0.0,0.0,0.0,0.0,0.0,0.0,0.0,0.0,0.0,0.0,0.0,0.0,0.0,0.0,0.0,0.0,0.0,0.0,0.0,0.0,0.0,0.0,0.0,0.0,0.0,0.0,0.0,0.0,0.0,0.0,0.0,0.0,0.0,0.0,0.0,0.0,-2.0905,-2.2222,-2.2539,-2.1814,-2.1535,-2.1057,0.0,0.0,0.0,0.0,0.0,0.0,0.0,0.0,0.0,0.0,0.0,0.0,0.0,0.0,0.0,0.0,0.0,0.0,0.0,0.0,0.0,0.0,0.0,0.0,0.0,0.0,0.0,0.0,0.0,0.0,0.0,0.0,0.0,0.0,0.0,0.0,0.0,0.0,0.0,0.0,0.0,0.0,0.0,0.0,0.0,0.0,0.0,0.0,0.0,0.0,0.0,0.0,0.0,0.0,0.0,0.0,0.0,0.0,0.0,0.0,0.0,0.0,0.0,0.0,0.0,0.0,0.0,0.0,0.0,0.0,0.0,0.0,0.0,0.0,0.0,0.0,0.0,0.0,0.0,0.0,0.0,0.0,0.0,0.0,0.0,0.0,0.0,0.0,0.0,0.0,0.0,0.0,0.0,0.0,0.0,0.0,0.0,0.0,0.0,0.0,0.0,0.0,0.0,0.0,0.0,0.0,0.0,0.0,0.0,-1.978,-2.0557,-2.1484,-2.2483,-2.1689,-2.1186,0.0,0.0,0.0,0.0,0.0,0.0,0.0,0.0,0.0,0.0,0.0,0.0,0.0,0.0,0.0,0.0,0.0,0.0,0.0,0.0,0.0,0.0,0.0,0.0,0.0,0.0,0.0,0.0,0.0,0.0,0.0,0.0,0.0,0.0,0.0,0.0,0.0,0.0,0.0,0.0,0.0,0.0,0.0,0.0,0.0,0.0,0.0,0.0,0.0,0.0,0.0,0.0,0.0,0.0,0.0,0.0,0.0,0.0,0.0,0.0,0.0,0.0,0.0,0.0,0.0,0.0,0.0,0.0,0.0,0.0,0.0,0.0,0.0,0.0,0.0,0.0,0.0,0.0,0.0,0.0,0.0,0.0,0.0,0.0,0.0,0.0,0.0,0.0,0.0,0.0,0.0,0.0,0.0,0.0,0.0,0.0,0.0,0.0,0.0,0.0,0.0,0.0,0.0,0.0,0.0,0.0,0.0,0.0,-1.9781,-1.9307,-1.9642,-2.0543,-2.1946,-2.1281,-2.0988,0.0,0.0,0.0,0.0,0.0,0.0,0.0,0.0,0.0,0.0,0.0,0.0,0.0,0.0,0.0,0.0,0.0,0.0,0.0,0.0,0.0,0.0,0.0,0.0,0.0,0.0,0.0,0.0,0.0,0.0,0.0,0.0,0.0,0.0,0.0,0.0,0.0,0.0,0.0,0.0,0.0,0.0,0.0,0.0,0.0,0.0,0.0,0.0,0.0,0.0,0.0,0.0,0.0,0.0,0.0,0.0,0.0,0.0,0.0,0.0,0.0,0.0,0.0,0.0,0.0,0.0,0.0,0.0,0.0,0.0,0.0,0.0,0.0,0.0,0.0,0.0,0.0,0.0,0.0,0.0,0.0,0.0,0.0,0.0,0.0,0.0,0.0,0.0,0.0,0.0,0.0,0.0,0.0,0.0,0.0,0.0,0.0,0.0,0.0,0.0,0.0,0.0,0.0,0.0,0.0,0.0,0.0,0.0,-1.9426,-1.9114,-1.921,-1.964,-2.0399,-2.046,-2.0599,0.0,0.0,0.0,0.0,0.0,0.0,0.0,0.0,0.0,0.0,0.0,0.0,0.0,0.0,0.0,0.0,0.0,0.0,0.0,0.0,0.0,0.0,0.0,0.0,0.0,0.0,0.0,0.0,0.0,0.0,0.0,0.0,0.0,0.0,0.0,0.0,0.0,0.0,0.0,0.0,0.0,0.0,0.0,0.0,0.0,0.0,0.0,0.0,0.0,0.0,0.0,0.0,0.0,0.0,0.0,0.0,0.0,0.0,0.0,0.0,0.0,0.0,0.0,0.0,0.0,0.0,0.0,0.0,0.0,0.0,0.0,0.0,0.0,0.0,0.0,0.0,0.0,0.0,0.0,0.0,0.0,0.0,0.0,0.0,0.0,0.0,0.0,0.0,0.0,0.0,0.0,0.0,0.0,0.0,0.0,0.0,0.0,0.0,0.0,0.0,0.0,0.0,0.0,0.0,0.0,0.0,0.0,0.0,-1.8341,-1.7909,-1.8261,-1.8557,-1.8815,-1.9455,-2.033,0.0,0.0,0.0,0.0,0.0,0.0,0.0,0.0,0.0,0.0,0.0,0.0,0.0,0.0,0.0,0.0,0.0,0.0,0.0,0.0,0.0,0.0,0.0,0.0,0.0,0.0,0.0,0.0,0.0,0.0,0.0,0.0,0.0,0.0,0.0,0.0,0.0,0.0,0.0,0.0,0.0,0.0,0.0,0.0,0.0,0.0,0.0,0.0,-2.3939,0.0,0.0,0.0,0.0,0.0,0.0,0.0,0.0,0.0,0.0,0.0,0.0,0.0,0.0,0.0,0.0,0.0,0.0,0.0,0.0,0.0,0.0,0.0,0.0,0.0,0.0,0.0,0.0,0.0,0.0,0.0,0.0,0.0,0.0,0.0,0.0,0.0,0.0,0.0,0.0,0.0,0.0,0.0,0.0,0.0,0.0,0.0,0.0,0.0,0.0,0.0,0.0,0.0,0.0,0.0,0.0,0.0,0.0,0.0,-1.7922,-1.7516,-1.8055,-1.8397,-1.8511,-1.9317,-2.0183,0.0,0.0,0.0,0.0,0.0,0.0,0.0,0.0,0.0,0.0,0.0,0.0,0.0,0.0,0.0,0.0,0.0,0.0,0.0,0.0,0.0,0.0,0.0,0.0,0.0,0.0,0.0,0.0,0.0,0.0,0.0,0.0,0.0,0.0,0.0,0.0,0.0,0.0,0.0,0.0,0.0,0.0,0.0,0.0,0.0,0.0,0.0,0.0,0.0,0.0,0.0,0.0,0.0,0.0,0.0,0.0,0.0,0.0,0.0,0.0,0.0,0.0,0.0,0.0,0.0,0.0,0.0,0.0,0.0,0.0,0.0,0.0,0.0,0.0,0.0,0.0,0.0,0.0,0.0,0.0,0.0,0.0,0.0,0.0,0.0,0.0,0.0,0.0,0.0,0.0,0.0,0.0,0.0,0.0,0.0,0.0,0.0,0.0,0.0,0.0,0.0,0.0,0.0,0.0,0.0,0.0,0.0,-1.7828,-1.7733,-1.7598,-1.8187,-1.8602,-1.8803,-1.9675,-2.0235,-2.0478,0.0,0.0,0.0,0.0,0.0,0.0,0.0,0.0,0.0,0.0,0.0,0.0,0.0,0.0,0.0,0.0,0.0,0.0,0.0,0.0,0.0,0.0,0.0,0.0,0.0,0.0,0.0,0.0,0.0,0.0,0.0,0.0,0.0,0.0,0.0,0.0,0.0,0.0,-2.1641,-2.3131,0.0,0.0,0.0,0.0,0.0,0.0,0.0,0.0,-2.5929,0.0,0.0,0.0,0.0,0.0,0.0,0.0,0.0,0.0,0.0,0.0,0.0,0.0,0.0,0.0,0.0,0.0,0.0,0.0,0.0,0.0,0.0,0.0,0.0,0.0,0.0,0.0,0.0,0.0,0.0,0.0,0.0,0.0,0.0,0.0,0.0,0.0,0.0,0.0,0.0,0.0,0.0,0.0,0.0,0.0,0.0,0.0,0.0,0.0,0.0,0.0,0.0,0.0,0.0,0.0,0.0,-1.7557,-1.757,-1.7639,-1.776,-1.8277,-1.8817,-1.9281,-2.0135,-2.0644,-2.0761,0.0,0.0,0.0,0.0,0.0,0.0,0.0,0.0,0.0,0.0,0.0,0.0,0.0,0.0,0.0,0.0,0.0,0.0,0.0,0.0,0.0,0.0,0.0,0.0,0.0,0.0,0.0,0.0,0.0,0.0,0.0,0.0,0.0,0.0,0.0,0.0,0.0,0.0,0.0,-2.3805,-2.5069,0.0,0.0,0.0,0.0,0.0,0.0,0.0,0.0,-2.8234,0.0,0.0,0.0,0.0,0.0,0.0,0.0,0.0,0.0,0.0,0.0,0.0,0.0,0.0,0.0,0.0,0.0,0.0,0.0,0.0,0.0,0.0,0.0,0.0,0.0,0.0,0.0,0.0,0.0,0.0,0.0,0.0,0.0,0.0,0.0,0.0,0.0,0.0,0.0,0.0,0.0,0.0,0.0,0.0,0.0,0.0,0.0,0.0,0.0,0.0,0.0,0.0,0.0,0.0,0.0,-1.7365,-1.7557,-1.776,-1.7922,-1.8549,-1.908,-1.9457,-2.0254,-2.0744,0.0,0.0,0.0,0.0,0.0,0.0,0.0,0.0,0.0,0.0,0.0,0.0,0.0,0.0,0.0,0.0,0.0,0.0,0.0,0.0,0.0,0.0,0.0,0.0,0.0,0.0,0.0,0.0,0.0,0.0,0.0,0.0,0.0,0.0,0.0,0.0,0.0,0.0,0.0,0.0,-2.3885,-2.5135,-2.5887,0.0,0.0,0.0,0.0,0.0,0.0,-2.7028,-2.7886,0.0,0.0,0.0,0.0,0.0,0.0,0.0,0.0,0.0,0.0,0.0,0.0,0.0,0.0,0.0,0.0,0.0,0.0,0.0,0.0,0.0,0.0,0.0,0.0,0.0,0.0,0.0,0.0,0.0,0.0,0.0,0.0,0.0,0.0,0.0,0.0,0.0,0.0,0.0,0.0,0.0,0.0,0.0,0.0,0.0,0.0,0.0,0.0,0.0,0.0,0.0,0.0,0.0,0.0,0.0,-1.7365,-1.7747,-1.8028,-1.8226,-1.8884,-1.9369,-1.9603,-2.0339,-2.0744,0.0,0.0,0.0,0.0,0.0,0.0,0.0,0.0,0.0,0.0,0.0,0.0,0.0,0.0,0.0,0.0,0.0,0.0,0.0,0.0,0.0,0.0,0.0,0.0,0.0,0.0,0.0,0.0,0.0,0.0,0.0,0.0,0.0,0.0,0.0,0.0,0.0,0.0,0.0,0.0,0.0,-2.5609,-2.5942,-2.6002,0.0,0.0,0.0,0.0,-2.6225,-2.6726,0.0,0.0,0.0,0.0,0.0,0.0,0.0,0.0,0.0,0.0,0.0,0.0,0.0,0.0,0.0,0.0,0.0,0.0,0.0,0.0,0.0,0.0,0.0,0.0,0.0,0.0,0.0,0.0,0.0,0.0,0.0,0.0,0.0,0.0,0.0,0.0,0.0,0.0,0.0,0.0,0.0,0.0,0.0,0.0,0.0,0.0,0.0,0.0,0.0,0.0,0.0,0.0,0.0,0.0,0.0,0.0,-1.776,-1.8238,-1.8664,-1.8988,-1.9221,-1.9566,-1.9919,-2.0494,-2.0794,0.0,0.0,0.0,0.0,0.0,0.0,0.0,0.0,0.0,0.0,0.0,0.0,0.0,0.0,0.0,0.0,0.0,0.0,0.0,0.0,0.0,0.0,0.0,0.0,0.0,0.0,0.0,0.0,0.0,0.0,0.0,0.0,0.0,0.0,0.0,0.0,0.0,0.0,0.0,0.0,0.0,-2.7454,-2.6784,-2.6651,-2.6811,0.0,0.0,-2.6982,-2.8311,-2.8058,0.0,0.0,0.0,0.0,0.0,0.0,0.0,0.0,0.0,0.0,0.0,0.0,0.0,0.0,0.0,0.0,0.0,0.0,0.0,0.0,0.0,0.0,0.0,0.0,0.0,0.0,0.0,0.0,0.0,0.0,0.0,0.0,0.0,0.0,0.0,0.0,0.0,0.0,0.0,0.0,0.0,0.0,0.0,0.0,0.0,0.0,0.0,0.0,0.0,0.0,0.0,0.0,0.0,0.0,0.0,-1.8082,-1.8226,-1.864,-1.8997,-1.9273,-1.9566,-1.9884,-2.0166,-2.0561,-2.081,0.0,0.0,0.0,0.0,0.0,0.0,0.0,0.0,0.0,0.0,0.0,0.0,0.0,0.0,0.0,0.0,0.0,0.0,0.0,0.0,0.0,0.0,0.0,0.0,0.0,0.0,0.0,0.0,0.0,0.0,0.0,0.0,0.0,0.0,0.0,0.0,0.0,0.0,0.0,0.0,0.0,0.0,-2.7131,-2.6968,0.0,0.0,0.0,-2.7139,-2.8031,0.0,0.0,0.0,0.0,0.0,0.0,0.0,0.0,0.0,0.0,0.0,0.0,0.0,0.0,0.0,0.0,0.0,0.0,0.0,0.0,0.0,0.0,0.0,0.0,0.0,0.0,0.0,0.0,0.0,0.0,0.0,0.0,0.0,0.0,0.0,0.0,0.0,0.0,0.0,0.0,0.0,0.0,0.0,0.0,0.0,0.0,0.0,0.0,0.0,0.0,0.0,0.0,0.0,0.0,0.0,0.0,0.0,-1.8679,-1.9087,-1.9398,-1.953,-1.9869,-2.0096,-2.027,-2.0595,0.0,0.0,0.0,0.0,0.0,0.0,0.0,0.0,0.0,0.0,0.0,0.0,0.0,0.0,0.0,0.0,0.0,0.0,0.0,0.0,0.0,0.0,0.0,0.0,0.0,0.0,0.0,-1.9834,0.0,0.0,0.0,0.0,0.0,0.0,0.0,0.0,0.0,0.0,0.0,0.0,0.0,0.0,-2.7091,-2.7339,-2.7158,-2.7179,0.0,0.0,-2.722,-2.7719,-2.8312,-2.8687,0.0,0.0,0.0,0.0,0.0,0.0,0.0,0.0,0.0,0.0,0.0,0.0,0.0,0.0,0.0,0.0,0.0,0.0,0.0,0.0,0.0,0.0,0.0,0.0,0.0,0.0,0.0,0.0,0.0,0.0,0.0,0.0,0.0,0.0,0.0,0.0,0.0,0.0,0.0,0.0,0.0,0.0,0.0,0.0,0.0,0.0,0.0,0.0,0.0,0.0,0.0,0.0,0.0,0.0,-1.8741,-1.9184,-1.969,-1.9919,-1.997,-2.0045,-2.0115,-2.01,-2.0545,-2.081,0.0,0.0,0.0,0.0,0.0,0.0,0.0,0.0,0.0,0.0,0.0,0.0,0.0,0.0,0.0,0.0,0.0,0.0,0.0,0.0,0.0,0.0,0.0,0.0,0.0,0.0,0.0,0.0,0.0,0.0,0.0,0.0,0.0,0.0,0.0,0.0,0.0,0.0,0.0,0.0,0.0,-2.8026,-2.7385,-2.7277,-2.7504,0.0,-2.7705,-2.7446,-2.8208,-2.8396,-2.8432,-2.8406,0.0,0.0,0.0,0.0,0.0,0.0,0.0,0.0,0.0,0.0,0.0,0.0,0.0,0.0,0.0,0.0,0.0,0.0,0.0,0.0,0.0,0.0,0.0,0.0,0.0,0.0,0.0,0.0,0.0,0.0,0.0,0.0,0.0,0.0,0.0,0.0,0.0,0.0,0.0,0.0,0.0,0.0,0.0,0.0,0.0,0.0,0.0,0.0,0.0,0.0,0.0,0.0,0.0,-1.9169,-1.9566,-1.9848,-2.0025,-2.0045,-2.0065,-2.017,-2.0342,-2.0628,-2.086,0.0,0.0,0.0,0.0,0.0,0.0,0.0,0.0,0.0,0.0,0.0,0.0,0.0,0.0,0.0,0.0,0.0,0.0,0.0,0.0,0.0,0.0,0.0,0.0,0.0,0.0,0.0,0.0,-2.2191,-2.2345,-2.3031,0.0,0.0,0.0,0.0,0.0,0.0,0.0,0.0,0.0,0.0,-2.7343,-2.751,-2.736,0.0,0.0,-2.7769,-2.768,-2.8317,-2.7993,-2.7813,-2.8308,-2.8018,0.0,0.0,0.0,0.0,0.0,0.0,0.0,0.0,0.0,0.0,0.0,0.0,0.0,0.0,0.0,0.0,0.0,0.0,0.0,0.0,0.0,0.0,0.0,0.0,0.0,0.0,0.0,0.0,0.0,0.0,0.0,0.0,0.0,0.0,0.0,0.0,0.0,0.0,0.0,0.0,0.0,0.0,0.0,0.0,0.0,0.0,0.0,0.0,0.0,0.0,0.0,0.0,-1.9634,-1.9863,-1.999,-1.9954,-1.9894,-1.9645,-1.9746,-2.0182,-2.038,-2.067,0.0,0.0,0.0,0.0,0.0,0.0,0.0,0.0,0.0,0.0,0.0,0.0,0.0,0.0,0.0,0.0,0.0,0.0,0.0,0.0,0.0,0.0,0.0,0.0,0.0,0.0,0.0,0.0,-2.2478,-2.2565,-2.308,0.0,0.0,0.0,0.0,0.0,0.0,0.0,0.0,0.0,0.0,-2.7058,-2.7613,-2.7522,-2.7491,-2.7922,-2.7777,-2.7742,-2.8119,-2.7763,-2.7655,-2.8183,0.0,0.0,0.0,0.0,0.0,0.0,0.0,0.0,0.0,0.0,0.0,0.0,0.0,0.0,0.0,0.0,0.0,0.0,0.0,0.0,0.0,0.0,0.0,0.0,0.0,0.0,0.0,-1.6921,0.0,0.0,-1.6677,0.0,0.0,0.0,0.0,0.0,0.0,0.0,0.0,0.0,0.0,0.0,0.0,0.0,0.0,0.0,0.0,0.0,0.0,0.0,0.0,0.0,0.0,-2.0101,-2.0005,-2.003,-1.9863,-1.9333,-1.8638,-1.8702,-1.9498,-1.972,-2.0257,-2.1166,0.0,0.0,0.0,0.0,0.0,0.0,0.0,0.0,0.0,0.0,0.0,0.0,0.0,0.0,0.0,0.0,0.0,0.0,0.0,0.0,0.0,0.0,0.0,0.0,0.0,0.0,-2.3074,-2.2841,-2.2677,0.0,0.0,0.0,0.0,0.0,0.0,0.0,0.0,0.0,-2.6212,-2.6961,-2.7504,-2.7672,-2.7683,-2.7672,-2.7683,-2.7719,-2.7701,-2.773,-2.7858,-2.7979,0.0,0.0,0.0,0.0,0.0,0.0,0.0,0.0,0.0,0.0,0.0,0.0,0.0,0.0,0.0,0.0,0.0,0.0,0.0,0.0,0.0,0.0,0.0,0.0,0.0,0.0,0.0,-1.9994,-1.8961,0.0,0.0,0.0,0.0,0.0,0.0,0.0,0.0,0.0,0.0,0.0,-1.9033,-1.9672,0.0,0.0,0.0,0.0,0.0,0.0,0.0,0.0,0.0,0.0,0.0,0.0,-2.0059,-1.999,-1.9722,-1.9485,-1.9287,-1.9167,-1.9046,-1.8981,-1.9607,-2.0141,-2.0659,0.0,0.0,0.0,0.0,0.0,0.0,0.0,0.0,0.0,0.0,0.0,0.0,0.0,0.0,0.0,0.0,0.0,0.0,0.0,0.0,0.0,0.0,0.0,0.0,0.0,-2.2902,0.0,0.0,0.0,0.0,0.0,0.0,0.0,0.0,0.0,0.0,0.0,-2.6319,-2.7343,-2.7321,-2.7261,-2.7421,-2.7421,-2.7465,0.0,0.0,0.0,0.0,0.0,0.0,0.0,0.0,0.0,0.0,0.0,0.0,0.0,0.0,-3.2282,-3.1812,-3.1892,-3.2216,-3.2673,0.0,0.0,0.0,0.0,0.0,0.0,0.0,0.0,0.0,0.0,0.0,0.0,0.0,0.0,-2.0871,0.0,-1.9711,0.0,0.0,0.0,0.0,0.0,0.0,0.0,0.0,-2.0785,-2.0826,-2.0329,-2.1185,-2.1234,0.0,-2.0859,-2.0357,0.0,0.0,0.0,0.0,0.0,0.0,0.0,0.0,-2.0339,-2.0381,-1.9878,-1.9458,-1.9027,-1.8843,-1.8669,-1.8464,-1.9562,-2.0286,-2.0479,-2.1371,-2.1869,0.0,0.0,0.0,0.0,0.0,0.0,0.0,0.0,0.0,0.0,0.0,0.0,0.0,0.0,0.0,0.0,0.0,0.0,0.0,0.0,0.0,0.0,0.0,-2.3525,0.0,0.0,0.0,0.0,0.0,0.0,0.0,0.0,0.0,-2.6691,-2.6622,-2.7028,-2.8288,-2.7656,-2.7206,-2.7562,0.0,0.0,0.0,0.0,0.0,0.0,0.0,-2.7689,-2.7929,-2.7469,-2.7427,-2.8365,-2.9904,-3.1208,-3.1691,0.0,0.0,-3.2445,-3.257,-3.2893,-3.3364,-3.3391,-3.3198,-3.2715,-3.2295,-3.1845,0.0,0.0,0.0,0.0,0.0,0.0,0.0,0.0,-1.9737,-1.9973,0.0,-2.0039,0.0,0.0,0.0,0.0,0.0,-2.0615,0.0,0.0,-2.169,-2.1908,-2.1486,-2.2271,-2.25,-2.2257,-2.2246,-2.2159,-2.1886,-2.1565,0.0,0.0,0.0,0.0,0.0,0.0,-2.1005,-2.1017,-2.0496,-1.9708,-1.8547,-1.7831,-1.7628,-1.7962,-1.9532,-2.0451,-2.0603,-2.1586,-2.222,-2.2254,-2.2902,0.0,0.0,0.0,0.0,0.0,0.0,0.0,0.0,0.0,0.0,0.0,0.0,0.0,0.0,0.0,0.0,0.0,0.0,0.0,0.0,-2.4936,0.0,0.0,0.0,0.0,0.0,0.0,0.0,0.0,0.0,0.0,-2.6976,-2.7383,-2.8181,-2.9016,0.0,0.0,0.0,0.0,-2.7186,-2.7333,-2.7333,-2.7351,-2.733,-2.7438,-2.7531,-2.7526,0.0,0.0,-2.8983,-3.0546,-3.1653,-3.1742,-3.2384,-3.2916,-3.2979,-3.3548,-3.4017,-3.399,-3.3786,-3.3755,-3.3668,-3.2858,-3.2265,-1.966,0.0,0.0,0.0,0.0,-2.0206,-2.0636,-2.0853,-2.1541,-2.1429,-2.072,-2.0871,0.0,0.0,0.0,0.0,0.0,0.0,-2.1328,-2.1478,-2.203,-2.2057,-2.1638,-2.2091,-2.2047,-2.1553,-2.1818,-2.1895,-2.1879,-2.1976,-2.1499,-2.0419,0.0,0.0,0.0,0.0,-1.9951,-2.0524,-2.0038,-1.9373,-1.8651,-1.8593,-1.8399,-1.8119,-1.8864,-1.9562,-2.015,-2.1173,-2.2201,-2.3302,-2.3797,0.0,0.0,0.0,0.0,0.0,0.0,0.0,0.0,0.0,0.0,0.0,0.0,0.0,0.0,0.0,0.0,0.0,0.0,0.0,-2.524,-2.5584,-2.5836,0.0,0.0,0.0,0.0,0.0,0.0,0.0,0.0,0.0,-2.9013,-2.8766,-2.896,0.0,0.0,-2.8612,-2.8852,-2.8322,-2.7909,-2.7926,-2.8025,0.0,-2.749,-2.7858,-2.8045,-2.77,-2.7777,-2.8393,-2.987,-3.0517,-3.1225,-3.2313,-3.2741,-3.2916,-3.2934,-3.3094,-3.3273,-3.3223,-3.3093,-3.2924,-3.2907,-3.2595,-3.2441,-2.1204,-2.1033,-2.0872,-2.0742,-2.0654,-2.0993,-2.1326,-2.1595,-2.2208,-2.2102,-2.1467,-2.1577,-2.129,-2.0716,-2.0716,0.0,0.0,0.0,-2.1719,-2.1949,-2.2046,-2.1885,-2.158,-2.1901,-2.1765,-2.13,-2.1515,-2.1768,-2.2017,-2.1963,-2.1576,-2.0835,0.0,0.0,-2.0462,-1.9909,-2.0008,-2.0756,-2.0293,-1.9767,-1.9232,-1.9167,-1.9061,-1.8913,-1.9127,-1.9681,-2.0585,-2.1305,-2.2364,-2.3919,-2.432,-2.4655,0.0,0.0,0.0,0.0,0.0,0.0,0.0,0.0,0.0,0.0,0.0,-2.4819,-2.3934,0.0,0.0,0.0,-2.5014,-2.5552,-2.6221,-2.6948,0.0,0.0,0.0,0.0,0.0,0.0,0.0,-2.8686,-2.9698,-3.0258,-2.9993,-2.9918,-3.0061,-3.0523,-2.9692,-2.9102,-2.9175,0.0,-2.8065,-2.7891,-2.7922,-2.7831,-2.7476,-2.7708,-2.7878,-2.7669,-2.8071,-2.8865,-3.0142,-3.0683,-3.1421,-3.2559,-3.2916,-3.2916,-3.2916,-3.2916,-3.2916,-3.2916,-3.2737,-3.2588,-3.2488,-3.2352,-3.2424,-2.2498,-2.318,-2.1975,-2.161,-2.1849,-2.1588,-2.1554,-2.1807,-2.2091,-2.217,-2.217,-2.217,-2.217,-2.217,-2.1949,0.0,-2.2184,-2.1945,-2.2041,-2.2249,-2.2002,-2.1662,-2.1359,-2.1704,-2.1669,-2.1297,-2.1297,-2.1588,-2.2079,-2.1588,-2.1348,-2.1408,-2.1214,-2.1142,-2.1234,-2.064,-2.0717,-2.146,-2.102,-2.054,-2.005,-1.9573,-1.9503,-1.9976,-1.9951,-2.0467,-2.1596,-2.1831,-2.2711,-2.432,-2.4686,-2.5165,-2.5818,0.0,0.0,0.0,0.0,0.0,0.0,0.0,0.0,0.0,0.0,0.0,0.0,0.0,0.0,0.0,-2.6882,0.0,-2.7392,-2.8745,0.0,0.0,0.0,-2.8989,-2.8979,-2.9644,-2.9816,-2.908,0.0,0.0,-3.0277,-3.0784,-3.119,-3.119,-2.9993,-2.9115,-2.9278,-2.8613,-2.7928,-2.7526,-2.7351,-2.7316,-2.733,-2.7365,-2.7459,-2.7574,-2.8398,-2.9349,-3.0206,-3.1062,-3.1956,-3.2741,-3.2916,-3.2916,-3.2916,-3.2916,-3.2916,-3.2916,-3.2737,-3.2539,-3.2352,-3.2214,-3.2334,-2.3302,-2.4092,-2.3137,-2.2417,-2.1897,-2.178,-2.1746,-2.1793,-2.2077,-2.217,-2.217,-2.217,-2.217,-2.217,-2.2137,-2.2137,-2.2184,-2.24,-2.2503,-2.2601,-2.3069,-2.2737,-2.1714,-2.204,-2.162,-2.0599,-2.0553,-2.064,-2.0798,-2.0731,-2.0725,-2.0743,-2.0829,-2.0897,-2.0881,-2.0287,-2.0368,-2.1177,-2.1069,-2.0798,-2.031,-1.9747,-1.9621,-1.9985,-2.0184,-2.0818,-2.1931,-2.2176,-2.3302,-2.5457,-2.5703,-2.6105,-2.6828,-2.6188,0.0,0.0,0.0,0.0,0.0,0.0,0.0,0.0,0.0,-2.5862,-2.4296,0.0,-2.6307,0.0,-2.7338,-2.8575,-2.9414,-2.9366,0.0,0.0,-2.9614,-2.9303,-3.0492,-3.0234,-3.015,-3.0577,-3.097,-3.1123,-3.0954,-3.1089,-3.1213,-3.1257,-3.0493,-2.9898,-2.9938,-2.892,-2.815,-2.7944,-2.7594,-2.7316,-2.733,-2.7407,-2.7526,-2.7824,-2.8547,-2.9396,-3.0297,-3.1123,-3.1938,-3.2706,-3.2916,-3.2916,-3.2916,-3.2916,-3.2916,-3.2884,-3.2737,-3.2539,-3.2352,-3.2214,-3.2545,-2.2831,-2.3665,-2.3175,-2.271,-2.2219,-2.1924,-2.1855,-2.1983,-2.2137,-2.217,-2.217,-2.217,-2.217,-2.217,-2.217,-2.217,-2.2245,-2.2555,-2.2726,-2.2709,-2.2814,-2.2528,-2.1766,-2.1549,-2.1029,-2.032,-2.0357,-2.0392,-2.0392,-2.0561,-2.0695,-2.0761,-2.0893,-2.0958,-2.1007,-2.0607,-2.0623,-2.1103,-2.1183,-2.1129,-2.0983,-2.0787,-2.0759,-2.0991,-2.1056,-2.1739,-2.3071,-2.3017,-2.4064,-2.6343,-2.6512,-2.6871,-2.7635,-2.6954,-2.6368,0.0,0.0,0.0,0.0,0.0,0.0,0.0,0.0,0.0,0.0,0.0,-2.75,-2.7495,-2.8595,-2.9573,-3.0122,-3.0142,-3.0432,-3.115,-3.0446,-3.02,-3.1106,-3.0779,-3.0695,-3.114,-3.119,-3.119,-3.119,-3.1213,-3.1252,-3.1278,-3.0742,-3.0199,-2.9807,-2.8922,-2.8099,-2.7822,-2.7508,-2.7299,-2.7299,-2.7438,-2.7692,-2.8282,-2.8806,-2.9503,-3.0784,-3.1385,-3.1956,-3.2719,-3.2916,-3.2916,-3.2916,-3.2961,-3.3006,-3.3055,-3.3055,-3.2943,-3.2687,-3.2902,-3.359,-2.1944,-2.2896,-2.2766,-2.2728,-2.2701,-2.2113,-2.1983,-2.217,-2.217,-2.217,-2.217,-2.217,-2.217,-2.217,-2.217,-2.2231,-2.2292,-2.2615,-2.2807,-2.282,-2.2335,-2.2034,-2.1833,-2.1013,-2.0508,-2.0354,-2.046,-2.0527,-2.0561,-2.0761,-2.0925,-2.1103,-2.1119,-2.1183,-2.1309,-2.1214,-2.1167,-2.1183,-2.134,-2.1524,-2.1678,-2.1953,-2.2164,-2.2258,-2.2275,-2.2982,-2.4382,-2.4157,-2.4972,-2.6964,-2.7125,-2.7484,-2.8237,-2.7556,-2.7151,0.0,-2.6451,0.0,0.0,0.0,0.0,0.0,0.0,0.0,0.0,-2.8187,-2.9114,-2.935,-3.0071,-3.048,-3.0381,-3.0959,-3.1295,-3.1295,-3.1252,-3.123,-3.123,-3.123,-3.123,-3.123,-3.123,-3.1213,-3.123,-3.1274,-3.1351,-3.1304,-3.0734,-3.0071,-2.9506,-2.875,-2.8045,-2.7402,-2.7316,-2.7348,-2.7425,-2.7517,-2.7844,-2.8622,-2.9124,-2.9811,-3.1194,-3.1706,-3.2099,-3.2737,-3.2916,-3.2916,-3.2916,-3.3055,-3.319,-3.319,-3.3524,-3.3673,-3.3394,-3.3821,-3.4715,-2.2461,-2.3381,-2.3174,-2.3011,-2.2969,-2.239,-2.2123,-2.217,-2.217,-2.217,-2.217,-2.217,-2.217,-2.217,-2.217,-2.2342,-2.2632,-2.3005,-2.331,-2.3614,-2.3766,-2.3251,-2.2248,-2.217,-2.1564,-2.0506,-2.0662,-2.0728,-2.0761,-2.0958,-2.1071,-2.1103,-2.1277,-2.1355,-2.1386,0.0,0.0,0.0,-2.1589,-2.168,-2.1708,-2.201,-2.2313,-2.2608,-2.3473,0.0,-2.4864,-2.5384,-2.6164,-2.7254,-2.7326,0.0,0.0,0.0,0.0,0.0,0.0,0.0,0.0,0.0,0.0,0.0,-2.8468,-2.8294,-2.7512,-2.8615,-2.9695,-3.035,-3.0557,-3.0848,-3.1305,-3.1397,-3.1406,-3.1312,-3.1295,-3.1312,-3.1274,-3.1274,-3.1312,-3.144,-3.1368,-3.1312,-3.144,-3.1479,-3.15,-3.1473,-3.0431,-2.9609,-2.9524,-2.8817,-2.8077,-2.7454,-2.7382,-2.7556,-2.7813,-2.7877,-2.7976,-2.8415,-2.9443,-3.0303,-3.0796,-3.1885,-3.2634,-3.2916,-3.2916,-3.2916,-3.2916,-3.3037,-3.325,-3.322,-3.4061,-3.4687,-3.4304,-3.4383,-3.4969,-2.2177,-2.2679,-2.265,-2.2658,0.0,-2.2395,-2.2278,-2.2324,-2.2278,-2.2324,-2.237,-2.2417,-2.237,-2.2417,-2.2618,-2.2785,-2.2979,-2.3583,-2.3925,-2.4103,-2.4085,-2.3569,-2.2588,-2.2366,-2.1698,-2.0677,-2.0844,-2.0974,-2.0958,-2.1151,-2.1246,-2.123,-2.1419,-2.1511,-2.1495,-2.1606,-2.1636,-2.1634,-2.168,-2.1771,-2.194,-2.2275,-2.2728,-2.3276,-2.4198,0.0,0.0,0.0,0.0,0.0,0.0,0.0,0.0,0.0,0.0,-2.7879,-2.7486,-2.7399,-2.7707,-2.7611,-2.7727,-2.8182,-2.9107,-2.9598,-2.9313,-2.9814,-3.0368,-3.1055,-3.1158,-3.1259,-3.1507,-3.15,-3.1462,-3.1406,-3.1406,-3.1406,-3.1406,-3.1406,-3.1423,-3.1462,-3.1445,-3.1406,-3.1462,-3.1538,-3.1559,-3.1528,-3.0726,-2.9903,-2.9591,-2.8624,-2.771,-2.7459,-2.7521,-2.7661,-2.7813,-2.7859,-2.8071,-2.8628,-2.9627,-3.051,-3.1046,-3.2063,-3.2948,-3.3024,-3.3055,-3.3086,-3.3238,-3.3397,-3.3569,-3.3597,-3.4136,-3.4921,-3.5386,-3.5891,-3.6415,-2.1793,-2.1902,-2.2123,-2.2231,-2.2231,-2.2356,-2.2477,-2.2477,0.0,0.0,0.0,-2.2615,-2.2615,-2.2661,-2.3009,-2.3275,-2.3334,-2.4058,-2.4442,-2.4511,-2.4188,-2.3683,-2.2885,-2.235,-2.1668,-2.0876,-2.1055,-2.1151,-2.1151,-2.1324,-2.1433,-2.1448,-2.1542,-2.165,-2.1634,-2.1757,-2.1801,-2.1811,-2.1811,-2.1924,-2.2203,-2.2608,-2.3093,-2.3772,-2.4718,-2.5679,-2.6744,-2.7306,-2.7899,-2.8482,-2.8492,-2.8536,-2.8536,-2.8536,-2.8536,-2.8587,-2.8518,-2.8466,-2.8406,-2.8353,-2.8398,-2.8574,-2.9639,-3.0533,-3.1093,-3.1011,-3.1127,-3.1603,-3.1634,-3.1614,-3.1538,-3.1538,-3.15,-3.15,-3.15,-3.1517,-3.15,-3.15,-3.1555,-3.1555,-3.1555,-3.1555,-3.1555,-3.1651,-3.1691,-3.1571,-3.0956,-3.0266,-2.948,-2.8251,-2.7504,-2.7604,-2.77,-2.7759,-2.7777,-2.7811,-2.8116,-2.8723,-2.955,-3.0432,-3.1337,-3.2215,-3.2809,-3.316,-3.322,-3.3339,-3.3577,-3.3726,-3.3895,-3.3913,-3.4197,-3.4829,-3.6147,-3.7225,-3.7829,-2.1759,-2.2184,-2.2324,-2.237,-2.237,-2.2509,-2.2629,-2.2749,-2.2629,-2.2569,-2.2615,-2.2615,-2.2615,-2.2601,-2.3009,-2.3406,-2.3754,-2.418,-2.4575,-2.4925,-2.4853,-2.4143,-2.2914,-2.2923,-2.2266,-2.1135,-2.1277,-2.1355,-2.1371,-2.1511,-2.1573,-2.1573,-2.1634,-2.1724,-2.1781,-2.2005,-2.2158,-2.222,-2.217,-2.2197,-2.2286,-2.2832,-2.3206,-2.3425,-2.5069,-2.6044,-2.6296,-2.7664,-2.8478,-2.8587,-2.8587,-2.8587,-2.8587,-2.8569,-2.8587,-2.8587,-2.8536,-2.851,-2.8466,-2.8362,-2.8846,-3.0047,-3.0242,-3.0483,-3.0905,-3.1533,-3.1861,-3.1783,-3.1783,-3.1763,-3.1763,-3.1671,-3.1579,-3.1596,-3.1579,-3.1596,-3.1596,-3.1596,-3.1634,-3.1726,-3.1671,-3.1634,-3.1726,-3.191,-3.1966,-3.1811,-3.0869,-2.9636,-2.8478,-2.7829,-2.7719,-2.7882,-2.7917,-2.801,-2.8071,-2.8109,-2.8198,-2.8297,-2.9027,-2.9869,-3.0558,-3.1595,-3.2462,-3.3076,-3.339,-3.3541,-3.3643,-3.378,-3.3921,-3.3983,-3.4543,-3.5318,-3.5745,-3.6879,-3.8088,-2.2091,-2.2324,-2.2463,-2.2523,-2.2509,-2.2675,-2.2766,-2.2826,-2.2812,-2.2752,-2.2752,-2.2737,-2.2752,-2.2843,-2.3465,-2.3909,-2.4094,-2.4748,-2.5163,-2.5333,-2.5335,-2.4608,-2.3367,-2.3331,-2.2668,-2.1436,-2.145,-2.1495,-2.1511,-2.1603,-2.168,-2.1664,-2.1768,-2.1827,-2.1869,-2.2158,-2.2334,-2.2368,-2.2444,-2.2598,-2.2815,-2.3105,-2.3572,-2.4203,-2.5492,-2.638,-2.6856,-2.7972,-2.8587,-2.8587,-2.8587,-2.8587,-2.8587,-2.8587,-2.8587,-2.8587,-2.8562,-2.8562,-2.8492,-2.838,-2.8756,-2.9844,-3.0255,-3.0637,-3.1155,-3.1811,-3.2126,-3.1965,-3.1982,-3.1893,-3.18,-3.1763,-3.1709,-3.1709,-3.1709,-3.1709,-3.1726,-3.1709,-3.1746,-3.18,-3.1746,-3.178,-3.194,-3.2071,-3.1952,-3.16,-3.0459,-2.9266,-2.8195,-2.8165,-2.8192,-2.8053,-2.8042,-2.8116,-2.8182,-2.8182,-2.8182,-2.8182,-2.898,-2.9637,-3.0188,-3.1247,-3.2374,-3.301,-3.3571,-3.3986,-3.4099,-3.4221,-3.4245,-3.4234,-3.4463,-3.4982,-3.5584,-3.692,-3.8245,-2.2463,-2.2463,-2.2569,-2.2661,-2.2646,-2.2826,-2.2872,-2.2947,-2.2978,-2.2992,-2.2978,-2.3068,-2.3098,-2.3187,-2.4063,-2.4492,-2.463,-2.531,-2.5648,-2.5648,-2.548,-2.4792,-2.3701,-2.3471,-2.2753,-2.1704,-2.162,-2.162,-2.165,-2.1694,-2.1738,-2.1738,-2.184,-2.1957,-2.2027,-2.2324,-2.2538,-2.2617,-2.2825,-2.3053,-2.3289,-2.3382,-2.3934,-2.4978,-2.5783,-2.6584,-2.7381,-2.8196,-2.8587,-2.8587,-2.8587,-2.8587,-2.8587,-2.8587,-2.8587,-2.8587,-2.8587,-2.8562,-2.8492,-2.8388,-2.8685,-2.9464,-3.0159,-3.082,-3.1444,-3.2062,-3.237,-3.2161,-3.2144,-3.2073,-3.1965,-3.1929,-3.1893,-3.1929,-3.1929,-3.1965,-3.1984,-3.1984,-3.202,-3.2038,-3.2073,-3.2144,-3.2249,-3.2179,-3.18,-3.0955,-3.0109,-2.9296,-2.8629,-2.8682,-2.8658,-2.8404,-2.8309,-2.8388,-2.8388,-2.8414,-2.844,-2.8414,-2.9039,-2.9584,-3.005,-3.1169,-3.2287,-3.2836,-3.3548,-3.4083,-3.4464,-3.4602,-3.4539,-3.445,-3.4506,-3.4731,-3.5553,-3.6817,-3.8246,-2.2555,-2.2615,-2.2721,-2.2826,-2.2888,-2.2992,-2.3082,-2.3082,-2.3201,-2.3275,-2.3275,-2.3522,-2.3608,-2.3779,-2.4648,-2.5059,-2.5098,-2.5637,-2.5853,-2.5745,-2.5168,-2.4446,-2.3687,-2.3031,-2.2326,-2.1685,-2.1664,-2.1694,-2.1694,-2.1768,-2.1811,-2.1853,-2.1899,-2.2051,-2.2341,-2.2695,-2.2958,-2.323,-2.3558,-2.3558,-2.3323,-2.3598,-2.4165,-2.4972,-2.5787,-2.6584,-2.7399,-2.8153,-2.8587,-2.8587,-2.8594,-2.8569,-2.8612,-2.8587,-2.8587,-2.8587,-2.8587,-2.8587,-2.851,-2.851,-2.8783,-2.9529,-3.0281,-3.0975,-3.1678,-3.242,-3.2672,-3.2386,-3.2283,-3.2301,-3.2249,-3.2214,-3.2214,-3.2266,-3.2249,-3.2352,-3.2519,-3.2603,-3.2666,-3.2867,-3.2791,-3.2885,-3.2836,-3.2403,-3.156,-3.0414,-3.0061,-2.9631,-2.902,-2.8993,-2.9104,-2.8975,-2.8929,-2.8883,-2.8948,-2.9016,-2.8948,-2.8989,-2.9071,-2.9443,-3.0001,-3.0524,-3.1216,-3.2664,-3.3234,-3.3776,-3.4379,-3.4602,-3.4604,-3.4583,-3.4617,-3.4805,-3.5631,-3.6535,-3.7643,-2.254,-2.2918,-2.3023,-2.3127,-2.3157,-2.3201,-2.3201,-2.3246,-2.3275,-2.3451,-2.3681,-2.4101,-2.4101,-2.3864,-2.4784,-2.4968,-2.4585,-2.5019,-2.5243,-2.5183,-2.4492,-2.3999,-2.371,-2.3043,-2.2355,-2.1774,-2.1797,-2.1827,-2.1857,-2.1899,-2.1957,-2.1998,-2.2198,-2.2392,-2.2537,-2.3017,-2.3289,-2.3432,-2.371,-2.4049,-2.431,-2.4006,-2.4172,-2.499,-2.5814,-2.6636,-2.738,-2.784,-2.8203,-2.8639,-2.8258,-2.8221,-2.8694,-2.8712,-2.8712,-2.8662,-2.8612,-2.8587,-2.8562,-2.8518,-2.8637,-2.8943,-3.0078,-3.0919,-3.1231,-3.2307,-3.293,-3.2784,-3.2606,-3.242,-3.2318,-3.2283,-3.2352,-3.2504,-3.2555,-3.2619,-3.284,-3.289,-3.2934,-3.2991,-3.2991,-3.3082,-3.2995,-3.2265,-3.1268,-3.0294,-2.9908,-2.9539,-2.9246,-2.9334,-2.9454,-2.9494,-2.9456,-2.9336,-2.9191,-2.9104,-2.9126,-2.9126,-2.9209,-2.9477,-2.9748,-3.0429,-3.126,-3.2484,-3.3051,-3.3713,-3.464,-3.4752,-3.4771,-3.4749,-3.4764,-3.4953,-3.5762,-3.6239,-3.7036,-2.232,-2.2878,-2.3187,-2.326,-2.3304,-2.3319,-2.3363,-2.3348,-2.3508,-2.3752,-2.409,-2.4712,-2.4776,-2.4552,-2.5176,-2.5169,-2.4733,-2.4837,-2.4876,-2.4762,-2.3934,-2.3531,-2.3498,-2.2879,-2.2341,-2.1906,-2.1882,-2.194,-2.194,-2.1969,-2.2027,-2.2101,-2.2402,-2.266,-2.2798,-2.3265,-2.3665,-2.3974,-2.4182,-2.4665,-2.5287,-2.4641,-2.4653,-2.5655,-2.6336,-2.6941,-2.7487,-2.7583,-2.788,-2.8408,-2.7916,-2.7971,-2.8755,-2.8804,-2.8785,-2.8737,-2.8687,-2.8637,-2.8637,-2.8569,-2.8685,-2.9032,-3.0224,-3.1066,-3.1501,-3.2571,-3.3266,-3.3321,-3.3075,-3.2858,-3.2537,-3.2586,-3.2716,-3.2862,-3.2908,-3.3057,-3.3277,-3.3306,-3.3364,-3.3431,-3.3543,-3.325,-3.2889,-3.1959,-3.0891,-3.0163,-2.9748,-2.9512,-2.9531,-2.9645,-2.9773,-2.9825,-2.9823,-2.9699,-2.9378,-2.9358,-2.9318,-2.9357,-2.9474,-2.957,-2.9607,-3.0318,-3.1202,-3.2166,-3.2901,-3.3714,-3.4604,-3.4851,-3.4889,-3.4849,-3.4848,-3.498,-3.5452,-3.5892,-3.6252,-2.173,-2.242,-2.3053,-2.3304,-2.3319,-2.3451,-2.3509,-2.3581,-2.4074,-2.4348,-2.4552,-2.5297,-2.5742,-2.5668,-2.599,-2.6099,-2.5969,-2.5345,-2.5063,-2.4879,-2.3685,-2.3031,-2.2987,-2.2353,-2.202,-2.1969,-2.2015,-2.1982,-2.2027,-2.2027,-2.2044,-2.2225,-2.2493,-2.2772,-2.3087,-2.3432,-2.4111,-2.4826,-2.5014,-2.5473,-2.6115,-2.5509,-2.5852,-2.715,-2.746,-2.7406,-2.7551,-2.757,-2.7606,-2.7661,-2.7606,-2.7934,-2.8676,-2.881,-2.8828,-2.8785,-2.8804,-2.8779,-2.873,-2.8748,-2.9156,-3.0057,-3.0894,-3.1703,-3.2478,-3.3338,-3.3784,-3.3828,-3.3776,-3.3579,-3.3184,-3.3225,-3.3343,-3.3386,-3.355,-3.3733,-3.3986,-3.3986,-3.4179,-3.4367,-3.4315,-3.3676,-3.2416,-3.1445,-3.0658,-3.0039,-2.9775,-2.9754,-2.9773,-2.9841,-2.9874,-2.9891,-2.9907,-2.9891,-2.9855,-2.9734,-2.9769,-2.9769,-2.9735,-2.9857,-2.9891,-3.0116,-3.1004,-3.18,-3.2386,-3.3239,-3.4396,-3.4908,-3.4927,-3.4927,-3.4908,-3.5078,-3.5249,-3.5742,-3.597,-2.1698,-2.2795,-2.3483,-2.3754,-2.3769,-2.3812,-2.3967,-2.423,-2.442,-2.4847,-2.5297,-2.5668,-2.5994,-2.6225,-2.6345,-2.6114,-2.568,-2.5393,-2.503,-2.4478,-2.3557,-2.3097,-2.2988,-2.2332,-2.1998,-2.1998,-2.2106,-2.2163,-2.226,-2.2375,-2.252,-2.2686,-2.3056,-2.33,-2.3455,-2.3732,-2.4081,-2.4511,-2.4988,-2.5429,-2.5819,-2.5962,-2.642,-2.6878,-2.6417,-2.6377,-2.6889,-2.6435,-2.664,-2.7665,-2.7262,-2.7574,-2.8745,-2.8881,-2.8858,-2.8858,-2.881,-2.9004,-2.9484,-2.9685,-3.0176,-3.1038,-3.1908,-3.2516,-3.2976,-3.3634,-3.4087,-3.4068,-3.4087,-3.3961,-3.3858,-3.3787,-3.3813,-3.3954,-3.403,-3.4179,-3.4363,-3.4427,-3.4473,-3.4505,-3.4132,-3.3327,-3.2428,-3.1487,-3.0696,-3.0014,-2.9857,-2.9857,-2.9874,-2.9888,-2.9924,-2.9956,-2.9956,-2.9972,-3.0041,-2.994,-2.9907,-2.9907,-2.9907,-2.9924,-2.994,-2.9975,-3.0655,-3.202,-3.2457,-3.314,-3.4451,-3.5001,-3.5001,-3.5001,-3.5001,-3.5001,-3.5039,-3.5457,-3.54,-2.1605,-2.2682,-2.339,-2.38,-2.3967,-2.3982,-2.4135,-2.4436,-2.4744,-2.5176,-2.5668,-2.5961,-2.6279,-2.6572,-2.6623,-2.6404,-2.5899,-2.5559,-2.4978,-2.4185,-2.3541,-2.3079,-2.279,-2.2333,-2.213,-2.2158,-2.2265,-2.2377,-2.2552,-2.2695,-2.2857,-2.3025,-2.3432,-2.3631,-2.3671,-2.3917,-2.4295,-2.4846,-2.5234,-2.5603,-2.6121,-2.6213,-2.6395,-2.6486,-2.5823,-2.5729,-2.6475,-2.6041,-2.6392,-2.7493,-2.7273,-2.7603,-2.881,-2.897,-2.8929,-2.8947,-2.9232,-2.9604,-3.0123,-3.0609,-3.1288,-3.2135,-3.2764,-3.3262,-3.3625,-3.4164,-3.4442,-3.4498,-3.4498,-3.4498,-3.4435,-3.433,-3.4284,-3.4363,-3.4409,-3.4536,-3.4645,-3.4666,-3.4687,-3.4576,-3.3994,-3.3203,-3.2411,-3.1599,-3.0803,-3.0037,-2.9921,-2.9921,-2.9956,-2.9991,-2.9991,-3.0022,-3.0038,-3.0057,-3.0072,-3.0022,-2.9988,-2.9972,-2.9972,-2.9988,-3.0026,-3.0041,-3.0646,-3.201,-3.2961,-3.3627,-3.4274,-3.4902,-3.5092,-3.5092,-3.5075,-3.5075,-3.5075,-3.5092,-3.5148,-2.1402,-2.2093,-2.2707,-2.3473,-2.3945,-2.4063,-2.4067,-2.4328,-2.5059,-2.5481,-2.5726,-2.6332,-2.6708,-2.6842,-2.6859,-2.6875,-2.669,-2.5865,-2.5025,-2.4247,-2.3667,-2.3027,-2.2409,-2.2388,-2.2405,-2.2443,-2.2487,-2.2632,-2.2841,-2.2917,-2.3007,-2.3253,-2.3566,-2.3756,-2.3696,-2.4091,-2.4924,-2.5788,-2.5663,-2.6144,-2.7451,-2.6328,-2.5996,-2.6454,-2.5941,-2.5958,-2.6631,-2.6576,-2.6909,-2.768,-2.7794,-2.8154,-2.8901,-2.9067,-2.9021,-2.92,-2.9968,-3.0482,-3.0649,-3.1474,-3.2445,-3.3259,-3.3544,-3.398,-3.4698,-3.4963,-3.5001,-3.4983,-3.5001,-3.502,-3.4945,-3.4908,-3.4772,-3.4498,-3.4645,-3.4768,-3.4788,-3.4788,-3.481,-3.4756,-3.4169,-3.3336,-3.252,-3.1705,-3.0888,-3.0219,-2.9988,-3.0003,-3.0053,-3.0072,-3.0087,-3.0102,-3.0083,-3.0083,-3.0083,-3.0102,-3.0083,-3.0083,-3.0068,-3.0072,-3.0164,-3.0236,-3.1035,-3.2251,-3.3277,-3.3963,-3.4592,-3.5127,-3.5108,-3.5108,-3.511,-3.5127,-3.5127,-3.5126,-3.516,-2.1247,-2.1658,-2.2902,-2.3529,-2.3816,-2.4595,-2.5098,-2.5389,-2.5888,-2.6243,-2.6521,-2.6792,-2.6942,-2.6942,-2.6992,-2.6975,-2.694,-2.6117,-2.5313,-2.4597,-2.4313,-2.3547,-2.26,-2.247,-2.2504,-2.2487,-2.2487,-2.2685,-2.2952,-2.3122,-2.3318,-2.361,-2.3896,-2.4036,-2.4039,-2.419,-2.456,-2.4966,-2.5354,-2.5558,-2.5557,-2.6037,-2.6204,-2.5926,-2.6204,-2.6757,-2.7493,-2.705,-2.7142,-2.7917,-2.8025,-2.85,-2.9269,-2.9476,-2.9476,-2.9588,-3.0301,-3.1109,-3.1672,-3.258,-3.3526,-3.4264,-3.4565,-3.4789,-3.5108,-3.5129,-3.5092,-3.5092,-3.5092,-3.5075,-3.5075,-3.5075,-3.4964,-3.4772,-3.4831,-3.4888,-3.4869,-3.487,-3.4908,-3.487,-3.4262,-3.3446,-3.2607,-3.1787,-3.0988,-3.0224,-3.0053,-3.0068,-3.0083,-3.0102,-3.0083,-3.0079,-3.0094,-3.0109,-3.0128,-3.0142,-3.0142,-3.0128,-3.0113,-3.0132,-3.0208,-3.0647,-3.1482,-3.2492,-3.3519,-3.4263,-3.4912,-3.516,-3.5143,-3.516,-3.516,-3.5176,-3.5176,-3.5209,-3.5239,-2.1182,-2.1579,-2.2514,-2.3142,-2.349,-2.4287,-2.4778,-2.5118,-2.5379,-2.5698,-2.5895,-2.609,-2.6187,-2.6219,-2.6219,-2.6265,-2.6279,-2.5839,-2.524,-2.4553,-2.4316,-2.3621,-2.2674,-2.2668,-2.2712,-2.2721,-2.2807,-2.2993,-2.3283,-2.345,-2.3653,-2.3939,-2.4134,-2.4228,-2.4229,-2.4247,-2.4358,-2.4727,-2.4986,-2.4986,-2.4968,-2.5485,-2.5744,-2.5633,-2.6058,-2.6763,-2.7489,-2.7157,-2.7417,-2.8309,-2.8671,-2.9081,-2.9639,-2.9696,-2.9696,-2.9921,-3.0804,-3.1747,-3.2315,-3.352,-3.4483,-3.4978,-3.5145,-3.5179,-3.5179,-3.5162,-3.5126,-3.5126,-3.5145,-3.5127,-3.5147,-3.5147,-3.5092,-3.4964,-3.4964,-3.4964,-3.4964,-3.4964,-3.4774,-3.4564,-3.4087,-3.3289,-3.2298,-3.1724,-3.0982,-3.0312,-3.0098,-3.0113,-3.0132,-3.0147,-3.0142,-3.0142,-3.0157,-3.0171,-3.0199,-3.0199,-3.0199,-3.0185,-3.0157,-3.0176,-3.0214,-3.0901,-3.1684,-3.302,-3.4143,-3.4585,-3.5176,-3.5193,-3.5174,-3.519,-3.5219,-3.5223,-3.5254,-3.5311,-3.5369,-2.1189,-2.1739,-2.1837,-2.2388,-2.3144,-2.3374,-2.3663,-2.3769,-2.4146,-2.4452,-2.4481,-2.491,-2.4996,-2.5004,-2.5235,-2.5305,-2.5207,-2.5172,-2.4829,-2.4276,-2.3821,-2.3241,-2.2799,-2.2944,-2.3063,-2.3133,-2.3271,-2.3504,-2.3732,-2.3816,-2.4018,-2.4173,-2.4247,-2.4321,-2.4303,-2.4303,-2.4635,-2.506,-2.4746,-2.4801,-2.5319,-2.4968,-2.4949,-2.5616,-2.582,-2.6284,-2.6988,-2.7169,-2.7825,-2.9139,-2.9472,-2.967,-2.9746,-2.9748,-2.9799,-2.9872,-3.1466,-3.2216,-3.2836,-3.3971,-3.5066,-3.5223,-3.5226,-3.519,-3.5209,-3.5207,-3.5209,-3.519,-3.5209,-3.5193,-3.5196,-3.5198,-3.5162,-3.5129,-3.5092,-3.5075,-3.5092,-3.5035,-3.4617,-3.4046,-3.3722,-3.3151,-3.1667,-3.1397,-3.0956,-3.0361,-3.0109,-3.0138,-3.0171,-3.0204,-3.0218,-3.0218,-3.0199,-3.0213,-3.024,-3.024,-3.024,-3.0259,-3.0232,-3.0218,-3.0333,-3.1021,-3.2034,-3.3391,-3.4282,-3.4802,-3.5219,-3.5251,-3.5277,-3.5302,-3.5336,-3.5326,-3.5364,-3.5438,-3.5512,-2.0935,-2.1185,-2.1818,-2.2345,-2.2849,-2.3636,-2.4143,-2.4472,-2.4726,-2.4804,-2.5005,-2.5171,-2.5129,-2.5272,-2.5209,-2.5317,-2.5132,-2.4676,-2.4402,-2.4116,-2.3506,-2.3241,-2.3133,-2.3207,-2.3312,-2.3427,-2.3552,-2.3684,-2.3937,-2.3978,-2.4095,-2.4266,-2.4284,-2.4339,-2.4376,-2.4375,-2.4486,-2.4707,-2.4632,-2.4557,-2.4817,-2.5207,-2.5502,-2.5792,-2.6316,-2.6758,-2.7204,-2.738,-2.7913,-2.8958,-2.9673,-3.0066,-3.0155,-3.0169,-3.0155,-3.036,-3.1191,-3.2158,-3.2828,-3.3767,-3.463,-3.5243,-3.5189,-3.5285,-3.5251,-3.527,-3.5285,-3.5285,-3.5266,-3.527,-3.5289,-3.5273,-3.5258,-3.5245,-3.5162,-3.511,-3.5015,-3.4522,-3.4044,-3.3849,-3.3334,-3.2454,-3.1726,-3.134,-3.1054,-3.04,-3.0166,-3.0161,-3.0207,-3.024,-3.0272,-3.0286,-3.0286,-3.0266,-3.0266,-3.0279,-3.0279,-3.0299,-3.0286,-3.0272,-3.054,-3.1038,-3.2283,-3.3676,-3.3868,-3.429,-3.4993,-3.5393,-3.5432,-3.5328,-3.5481,-3.5481,-3.556,-3.5631,-3.5696,-2.0863,-2.1231,-2.1762,-2.2159,-2.2517,-2.3203,-2.3687,-2.4061,-2.4242,-2.4348,-2.4401,-2.4427,-2.4427,-2.4445,-2.4427,-2.4453,-2.4427,-2.4042,-2.3902,-2.395,-2.3647,-2.3419,-2.3312,-2.3348,-2.3517,-2.3649,-2.3826,-2.3983,-2.4114,-2.4153,-2.4229,-2.4321,-2.4375,-2.4412,-2.4447,-2.4447,-2.4482,-2.4534,-2.4551,-2.4549,-2.4638,-2.4978,-2.523,-2.5455,-2.5904,-2.6189,-2.6407,-2.6917,-2.7719,-2.8721,-2.9398,-2.9883,-3.0348,-3.0398,-3.0398,-3.0436,-3.1174,-3.1892,-3.2391,-3.3133,-3.3772,-3.4256,-3.4563,-3.4779,-3.4855,-3.5066,-3.5315,-3.53,-3.5315,-3.5315,-3.5315,-3.5315,-3.532,-3.5289,-3.5226,-3.5176,-3.5143,-3.4418,-3.3786,-3.336,-3.2707,-3.1881,-3.1125,-3.103,-3.0762,-3.0393,-3.024,-3.0253,-3.0234,-3.0279,-3.0312,-3.0324,-3.0305,-3.0292,-3.0305,-3.0299,-3.0311,-3.033,-3.0348,-3.0323,-3.0695,-3.1117,-3.2065,-3.309,-3.3416,-3.387,-3.4546,-3.5093,-3.5209,-3.5222,-3.5466,-3.5639,-3.5682,-3.5733,-3.5814,-2.0836,-2.1376,-2.1472,-2.1732,-2.1997,-2.2119,-2.2479,-2.2989,-2.3091,-2.3168,-2.3316,-2.3221,-2.3446,-2.3151,-2.3499,-2.3312,-2.3425,-2.3541,-2.3643,-2.3799,-2.386,-2.3751,-2.3422,-2.366,-2.3789,-2.3899,-2.4191,-2.4303,-2.4339,-2.4393,-2.4411,-2.4464,-2.4498,-2.4515,-2.4532,-2.4515,-2.4549,-2.4599,-2.4629,-2.4657,-2.4689,-2.4782,-2.4896,-2.5026,-2.5072,-2.5241,-2.5554,-2.613,-2.715,-2.8568,-2.8929,-2.959,-3.0256,-3.039,-3.0398,-3.0475,-3.1032,-3.1494,-3.1782,-3.243,-3.2878,-3.3146,-3.3695,-3.3969,-3.4103,-3.4616,-3.5043,-3.5057,-3.5239,-3.533,-3.535,-3.535,-3.5315,-3.5296,-3.5243,-3.5117,-3.4955,-3.4362,-3.3555,-3.2785,-3.1971,-3.1142,-3.0618,-3.0312,-3.0312,-3.0362,-3.0279,-3.0273,-3.0286,-3.0318,-3.0318,-3.0318,-3.0318,-3.0299,-3.0311,-3.0336,-3.034,-3.0352,-3.0381,-3.0469,-3.0833,-3.1306,-3.1857,-3.2431,-3.2743,-3.3277,-3.3992,-3.4417,-3.463,-3.5022,-3.5203,-3.5509,-3.5749,-3.5813,-3.588,-2.0328,-2.0013,-2.064,-2.081,-2.0759,-2.0742,-2.1433,-2.2478,-2.2495,-2.2954,-2.3414,-2.3499,-2.3499,-2.3549,-2.3499,-2.3522,-2.3607,-2.3723,-2.3945,-2.4082,-2.4148,-2.4124,-2.397,-2.4058,-2.4165,-2.4303,-2.4444,-2.453,-2.4547,-2.458,-2.4629,-2.4629,-2.4613,-2.4645,-2.4645,-2.4629,-2.4679,-2.4692,-2.4731,-2.4771,-2.4795,-2.4855,-2.4968,-2.5084,-2.5182,-2.5254,-2.5341,-2.5571,-2.6159,-2.72,-2.8384,-2.9347,-3.0098,-3.0364,-3.041,-3.0448,-3.0564,-3.1006,-3.1564,-3.1872,-3.2244,-3.2705,-3.2955,-3.3173,-3.3211,-3.3942,-3.4364,-3.4557,-3.5018,-3.5215,-3.5235,-3.5355,-3.5244,-3.5076,-3.475,-3.4391,-3.4189,-3.3542,-3.2752,-3.1985,-3.1199,-3.0522,-3.0331,-3.0312,-3.0292,-3.0312,-3.0318,-3.0311,-3.0336,-3.0348,-3.0383,-3.0386,-3.0386,-3.0409,-3.0409,-3.0411,-3.0422,-3.0432,-3.0453,-3.0509,-3.0878,-3.1052,-3.1438,-3.1756,-3.205,-3.2679,-3.3304,-3.355,-3.3731,-3.433,-3.4939,-3.5232,-3.5485,-3.5693,-3.5947,-1.9662,-1.9701,-2.0091,-2.0357,-2.0483,-2.0807,-2.1493,-2.2357,-2.2797,-2.3217,-2.3606,-2.3674,-2.3656,-2.3718,-2.3656,-2.3656,-2.3761,-2.3964,-2.4173,-2.4316,-2.4396,-2.4425,-2.4452,-2.4422,-2.4467,-2.4513,-2.4596,-2.4645,-2.466,-2.4676,-2.4692,-2.4673,-2.4707,-2.4692,-2.4673,-2.4689,-2.4753,-2.4842,-2.4879,-2.491,-2.4981,-2.5024,-2.5103,-2.5214,-2.536,-2.544,-2.5459,-2.5459,-2.5923,-2.6706,-2.7576,-2.8618,-2.9725,-3.0216,-3.0417,-3.0455,-3.0455,-3.0609,-3.1053,-3.1168,-3.1303,-3.1785,-3.2112,-3.2293,-3.2531,-3.3147,-3.3558,-3.3673,-3.3949,-3.4276,-3.4314,-3.4724,-3.4672,-3.4307,-3.425,-3.3878,-3.3166,-3.2558,-3.2127,-3.1546,-3.0925,-3.0554,-3.0362,-3.0348,-3.0355,-3.0367,-3.0409,-3.0411,-3.0423,-3.0443,-3.0482,-3.05,-3.051,-3.0501,-3.051,-3.05,-3.0518,-3.0518,-3.0527,-3.0576,-3.0741,-3.08,-3.0846,-3.1184,-3.154,-3.187,-3.2424,-3.2627,-3.3037,-3.3707,-3.4323,-3.48,-3.523,-3.5532,-3.5806,-1.9001,-1.9468,-1.962,-1.9923,-2.0333,-2.0894,-2.145,-2.2183,-2.3016,-2.3217,-2.3595,-2.3631,-2.3721,-2.3721,-2.3721,-2.3721,-2.3912,-2.4135,-2.4402,-2.4577,-2.469,-2.4723,-2.4738,-2.4727,-2.4695,-2.4594,-2.4657,-2.4704,-2.4723,-2.4738,-2.4787,-2.4753,-2.4753,-2.4768,-2.4753,-2.4783,-2.4856,-2.498,-2.5038,-2.5091,-2.5182,-2.5182,-2.5224,-2.5303,-2.5395,-2.5503,-2.5503,-2.5542,-2.5793,-2.645,-2.6627,-2.7459,-2.8589,-2.9757,-3.0422,-3.0441,-3.0499,-3.0557,-3.0604,-3.0595,-3.0595,-3.0537,-3.1086,-3.148,-3.17,-3.2239,-3.2671,-3.282,-3.2993,-3.3166,-3.2993,-3.3595,-3.3653,-3.3338,-3.3677,-3.3189,-3.2213,-3.1637,-3.1438,-3.1311,-3.0854,-3.0519,-3.0441,-3.0451,-3.0439,-3.0428,-3.0492,-3.0519,-3.0518,-3.0543,-3.0568,-3.0571,-3.0556,-3.0554,-3.0546,-3.0607,-3.0603,-3.0625,-3.0625,-3.0678,-3.0711,-3.0765,-3.0813,-3.0793,-3.1086,-3.1435,-3.1652,-3.1825,-3.2355,-3.3105,-3.3573,-3.3944,-3.4569,-3.5288,-3.562,-1.849,-1.8026,-1.8931,-1.9092,-1.8874,-1.9125,-1.9896,-2.0716,-2.1638,-2.2271,-2.2922,-2.3497,-2.3735,-2.3789,-2.3786,-2.3969,-2.4246,-2.4485,-2.4685,-2.4842,-2.4934,-2.4934,-2.4921,-2.494,-2.4931,-2.4903,-2.4842,-2.4794,-2.4808,-2.4889,-2.4922,-2.4936,-2.495,-2.495,-2.4959,-2.4999,-2.5044,-2.5111,-2.5173,-2.5236,-2.5312,-2.5378,-2.5423,-2.544,-2.5492,-2.5499,-2.5511,-2.5511,-2.5569,-2.5735,-2.6334,-2.6799,-2.7467,-2.8637,-2.9574,-3.0142,-3.0335,-3.0335,-3.0355,-3.049,-3.049,-3.0518,-3.0702,-3.076,-3.0962,-3.1414,-3.1857,-3.2066,-3.2451,-3.2879,-3.2974,-3.31,-3.3198,-3.3006,-3.2647,-3.228,-3.1809,-3.1317,-3.0909,-3.0928,-3.0704,-3.0552,-3.0546,-3.0537,-3.0528,-3.0519,-3.0554,-3.0591,-3.0582,-3.0595,-3.0618,-3.0607,-3.0607,-3.0598,-3.061,-3.0656,-3.0691,-3.0728,-3.0745,-3.081,-3.0852,-3.0864,-3.0868,-3.0836,-3.0849,-3.107,-3.1192,-3.1233,-3.1565,-3.2251,-3.2658,-3.3046,-3.3829,-3.4613,-3.531,-1.8143,-1.7884,-1.8486,-1.865,-1.8625,-1.9163,-1.9759,-2.0426,-2.1207,-2.2007,-2.2659,-2.315,-2.3531,-2.3826,-2.4036,-2.4247,-2.4518,-2.4684,-2.4845,-2.4974,-2.5037,-2.505,-2.505,-2.5025,-2.5044,-2.5031,-2.4972,-2.4926,-2.4912,-2.4972,-2.4999,-2.4999,-2.5038,-2.5057,-2.5094,-2.5164,-2.5222,-2.5255,-2.5309,-2.5387,-2.5449,-2.5536,-2.555,-2.557,-2.555,-2.5543,-2.551,-2.5543,-2.5543,-2.5594,-2.5912,-2.6319,-2.6854,-2.745,-2.8345,-2.9081,-2.9612,-2.9883,-2.9999,-3.0211,-3.054,-3.055,-3.0559,-3.0578,-3.0656,-3.0965,-3.1186,-3.1251,-3.1353,-3.175,-3.1688,-3.2183,-3.2247,-3.1984,-3.1848,-3.1741,-3.1372,-3.0978,-3.0813,-3.0725,-3.0646,-3.061,-3.0598,-3.0598,-3.0605,-3.0613,-3.0639,-3.0651,-3.0649,-3.0672,-3.0714,-3.0721,-3.0724,-3.0721,-3.0714,-3.075,-3.0784,-3.0802,-3.0833,-3.0882,-3.0909,-3.0892,-3.0909,-3.0899,-3.0919,-3.0919,-3.0945,-3.1065,-3.126,-3.1454,-3.1983,-3.2569,-3.3211,-3.3912,-3.4671,-1.8029,-1.8092,-1.8281,-1.8465,-1.8777,-1.9559,-1.9974,-2.0297,-2.0988,-2.1753,-2.2518,-2.2812,-2.3324,-2.395,-2.4302,-2.4528,-2.4734,-2.4797,-2.4919,-2.4996,-2.5063,-2.5088,-2.5076,-2.5095,-2.5082,-2.507,-2.5063,-2.5051,-2.5025,-2.5044,-2.5025,-2.5075,-2.5115,-2.5133,-2.5194,-2.5255,-2.5335,-2.5383,-2.5446,-2.5486,-2.557,-2.5601,-2.5601,-2.5601,-2.5601,-2.5589,-2.5551,-2.5564,-2.5583,-2.5564,-2.5673,-2.5885,-2.6423,-2.6547,-2.6851,-2.7532,-2.8457,-2.9001,-2.9457,-2.9843,-3.0298,-3.055,-3.0598,-3.0635,-3.0679,-3.0734,-3.0737,-3.0626,-3.0704,-3.0772,-3.0963,-3.1309,-3.132,-3.115,-3.1357,-3.1562,-3.112,-3.0852,-3.0908,-3.0806,-3.0716,-3.0691,-3.0706,-3.0721,-3.0735,-3.0735,-3.0759,-3.076,-3.0774,-3.081,-3.083,-3.0864,-3.0868,-3.0884,-3.086,-3.086,-3.0864,-3.0866,-3.0866,-3.0912,-3.0913,-3.0914,-3.0918,-3.0918,-3.0919,-3.0921,-3.0909,-3.0914,-3.1052,-3.1267,-3.1599,-3.207,-3.2695,-3.3457,-3.4269,-1.8112,-1.8297,-1.848,-1.8699,-1.8906,-1.9219,-1.9332,-1.951,-2.0294,-2.0988,-2.1954,-2.2665,-2.3455,-2.419,-2.4588,-2.4746,-2.4842,-2.4979,-2.5059,-2.5089,-2.5094,-2.5111,-2.5091,-2.5075,-2.5113,-2.5113,-2.5125,-2.5088,-2.5113,-2.5145,-2.516,-2.5171,-2.5216,-2.5272,-2.5301,-2.536,-2.5379,-2.542,-2.5518,-2.5595,-2.5607,-2.5607,-2.5607,-2.5607,-2.5607,-2.5607,-2.5582,-2.5587,-2.5587,-2.5587,-2.56,-2.5654,-2.5741,-2.5726,-2.5753,-2.6271,-2.7212,-2.8498,-2.9001,-2.9437,-2.9863,-3.0346,-3.0559,-3.0626,-3.0697,-3.073,-3.0706,-3.0686,-3.0695,-3.0684,-3.0697,-3.0856,-3.0876,-3.0918,-3.1028,-3.1138,-3.0892,-3.0858,-3.0909,-3.0919,-3.0817,-3.084,-3.086,-3.0864,-3.0868,-3.0868,-3.084,-3.0781,-3.064,-3.0476,-3.0346,-3.0232,-3.0194,-3.0193,-3.0153,-3.0252,-3.0527,-3.0625,-3.0703,-3.0762,-3.0918,-3.0918,-3.0918,-3.0918,-3.0918,-3.0918,-3.0911,-3.0915,-3.0917,-3.1035,-3.1269,-3.168,-3.2148,-3.2949,-3.375,-1.844,-1.8551,-1.8751,-1.8907,-1.9081,-1.9283,-1.936,-1.9543,-2.0223,-2.1078,-2.1935,-2.2796,-2.371,-2.4523,-2.4818,-2.4907,-2.498,-2.5101,-2.5133,-2.5114,-2.5137,-2.5153,-2.5164,-2.5179,-2.5209,-2.522,-2.5253,-2.5265,-2.5254,-2.5214,-2.5214,-2.5225,-2.5337,-2.541,-2.5425,-2.548,-2.5529,-2.5571,-2.5644,-2.5668,-2.5668,-2.5668,-2.5668,-2.5668,-2.5649,-2.562,-2.5615,-2.5625,-2.5634,-2.5619,-2.5629,-2.5648,-2.5657,-2.5642,-2.5615,-2.5684,-2.6193,-2.7,-2.7826,-2.8788,-2.9465,-2.9979,-3.0393,-3.0741,-3.0798,-3.0801,-3.0801,-3.0825,-3.0825,-3.0801,-3.0801,-3.0823,-3.0849,-3.0898,-3.0918,-3.0918,-3.0918,-3.0918,-3.0915,-3.0909,-3.0882,-3.0774,-3.0684,-3.0586,-3.0586,-3.0664,-3.041,-3.0117,-2.9805,-2.9411,-2.9316,-2.9218,-2.9199,-2.9199,-2.914,-2.9141,-2.959,-2.9785,-3.0,-3.0195,-3.0781,-3.0918,-3.082,-3.0859,-3.0918,-3.0918,-3.0918,-3.0916,-3.0918,-3.0918,-3.0918,-3.1289,-3.166,-3.2207,-3.3066,-1.8807,-1.8825,-1.9002,-1.9143,-1.928,-1.9427,-1.9501,-1.9594,-2.0332,-2.122,-2.2208,-2.3218,-2.4261,-2.4809,-2.4975,-2.5031,-2.513,-2.518,-2.5156,-2.5144,-2.5168,-2.5206,-2.5222,-2.5264,-2.5293,-2.5351,-2.5348,-2.5363,-2.5354,-2.5346,-2.5301,-2.5263,-2.5466,-2.5537,-2.5554,-2.5595,-2.5639,-2.5667,-2.5691,-2.5695,-2.5695,-2.5695,-2.5695,-2.5699,-2.5683,-2.5664,-2.5656,-2.5675,-2.5665,-2.5651,-2.5666,-2.5676,-2.5681,-2.5662,-2.5642,-2.566,-2.5868,-2.6244,-2.7108,-2.8015,-2.89,-2.9606,-3.0243,-3.084,-3.0879,-3.0918,-3.0918,-3.0898,-3.0898,-3.0898,-3.0918,-3.0898,-3.0898,-3.0898,-3.0918,-3.0918,-3.0918,-3.0918,-3.0859,-3.0799,-3.0679,-3.0407,-3.0312,-3.0195,-3.0234,-3.0391,-3.0098,-2.9551,-2.9082,-2.8594,-2.8633,-2.8672,-2.8945,-2.8867,-2.8535,-2.8535,-2.8828,-2.8945,-2.916,-2.959,-3.0156,-3.0488,-3.0508,-3.0625,-3.082,-3.0918,-3.0918,-3.0918,-3.0918,-3.0898,-3.0898,-3.0879,-3.1172,-3.1688,-3.2435,-1.9035,-1.9168,-1.9168,-1.9295,-1.9489,-1.9497,-1.9501,-1.959,-2.04,-2.1377,-2.2572,-2.3933,-2.4879,-2.5138,-2.5149,-2.5149,-2.519,-2.5214,-2.5191,-2.521,-2.5203,-2.5254,-2.5283,-2.532,-2.5359,-2.5398,-2.5432,-2.5432,-2.5418,-2.548,-2.5454,-2.5498,-2.559,-2.5658,-2.5687,-2.5667,-2.5671,-2.5699,-2.5699,-2.5703,-2.5703,-2.5703,-2.5707,-2.5691,-2.5707,-2.5696,-2.5698,-2.5689,-2.5696,-2.5677,-2.5682,-2.5703,-2.5683,-2.5681,-2.568,-2.568,-2.568,-2.6113,-2.6932,-2.7303,-2.8008,-2.9213,-3.0281,-3.0892,-3.0918,-3.0918,-3.0918,-3.0918,-3.0918,-3.0918,-3.0918,-3.0918,-3.0918,-3.0918,-3.0918,-3.0918,-3.0918,-3.0918,-3.0859,-3.0723,-3.0449,-3.0059,-2.9609,-2.9434,-2.9434,-2.959,-2.9219,-2.8672,-2.8398,-2.8027,-2.8223,-2.8418,-2.8867,-2.8789,-2.8262,-2.8164,-2.7949,-2.8086,-2.834,-2.8867,-2.9492,-2.9746,-3.0137,-3.043,-3.0644,-3.0781,-3.0898,-3.084,-3.0824,-3.0865,-3.087,-3.082,-3.0915,-3.1334,-3.2119,-1.917,-1.9219,-1.9375,-1.9497,-1.9569,-1.9573,-1.9555,-1.981,-2.1026,-2.2544,-2.3941,-2.4812,-2.5179,-2.5212,-2.5212,-2.5212,-2.5212,-2.5248,-2.5248,-2.5273,-2.5321,-2.5329,-2.5374,-2.5434,-2.5499,-2.5517,-2.5546,-2.5591,-2.56,-2.5604,-2.5613,-2.564,-2.5679,-2.5695,-2.5699,-2.5699,-2.5699,-2.5699,-2.5703,-2.5707,-2.5704,-2.5707,-2.5693,-2.5707,-2.5689,-2.5694,-2.5696,-2.5698,-2.5702,-2.5703,-2.5703,-2.5701,-2.5697,-2.5691,-2.5687,-2.5687,-2.5687,-2.6156,-2.6839,-2.7088,-2.7773,-2.9257,-3.0348,-3.0913,-3.0916,-3.0916,-3.0918,-3.0918,-3.0918,-3.0918,-3.0918,-3.0918,-3.0918,-3.0918,-3.0918,-3.0918,-3.0918,-3.0918,-3.0586,-3.0332,-2.9922,-2.9512,-2.9023,-2.8574,-2.8652,-2.8691,-2.8262,-2.7832,-2.7539,-2.7363,-2.75,-2.7519,-2.7871,-2.7715,-2.7168,-2.7006,-2.6949,-2.7207,-2.748,-2.8027,-2.8613,-2.9414,-2.9785,-3.0137,-3.0477,-3.0644,-3.0742,-3.0723,-3.0739,-3.0795,-3.0795,-3.0769,-3.0911,-3.1053,-3.1627,-1.9216,-1.9264,-1.9497,-1.9583,-1.9583,-1.9583,-1.9629,-1.9926,-2.1437,-2.3309,-2.5087,-2.525,-2.5292,-2.5243,-2.5233,-2.5233,-2.5262,-2.5301,-2.5322,-2.5354,-2.5396,-2.5434,-2.5479,-2.5537,-2.5581,-2.5632,-2.5671,-2.5684,-2.5681,-2.5687,-2.5684,-2.5681,-2.5697,-2.5691,-2.5691,-2.5707,-2.5707,-2.5691,-2.5697,-2.5687,-2.5705,-2.5691,-2.5676,-2.5683,-2.5664,-2.5683,-2.5683,-2.5703,-2.5702,-2.57,-2.5699,-2.5696,-2.5691,-2.5687,-2.5687,-2.5687,-2.5785,-2.6117,-2.6782,-2.768,-2.8264,-2.9498,-3.0394,-3.0808,-3.0909,-3.0911,-3.0912,-3.0918,-3.0918,-3.0918,-3.0918,-3.0918,-3.0918,-3.0918,-3.0918,-3.0918,-3.0918,-3.0879,-3.0332,-2.9883,-2.9394,-2.8809,-2.8066,-2.7578,-2.7617,-2.7598,-2.7187,-2.6836,-2.6602,-2.6484,-2.6562,-2.6562,-2.6562,-2.623,-2.581,-2.6073,-2.6325,-2.6309,-2.6621,-2.7031,-2.7676,-2.8517,-2.9321,-2.9738,-3.0081,-3.0471,-3.061,-3.0637,-3.0657,-3.0704,-3.0701,-3.0676,-3.066,-3.081,-3.0936,-1.9295,-1.9305,-1.9541,-1.9615,-1.9615,-1.9583,-1.9628,-1.992,-2.1499,-2.3291,-2.4916,-2.5186,-2.5303,-2.5284,-2.5284,-2.5303,-2.5313,-2.537,-2.5397,-2.5434,-2.5496,-2.5537,-2.557,-2.5593,-2.5625,-2.5684,-2.5693,-2.5693,-2.569,-2.5693,-2.5693,-2.5693,-2.5693,-2.5693,-2.569,-2.5701,-2.5701,-2.569,-2.5683,-2.5696,-2.5681,-2.5683,-2.5663,-2.564,-2.5633,-2.565,-2.5652,-2.5689,-2.5687,-2.5687,-2.5689,-2.5685,-2.5683,-2.5685,-2.5705,-2.5705,-2.5707,-2.6117,-2.6939,-2.852,-2.9181,-2.9435,-3.0099,-3.0667,-3.0841,-3.0899,-3.0901,-3.0907,-3.0911,-3.0915,-3.0918,-3.0918,-3.0918,-3.0918,-3.0918,-3.0918,-3.0918,-3.0898,-3.0391,-2.9707,-2.8828,-2.8027,-2.7148,-2.6543,-2.6582,-2.6445,-2.6094,-2.5868,-2.581,-2.587,-2.603,-2.6019,-2.5961,-2.5882,-2.5688,-2.5619,-2.5677,-2.5615,-2.5795,-2.6305,-2.6826,-2.7559,-2.8348,-2.9083,-2.9501,-2.9699,-3.0153,-3.0543,-3.0584,-3.0597,-3.0606,-3.0588,-3.0539,-3.0549,-3.0714,-1.9435,-1.9513,-1.966,-1.9705,-1.9665,-1.9611,-1.9647,-2.0007,-2.1623,-2.322,-2.4389,-2.5014,-2.5313,-2.5303,-2.5359,-2.5357,-2.5395,-2.5505,-2.5528,-2.5549,-2.5584,-2.5622,-2.5642,-2.5657,-2.5671,-2.5681,-2.5703,-2.5701,-2.5703,-2.5703,-2.5703,-2.5703,-2.5696,-2.5697,-2.5691,-2.5683,-2.5681,-2.5623,-2.5625,-2.5641,-2.5638,-2.5634,-2.5629,-2.5612,-2.56,-2.5619,-2.5626,-2.5665,-2.5687,-2.5665,-2.5671,-2.5671,-2.5648,-2.5671,-2.5696,-2.5698,-2.572,-2.6097,-2.6978,-2.8049,-2.8654,-2.9006,-2.9572,-3.0313,-3.0704,-3.0821,-3.086,-3.088,-3.0903,-3.0909,-3.0918,-3.0898,-3.0898,-3.0918,-3.0918,-3.0918,-3.0918,-3.0879,-3.0566,-2.9687,-2.8828,-2.7611,-2.6603,-2.6155,-2.608,-2.6049,-2.5807,-2.5776,-2.572,-2.572,-2.582,-2.5781,-2.5732,-2.5707,-2.5641,-2.5556,-2.5513,-2.5515,-2.5543,-2.5718,-2.6265,-2.6823,-2.7208,-2.7879,-2.8418,-2.8929,-2.9671,-3.0279,-3.0406,-3.0455,-3.0505,-3.0535,-3.0499,-3.049,-3.0539,-1.9485,-1.9655,-1.9751,-1.9795,-1.9751,-1.9679,-1.9825,-2.0462,-2.1969,-2.3208,-2.4139,-2.4947,-2.5313,-2.5322,-2.5365,-2.5387,-2.5406,-2.5534,-2.5611,-2.5618,-2.5681,-2.5683,-2.5687,-2.5687,-2.5685,-2.5687,-2.5687,-2.5687,-2.5687,-2.5694,-2.568,-2.5663,-2.5664,-2.5662,-2.5663,-2.5663,-2.5625,-2.5598,-2.5609,-2.5612,-2.5609,-2.5603,-2.5609,-2.5609,-2.5595,-2.56,-2.5613,-2.5621,-2.5671,-2.5644,-2.5648,-2.5655,-2.5629,-2.5632,-2.5681,-2.569,-2.5759,-2.6019,-2.6585,-2.6866,-2.7371,-2.7839,-2.8864,-2.9923,-3.0587,-3.0782,-3.0821,-3.0841,-3.0858,-3.0849,-3.0846,-3.0829,-3.0823,-3.0833,-3.0827,-3.0824,-3.0804,-3.0765,-3.0495,-2.964,-2.8957,-2.7638,-2.638,-2.5952,-2.5697,-2.5667,-2.5613,-2.5629,-2.5639,-2.5639,-2.5632,-2.5605,-2.5583,-2.5564,-2.5556,-2.5487,-2.5443,-2.5429,-2.544,-2.547,-2.5753,-2.6323,-2.6487,-2.6841,-2.7928,-2.889,-2.9544,-2.9987,-3.0229,-3.0375,-3.0444,-3.0455,-3.0449,-3.0469,-3.0458,-1.9536,-1.9695,-1.9776,-1.9844,-1.988,-1.9757,-2.0232,-2.1195,-2.2317,-2.3263,-2.4052,-2.488,-2.5313,-2.5322,-2.5382,-2.5418,-2.5439,-2.5564,-2.5607,-2.562,-2.5668,-2.5683,-2.5687,-2.5687,-2.5687,-2.5687,-2.5691,-2.5694,-2.5693,-2.5683,-2.5662,-2.5634,-2.5629,-2.5618,-2.5629,-2.5626,-2.5595,-2.5606,-2.5609,-2.5613,-2.5613,-2.56,-2.5605,-2.5604,-2.5599,-2.5609,-2.56,-2.5615,-2.5624,-2.5609,-2.5617,-2.5617,-2.5617,-2.5598,-2.5632,-2.5665,-2.5673,-2.5754,-2.5835,-2.5987,-2.64,-2.718,-2.8379,-2.9642,-3.0362,-3.0508,-3.0544,-3.068,-3.0774,-3.0735,-3.0726,-3.0691,-3.0681,-3.0664,-3.0665,-3.0639,-3.0646,-3.051,-3.0218,-2.9712,-2.9252,-2.8184,-2.6831,-2.6165,-2.5626,-2.5523,-2.5504,-2.5505,-2.5523,-2.5542,-2.5532,-2.551,-2.5492,-2.5476,-2.5437,-2.5406,-2.5369,-2.5359,-2.534,-2.538,-2.5659,-2.5832,-2.6024,-2.664,-2.7928,-2.8775,-2.9083,-2.9602,-3.0179,-3.0294,-3.0402,-3.0414,-3.0436,-3.0414,-3.0452,-1.9643,-1.9926,-1.9938,-1.9926,-1.9908,-1.9899,-2.0124,-2.0614,-2.2064,-2.2973,-2.3262,-2.4739,-2.5365,-2.5445,-2.5517,-2.5546,-2.5576,-2.5621,-2.5678,-2.5693,-2.5679,-2.5685,-2.5687,-2.5687,-2.5687,-2.5693,-2.5697,-2.5703,-2.5683,-2.5662,-2.5646,-2.5603,-2.56,-2.5613,-2.561,-2.5615,-2.561,-2.5615,-2.5615,-2.5615,-2.5609,-2.5604,-2.5607,-2.5607,-2.5601,-2.5613,-2.5599,-2.56,-2.5605,-2.5609,-2.561,-2.5586,-2.5538,-2.5537,-2.554,-2.5546,-2.5556,-2.5566,-2.555,-2.5552,-2.5871,-2.6545,-2.7429,-2.8354,-2.9255,-2.9902,-3.0097,-3.0463,-3.0677,-3.065,-3.0639,-3.0613,-3.0598,-3.0576,-3.0579,-3.0571,-3.054,-3.0316,-3.0044,-2.9773,-2.9307,-2.8311,-2.7021,-2.6202,-2.5699,-2.5517,-2.541,-2.5398,-2.5418,-2.5432,-2.5453,-2.5432,-2.541,-2.541,-2.5367,-2.5332,-2.5322,-2.5313,-2.5313,-2.5313,-2.5428,-2.5563,-2.5659,-2.6294,-2.7409,-2.7986,-2.8313,-2.9044,-3.0071,-3.0283,-3.041,-3.039,-3.039,-3.039,-3.0398,-1.9726,-1.9971,-1.9993,-2.0004,-2.0029,-2.0088,-2.0159,-2.0488,-2.2057,-2.2844,-2.3044,-2.4632,-2.5426,-2.5483,-2.5554,-2.56,-2.5601,-2.5648,-2.5703,-2.5703,-2.5687,-2.5687,-2.5687,-2.5687,-2.5687,-2.5694,-2.5703,-2.5703,-2.5684,-2.5629,-2.5597,-2.56,-2.561,-2.5615,-2.5613,-2.5607,-2.5607,-2.5607,-2.5607,-2.5601,-2.5601,-2.5601,-2.5601,-2.5601,-2.5601,-2.5601,-2.5601,-2.5604,-2.5599,-2.5601,-2.5604,-2.5562,-2.551,-2.5478,-2.5466,-2.5473,-2.5454,-2.5453,-2.5451,-2.5415,-2.5749,-2.6161,-2.6587,-2.7489,-2.8427,-2.9213,-2.9836,-3.04,-3.051,-3.0586,-3.0568,-3.0535,-3.0546,-3.0528,-3.053,-3.053,-3.0346,-3.0141,-2.9948,-2.9735,-2.9049,-2.8092,-2.7163,-2.6366,-2.5739,-2.5479,-2.5357,-2.5339,-2.535,-2.5357,-2.5374,-2.5357,-2.5357,-2.535,-2.5313,-2.5313,-2.5313,-2.5313,-2.5313,-2.5313,-2.5313,-2.5409,-2.5601,-2.6101,-2.6774,-2.7448,-2.8255,-2.914,-3.0013,-3.0206,-3.0398,-3.041,-3.039,-3.041,-3.0398,-1.9757,-1.9993,-1.9993,-2.0078,-2.0188,-2.0273,-2.028,-2.0495,-2.2026,-2.2829,-2.3195,-2.4574,-2.5329,-2.5511,-2.559,-2.5632,-2.5636,-2.5681,-2.5687,-2.5687,-2.5687,-2.5687,-2.5689,-2.5691,-2.5696,-2.5698,-2.5684,-2.5664,-2.5664,-2.5632,-2.5595,-2.5601,-2.5607,-2.5607,-2.5601,-2.5601,-2.5601,-2.5601,-2.5601,-2.5601,-2.5601,-2.5601,-2.5601,-2.5601,-2.5601,-2.5595,-2.5589,-2.5595,-2.5595,-2.5589,-2.5564,-2.5518,-2.5468,-2.5401,-2.5382,-2.5371,-2.5368,-2.5356,-2.5345,-2.5324,-2.5346,-2.5706,-2.614,-2.7055,-2.8019,-2.8904,-2.9655,-3.0303,-3.0498,-3.0509,-3.0492,-3.0492,-3.0472,-3.0451,-3.0449,-3.0458,-3.0372,-3.0007,-2.9525,-2.9178,-2.8367,-2.7528,-2.7161,-2.6341,-2.5655,-2.5399,-2.5303,-2.5293,-2.5361,-2.537,-2.5409,-2.5409,-2.5313,-2.5322,-2.5303,-2.5313,-2.5313,-2.5313,-2.5313,-2.5313,-2.5313,-2.5428,-2.5591,-2.6024,-2.6467,-2.7601,-2.8525,-2.9236,-2.9813,-3.0263,-3.0398,-3.0398,-3.0398,-3.0398,-3.0398,-1.9751,-1.9988,-2.0039,-2.0136,-2.0216,-2.0262,-2.0332,-2.0457,-2.1481,-2.2344,-2.3106,-2.405,-2.4975,-2.5492,-2.5535,-2.5587,-2.5676,-2.5681,-2.5687,-2.5687,-2.5687,-2.5693,-2.5694,-2.5701,-2.5703,-2.5683,-2.5654,-2.5623,-2.564,-2.5625,-2.5599,-2.5601,-2.5601,-2.5601,-2.5601,-2.5601,-2.5601,-2.5601,-2.5601,-2.5595,-2.5595,-2.5601,-2.5601,-2.5601,-2.5601,-2.5577,-2.5538,-2.5524,-2.5495,-2.5464,-2.5456,-2.5395,-2.5332,-2.5292,-2.5252,-2.5243,-2.5264,-2.5274,-2.5313,-2.5322,-2.5408,-2.5668,-2.6205,-2.7003,-2.7853,-2.8685,-2.9457,-3.0104,-3.0441,-3.043,-3.0428,-3.0417,-3.0425,-3.0402,-3.0379,-3.0379,-3.0359,-2.9775,-2.9171,-2.8429,-2.7659,-2.7255,-2.6928,-2.6409,-2.5717,-2.5409,-2.5332,-2.5332,-2.5447,-2.5515,-2.563,-2.5592,-2.5351,-2.5293,-2.5313,-2.5313,-2.5313,-2.5313,-2.5313,-2.5313,-2.5303,-2.539,-2.5476,-2.5717,-2.6236,-2.7409,-2.8332,-2.8852,-2.9429,-3.0121,-3.0398,-3.0398,-3.0367,-3.0355,-3.0367,-1.888,-1.9447,-1.9945,-2.018,-2.0257,-2.0318,-2.0353,-2.0476,-2.0927,-2.1643,-2.2501,-2.3366,-2.4232,-2.5005,-2.5102,-2.5408,-2.5549,-2.5687,-2.5687,-2.5687,-2.5691,-2.5699,-2.5703,-2.5702,-2.5662,-2.5637,-2.5629,-2.5604,-2.5613,-2.5601,-2.5607,-2.5601,-2.5601,-2.5601,-2.5601,-2.5601,-2.5601,-2.5601,-2.5601,-2.5589,-2.5557,-2.5583,-2.5601,-2.5601,-2.5577,-2.5531,-2.5503,-2.5461,-2.5421,-2.5406,-2.5388,-2.5351,-2.5292,-2.5258,-2.5214,-2.5214,-2.5206,-2.5214,-2.5271,-2.5474,-2.5669,-2.6006,-2.7064,-2.8161,-2.8503,-2.9316,-2.9828,-3.0406,-3.0425,-3.0414,-3.0414,-3.0402,-3.0402,-3.041,-3.0314,-3.0275,-2.9948,-2.941,-2.8844,-2.8236,-2.764,-2.7332,-2.7005,-2.6621,-2.5986,-2.5534,-2.5447,-2.589,-2.5928,-2.6005,-2.6024,-2.5918,-2.5773,-2.5437,-2.5313,-2.5313,-2.5313,-2.5313,-2.5313,-2.5322,-2.5341,-2.5322,-2.539,-2.5686,-2.6282,-2.7294,-2.8102,-2.8772,-2.9475,-3.0263,-3.0379,-3.0367,-3.0343,-3.0273,-3.0247,-1.7839,-1.8783,-1.9647,-2.0145,-2.0296,-2.0379,-2.0379,-2.0399,-2.0418,-2.0856,-2.1598,-2.232,-2.3205,-2.3908,-2.439,-2.4868,-2.5254,-2.5551,-2.5629,-2.5512,-2.5648,-2.5682,-2.5701,-2.5691,-2.5642,-2.5609,-2.5601,-2.5605,-2.5601,-2.5601,-2.5601,-2.5601,-2.5601,-2.5601,-2.5601,-2.5589,-2.5583,-2.5577,-2.5544,-2.5531,-2.5531,-2.5544,-2.5551,-2.5544,-2.5517,-2.5488,-2.5445,-2.5412,-2.5378,-2.5361,-2.5312,-2.5282,-2.5261,-2.5225,-2.5222,-2.521,-2.521,-2.521,-2.5325,-2.5841,-2.6159,-2.6776,-2.821,-2.9001,-2.9248,-2.9663,-3.0175,-3.0379,-3.0398,-3.0398,-3.0398,-3.0398,-3.0398,-3.0379,-3.0294,-3.0217,-2.9737,-2.9228,-2.8659,-2.8102,-2.7678,-2.7351,-2.7024,-2.6659,-2.6409,-2.5928,-2.6043,-2.6467,-2.6794,-2.6909,-2.6967,-2.6724,-2.6461,-2.6079,-2.5485,-2.5331,-2.534,-2.5313,-2.5303,-2.5351,-2.5503,-2.5841,-2.5953,-2.5795,-2.6477,-2.757,-2.833,-2.9008,-2.9723,-3.0323,-3.0247,-3.0174,-3.0161,-3.0085,-3.0041,-1.7791,-1.8715,-1.9035,-1.9553,-2.018,-2.0346,-2.0379,-2.0379,-2.0379,-2.054,-2.0766,-2.0971,-2.177,-2.3354,-2.4137,-2.447,-2.4342,-2.5065,-2.5082,-2.475,-2.5464,-2.5664,-2.5689,-2.5652,-2.561,-2.56,-2.5615,-2.5613,-2.5601,-2.5601,-2.5601,-2.5576,-2.5595,-2.5595,-2.5589,-2.5551,-2.5517,-2.551,-2.548,-2.5429,-2.5456,-2.5464,-2.5453,-2.5445,-2.5412,-2.5369,-2.5351,-2.5341,-2.5282,-2.5239,-2.5236,-2.5225,-2.5225,-2.5203,-2.521,-2.521,-2.521,-2.5325,-2.5573,-2.6173,-2.6579,-2.684,-2.807,-2.9072,-2.9416,-2.9824,-3.0201,-3.0367,-3.0398,-3.0398,-3.0398,-3.0398,-3.0398,-3.0398,-3.034,-3.0321,-3.0102,-2.9506,-2.8909,-2.8217,-2.7544,-2.7255,-2.6948,-2.6871,-2.7063,-2.6871,-2.7236,-2.7621,-2.7627,-2.7772,-2.7937,-2.7555,-2.7209,-2.6346,-2.5629,-2.5463,-2.5425,-2.536,-2.5426,-2.5669,-2.6084,-2.6705,-2.6749,-2.6397,-2.6993,-2.8065,-2.8722,-2.9153,-2.9669,-3.0114,-3.0026,-2.9965,-2.995,-2.9918,-2.9869]}]]